<?xml version="1.0" encoding="UTF-8" standalone="no" ?>
<gpx xmlns="http://www.topografix.com/GPX/1/1" xmlns:xsi="http://www.w3.org/2001/XMLSchema-instance" xsi:schemaLocation="http://www.topografix.com/GPX/1/1 http://www.topografix.com/GPX/1/1/gpx.xsd" version="1.1" creator="VisuGPX - https://www.visugpx.com">
  <metadata>
    <name>secteur Saverne - Dabo - Petite Pierre</name>
  </metadata>
  <trk>
    <name><![CDATA[secteur Saverne - Dabo - Petite Pierre_12]]></name>
    <trkseg>
      <trkpt lat="48.63163" lon="7.13829">
        <ele>472.3</ele>
        <time>2020-08-12T08:50:52Z</time>
      </trkpt>
      <trkpt lat="48.63163" lon="7.13829">
        <ele>472.3</ele>
        <time>2020-08-12T08:50:52Z</time>
      </trkpt>
      <trkpt lat="48.63163" lon="7.13829">
        <ele>472.3</ele>
        <time>2020-08-12T08:50:52Z</time>
      </trkpt>
      <trkpt lat="48.63163" lon="7.13829">
        <ele>472.3</ele>
        <time>2020-08-12T08:50:52Z</time>
      </trkpt>
      <trkpt lat="48.63163" lon="7.13829">
        <ele>472.3</ele>
        <time>2020-08-12T08:50:52Z</time>
      </trkpt>
      <trkpt lat="48.63163" lon="7.13829">
        <ele>472.3</ele>
        <time>2020-08-12T08:50:52Z</time>
      </trkpt>
      <trkpt lat="48.63163" lon="7.13829">
        <ele>472.3</ele>
        <time>2020-08-12T08:50:52Z</time>
      </trkpt>
      <trkpt lat="48.63163" lon="7.13829">
        <ele>472.3</ele>
        <time>2020-08-12T08:50:52Z</time>
      </trkpt>
      <trkpt lat="48.63156" lon="7.13825">
        <ele>473.1</ele>
        <time>2020-08-12T08:50:54Z</time>
      </trkpt>
      <trkpt lat="48.63148" lon="7.13827">
        <ele>473.4</ele>
        <time>2020-08-12T08:50:56Z</time>
      </trkpt>
      <trkpt lat="48.63142" lon="7.13831">
        <ele>473.9</ele>
        <time>2020-08-12T08:50:58Z</time>
      </trkpt>
      <trkpt lat="48.63136" lon="7.13835">
        <ele>473.5</ele>
        <time>2020-08-12T08:51:00Z</time>
      </trkpt>
      <trkpt lat="48.6313" lon="7.13839">
        <ele>473.2</ele>
        <time>2020-08-12T08:51:02Z</time>
      </trkpt>
      <trkpt lat="48.63126" lon="7.13841">
        <ele>473.1</ele>
        <time>2020-08-12T08:51:04Z</time>
      </trkpt>
      <trkpt lat="48.63121" lon="7.13842">
        <ele>472.3</ele>
        <time>2020-08-12T08:51:07Z</time>
      </trkpt>
      <trkpt lat="48.6312" lon="7.1385">
        <ele>469.5</ele>
        <time>2020-08-12T08:51:20Z</time>
      </trkpt>
      <trkpt lat="48.63124" lon="7.13857">
        <ele>468.5</ele>
        <time>2020-08-12T08:51:23Z</time>
      </trkpt>
      <trkpt lat="48.63128" lon="7.13862">
        <ele>468.2</ele>
        <time>2020-08-12T08:51:25Z</time>
      </trkpt>
      <trkpt lat="48.63134" lon="7.13869">
        <ele>468</ele>
        <time>2020-08-12T08:51:27Z</time>
      </trkpt>
      <trkpt lat="48.63141" lon="7.13875">
        <ele>468.3</ele>
        <time>2020-08-12T08:51:29Z</time>
      </trkpt>
      <trkpt lat="48.63151" lon="7.1388">
        <ele>468.3</ele>
        <time>2020-08-12T08:51:31Z</time>
      </trkpt>
      <trkpt lat="48.63161" lon="7.13889">
        <ele>468</ele>
        <time>2020-08-12T08:51:33Z</time>
      </trkpt>
      <trkpt lat="48.63174" lon="7.139">
        <ele>467.6</ele>
        <time>2020-08-12T08:51:35Z</time>
      </trkpt>
      <trkpt lat="48.63187" lon="7.13911">
        <ele>466</ele>
        <time>2020-08-12T08:51:37Z</time>
      </trkpt>
      <trkpt lat="48.63198" lon="7.13919">
        <ele>464.8</ele>
        <time>2020-08-12T08:51:39Z</time>
      </trkpt>
      <trkpt lat="48.63209" lon="7.13929">
        <ele>463.5</ele>
        <time>2020-08-12T08:51:41Z</time>
      </trkpt>
      <trkpt lat="48.63219" lon="7.13943">
        <ele>462.2</ele>
        <time>2020-08-12T08:51:43Z</time>
      </trkpt>
      <trkpt lat="48.63229" lon="7.13957">
        <ele>460.9</ele>
        <time>2020-08-12T08:51:45Z</time>
      </trkpt>
      <trkpt lat="48.63238" lon="7.13974">
        <ele>459.8</ele>
        <time>2020-08-12T08:51:47Z</time>
      </trkpt>
      <trkpt lat="48.63242" lon="7.13993">
        <ele>457.9</ele>
        <time>2020-08-12T08:51:49Z</time>
      </trkpt>
      <trkpt lat="48.63245" lon="7.1401">
        <ele>456.9</ele>
        <time>2020-08-12T08:51:51Z</time>
      </trkpt>
      <trkpt lat="48.6325" lon="7.14025">
        <ele>455.8</ele>
        <time>2020-08-12T08:51:53Z</time>
      </trkpt>
      <trkpt lat="48.63255" lon="7.14042">
        <ele>455.6</ele>
        <time>2020-08-12T08:51:55Z</time>
      </trkpt>
      <trkpt lat="48.63256" lon="7.14056">
        <ele>455.2</ele>
        <time>2020-08-12T08:51:57Z</time>
      </trkpt>
      <trkpt lat="48.63256" lon="7.14067">
        <ele>454.9</ele>
        <time>2020-08-12T08:51:59Z</time>
      </trkpt>
      <trkpt lat="48.63251" lon="7.1407">
        <ele>453.2</ele>
        <time>2020-08-12T08:52:02Z</time>
      </trkpt>
      <trkpt lat="48.63246" lon="7.14062">
        <ele>451.1</ele>
        <time>2020-08-12T08:52:05Z</time>
      </trkpt>
      <trkpt lat="48.63243" lon="7.14054">
        <ele>449.4</ele>
        <time>2020-08-12T08:52:07Z</time>
      </trkpt>
      <trkpt lat="48.63236" lon="7.14041">
        <ele>447.4</ele>
        <time>2020-08-12T08:52:09Z</time>
      </trkpt>
      <trkpt lat="48.63227" lon="7.14028">
        <ele>446</ele>
        <time>2020-08-12T08:52:11Z</time>
      </trkpt>
      <trkpt lat="48.63217" lon="7.14017">
        <ele>444.4</ele>
        <time>2020-08-12T08:52:13Z</time>
      </trkpt>
      <trkpt lat="48.63207" lon="7.14008">
        <ele>435.5</ele>
        <time>2020-08-12T08:52:15Z</time>
      </trkpt>
      <trkpt lat="48.63195" lon="7.13999">
        <ele>433</ele>
        <time>2020-08-12T08:52:17Z</time>
      </trkpt>
      <trkpt lat="48.63186" lon="7.1399">
        <ele>428.1</ele>
        <time>2020-08-12T08:52:19Z</time>
      </trkpt>
      <trkpt lat="48.63175" lon="7.13983">
        <ele>426.5</ele>
        <time>2020-08-12T08:52:21Z</time>
      </trkpt>
      <trkpt lat="48.63165" lon="7.13978">
        <ele>426.1</ele>
        <time>2020-08-12T08:52:23Z</time>
      </trkpt>
      <trkpt lat="48.63155" lon="7.13976">
        <ele>426.5</ele>
        <time>2020-08-12T08:52:25Z</time>
      </trkpt>
      <trkpt lat="48.63144" lon="7.13975">
        <ele>426.8</ele>
        <time>2020-08-12T08:52:27Z</time>
      </trkpt>
      <trkpt lat="48.63137" lon="7.13977">
        <ele>427.7</ele>
        <time>2020-08-12T08:52:29Z</time>
      </trkpt>
      <trkpt lat="48.6314" lon="7.13984">
        <ele>427.1</ele>
        <time>2020-08-12T08:52:40Z</time>
      </trkpt>
      <trkpt lat="48.63146" lon="7.13986">
        <ele>427.8</ele>
        <time>2020-08-12T08:52:44Z</time>
      </trkpt>
      <trkpt lat="48.6315" lon="7.13989">
        <ele>427.8</ele>
        <time>2020-08-12T08:52:46Z</time>
      </trkpt>
      <trkpt lat="48.63156" lon="7.13994">
        <ele>428.7</ele>
        <time>2020-08-12T08:52:48Z</time>
      </trkpt>
      <trkpt lat="48.63162" lon="7.13998">
        <ele>429.8</ele>
        <time>2020-08-12T08:52:50Z</time>
      </trkpt>
      <trkpt lat="48.63168" lon="7.14002">
        <ele>430.2</ele>
        <time>2020-08-12T08:52:52Z</time>
      </trkpt>
      <trkpt lat="48.63174" lon="7.14007">
        <ele>429.6</ele>
        <time>2020-08-12T08:52:54Z</time>
      </trkpt>
      <trkpt lat="48.63179" lon="7.14013">
        <ele>428.6</ele>
        <time>2020-08-12T08:52:56Z</time>
      </trkpt>
      <trkpt lat="48.63184" lon="7.1402">
        <ele>428.2</ele>
        <time>2020-08-12T08:52:58Z</time>
      </trkpt>
      <trkpt lat="48.63189" lon="7.14028">
        <ele>427.4</ele>
        <time>2020-08-12T08:53:00Z</time>
      </trkpt>
      <trkpt lat="48.63194" lon="7.14037">
        <ele>426.7</ele>
        <time>2020-08-12T08:53:02Z</time>
      </trkpt>
      <trkpt lat="48.63201" lon="7.1405">
        <ele>425.9</ele>
        <time>2020-08-12T08:53:04Z</time>
      </trkpt>
      <trkpt lat="48.6321" lon="7.14064">
        <ele>424.4</ele>
        <time>2020-08-12T08:53:06Z</time>
      </trkpt>
      <trkpt lat="48.63218" lon="7.14078">
        <ele>424</ele>
        <time>2020-08-12T08:53:08Z</time>
      </trkpt>
      <trkpt lat="48.63221" lon="7.14089">
        <ele>423.8</ele>
        <time>2020-08-12T08:53:10Z</time>
      </trkpt>
      <trkpt lat="48.63225" lon="7.14103">
        <ele>419.7</ele>
        <time>2020-08-12T08:53:12Z</time>
      </trkpt>
      <trkpt lat="48.63225" lon="7.14123">
        <ele>418.3</ele>
        <time>2020-08-12T08:53:15Z</time>
      </trkpt>
      <trkpt lat="48.63226" lon="7.14137">
        <ele>417.3</ele>
        <time>2020-08-12T08:53:17Z</time>
      </trkpt>
      <trkpt lat="48.63227" lon="7.14153">
        <ele>416.6</ele>
        <time>2020-08-12T08:53:19Z</time>
      </trkpt>
      <trkpt lat="48.63231" lon="7.14168">
        <ele>415.9</ele>
        <time>2020-08-12T08:53:21Z</time>
      </trkpt>
      <trkpt lat="48.63235" lon="7.14185">
        <ele>415.8</ele>
        <time>2020-08-12T08:53:23Z</time>
      </trkpt>
      <trkpt lat="48.63239" lon="7.14202">
        <ele>415.7</ele>
        <time>2020-08-12T08:53:25Z</time>
      </trkpt>
      <trkpt lat="48.63243" lon="7.14219">
        <ele>416.6</ele>
        <time>2020-08-12T08:53:27Z</time>
      </trkpt>
      <trkpt lat="48.63248" lon="7.14235">
        <ele>415.6</ele>
        <time>2020-08-12T08:53:29Z</time>
      </trkpt>
      <trkpt lat="48.63253" lon="7.14249">
        <ele>415</ele>
        <time>2020-08-12T08:53:31Z</time>
      </trkpt>
      <trkpt lat="48.63256" lon="7.14263">
        <ele>415.3</ele>
        <time>2020-08-12T08:53:33Z</time>
      </trkpt>
      <trkpt lat="48.6326" lon="7.14276">
        <ele>415</ele>
        <time>2020-08-12T08:53:35Z</time>
      </trkpt>
      <trkpt lat="48.63264" lon="7.14289">
        <ele>414.8</ele>
        <time>2020-08-12T08:53:37Z</time>
      </trkpt>
      <trkpt lat="48.63269" lon="7.14303">
        <ele>414.7</ele>
        <time>2020-08-12T08:53:39Z</time>
      </trkpt>
      <trkpt lat="48.63274" lon="7.14317">
        <ele>415.1</ele>
        <time>2020-08-12T08:53:41Z</time>
      </trkpt>
      <trkpt lat="48.63278" lon="7.14329">
        <ele>415.4</ele>
        <time>2020-08-12T08:53:43Z</time>
      </trkpt>
      <trkpt lat="48.63282" lon="7.1434">
        <ele>415.9</ele>
        <time>2020-08-12T08:53:45Z</time>
      </trkpt>
      <trkpt lat="48.63285" lon="7.14351">
        <ele>416.6</ele>
        <time>2020-08-12T08:53:47Z</time>
      </trkpt>
      <trkpt lat="48.63291" lon="7.14359">
        <ele>417.6</ele>
        <time>2020-08-12T08:53:49Z</time>
      </trkpt>
      <trkpt lat="48.63296" lon="7.14368">
        <ele>418.6</ele>
        <time>2020-08-12T08:53:51Z</time>
      </trkpt>
      <trkpt lat="48.63301" lon="7.14375">
        <ele>419</ele>
        <time>2020-08-12T08:53:53Z</time>
      </trkpt>
      <trkpt lat="48.63306" lon="7.14382">
        <ele>419.8</ele>
        <time>2020-08-12T08:53:55Z</time>
      </trkpt>
      <trkpt lat="48.6331" lon="7.14389">
        <ele>420.6</ele>
        <time>2020-08-12T08:53:57Z</time>
      </trkpt>
      <trkpt lat="48.63314" lon="7.14394">
        <ele>421.3</ele>
        <time>2020-08-12T08:53:59Z</time>
      </trkpt>
      <trkpt lat="48.63318" lon="7.14399">
        <ele>421.6</ele>
        <time>2020-08-12T08:54:01Z</time>
      </trkpt>
      <trkpt lat="48.63323" lon="7.14403">
        <ele>422.3</ele>
        <time>2020-08-12T08:54:03Z</time>
      </trkpt>
      <trkpt lat="48.63328" lon="7.14408">
        <ele>423.1</ele>
        <time>2020-08-12T08:54:05Z</time>
      </trkpt>
      <trkpt lat="48.63333" lon="7.14411">
        <ele>423.4</ele>
        <time>2020-08-12T08:54:07Z</time>
      </trkpt>
      <trkpt lat="48.63337" lon="7.14414">
        <ele>423.6</ele>
        <time>2020-08-12T08:54:09Z</time>
      </trkpt>
      <trkpt lat="48.63344" lon="7.14417">
        <ele>431.5</ele>
        <time>2020-08-12T08:54:12Z</time>
      </trkpt>
      <trkpt lat="48.63348" lon="7.14419">
        <ele>432.5</ele>
        <time>2020-08-12T08:54:14Z</time>
      </trkpt>
      <trkpt lat="48.63353" lon="7.14421">
        <ele>432.5</ele>
        <time>2020-08-12T08:54:16Z</time>
      </trkpt>
      <trkpt lat="48.63358" lon="7.14423">
        <ele>432</ele>
        <time>2020-08-12T08:54:18Z</time>
      </trkpt>
      <trkpt lat="48.63363" lon="7.14425">
        <ele>429.6</ele>
        <time>2020-08-12T08:54:21Z</time>
      </trkpt>
      <trkpt lat="48.6337" lon="7.14428">
        <ele>426.8</ele>
        <time>2020-08-12T08:54:24Z</time>
      </trkpt>
      <trkpt lat="48.63375" lon="7.14428">
        <ele>424.3</ele>
        <time>2020-08-12T08:54:26Z</time>
      </trkpt>
      <trkpt lat="48.63381" lon="7.14429">
        <ele>422.4</ele>
        <time>2020-08-12T08:54:28Z</time>
      </trkpt>
      <trkpt lat="48.63386" lon="7.14433">
        <ele>432.2</ele>
        <time>2020-08-12T08:54:31Z</time>
      </trkpt>
      <trkpt lat="48.63391" lon="7.14436">
        <ele>433.6</ele>
        <time>2020-08-12T08:54:33Z</time>
      </trkpt>
      <trkpt lat="48.63396" lon="7.14438">
        <ele>432.7</ele>
        <time>2020-08-12T08:54:35Z</time>
      </trkpt>
      <trkpt lat="48.63401" lon="7.14437">
        <ele>431.3</ele>
        <time>2020-08-12T08:54:37Z</time>
      </trkpt>
      <trkpt lat="48.63408" lon="7.14436">
        <ele>429.3</ele>
        <time>2020-08-12T08:54:40Z</time>
      </trkpt>
      <trkpt lat="48.63413" lon="7.14437">
        <ele>428.4</ele>
        <time>2020-08-12T08:54:42Z</time>
      </trkpt>
      <trkpt lat="48.63418" lon="7.14438">
        <ele>427.9</ele>
        <time>2020-08-12T08:54:44Z</time>
      </trkpt>
      <trkpt lat="48.63423" lon="7.14441">
        <ele>427.4</ele>
        <time>2020-08-12T08:54:46Z</time>
      </trkpt>
      <trkpt lat="48.6343" lon="7.14445">
        <ele>427.9</ele>
        <time>2020-08-12T08:54:48Z</time>
      </trkpt>
      <trkpt lat="48.63436" lon="7.1445">
        <ele>428.6</ele>
        <time>2020-08-12T08:54:50Z</time>
      </trkpt>
      <trkpt lat="48.63441" lon="7.14453">
        <ele>429.7</ele>
        <time>2020-08-12T08:54:52Z</time>
      </trkpt>
      <trkpt lat="48.63446" lon="7.14456">
        <ele>430.5</ele>
        <time>2020-08-12T08:54:54Z</time>
      </trkpt>
      <trkpt lat="48.63451" lon="7.14456">
        <ele>430.2</ele>
        <time>2020-08-12T08:54:56Z</time>
      </trkpt>
      <trkpt lat="48.63456" lon="7.14457">
        <ele>429.7</ele>
        <time>2020-08-12T08:54:58Z</time>
      </trkpt>
      <trkpt lat="48.63463" lon="7.14458">
        <ele>428.3</ele>
        <time>2020-08-12T08:55:01Z</time>
      </trkpt>
      <trkpt lat="48.63468" lon="7.14459">
        <ele>427.4</ele>
        <time>2020-08-12T08:55:03Z</time>
      </trkpt>
      <trkpt lat="48.63473" lon="7.1446">
        <ele>427.6</ele>
        <time>2020-08-12T08:55:05Z</time>
      </trkpt>
      <trkpt lat="48.63478" lon="7.14462">
        <ele>428.2</ele>
        <time>2020-08-12T08:55:07Z</time>
      </trkpt>
      <trkpt lat="48.63482" lon="7.14466">
        <ele>428.4</ele>
        <time>2020-08-12T08:55:09Z</time>
      </trkpt>
      <trkpt lat="48.63488" lon="7.14471">
        <ele>428.6</ele>
        <time>2020-08-12T08:55:11Z</time>
      </trkpt>
      <trkpt lat="48.63493" lon="7.14475">
        <ele>428.8</ele>
        <time>2020-08-12T08:55:13Z</time>
      </trkpt>
      <trkpt lat="48.63499" lon="7.14479">
        <ele>428.9</ele>
        <time>2020-08-12T08:55:15Z</time>
      </trkpt>
      <trkpt lat="48.63504" lon="7.14484">
        <ele>429.1</ele>
        <time>2020-08-12T08:55:17Z</time>
      </trkpt>
      <trkpt lat="48.63509" lon="7.14489">
        <ele>429</ele>
        <time>2020-08-12T08:55:19Z</time>
      </trkpt>
      <trkpt lat="48.63514" lon="7.14494">
        <ele>429.6</ele>
        <time>2020-08-12T08:55:21Z</time>
      </trkpt>
      <trkpt lat="48.63518" lon="7.14498">
        <ele>429</ele>
        <time>2020-08-12T08:55:23Z</time>
      </trkpt>
      <trkpt lat="48.63523" lon="7.14503">
        <ele>429</ele>
        <time>2020-08-12T08:55:25Z</time>
      </trkpt>
      <trkpt lat="48.63528" lon="7.14508">
        <ele>430.1</ele>
        <time>2020-08-12T08:55:27Z</time>
      </trkpt>
      <trkpt lat="48.63533" lon="7.14514">
        <ele>431.3</ele>
        <time>2020-08-12T08:55:29Z</time>
      </trkpt>
      <trkpt lat="48.63536" lon="7.14523">
        <ele>432.9</ele>
        <time>2020-08-12T08:55:31Z</time>
      </trkpt>
      <trkpt lat="48.63539" lon="7.14532">
        <ele>434.1</ele>
        <time>2020-08-12T08:55:33Z</time>
      </trkpt>
      <trkpt lat="48.63541" lon="7.1454">
        <ele>435</ele>
        <time>2020-08-12T08:55:35Z</time>
      </trkpt>
      <trkpt lat="48.63543" lon="7.14548">
        <ele>436.5</ele>
        <time>2020-08-12T08:55:37Z</time>
      </trkpt>
      <trkpt lat="48.63546" lon="7.14556">
        <ele>437.1</ele>
        <time>2020-08-12T08:55:39Z</time>
      </trkpt>
      <trkpt lat="48.63548" lon="7.14565">
        <ele>437</ele>
        <time>2020-08-12T08:55:41Z</time>
      </trkpt>
      <trkpt lat="48.63551" lon="7.14574">
        <ele>437.5</ele>
        <time>2020-08-12T08:55:43Z</time>
      </trkpt>
      <trkpt lat="48.63555" lon="7.14586">
        <ele>438.2</ele>
        <time>2020-08-12T08:55:45Z</time>
      </trkpt>
      <trkpt lat="48.63556" lon="7.14602">
        <ele>438.2</ele>
        <time>2020-08-12T08:55:47Z</time>
      </trkpt>
      <trkpt lat="48.63558" lon="7.14619">
        <ele>439.2</ele>
        <time>2020-08-12T08:55:49Z</time>
      </trkpt>
      <trkpt lat="48.63558" lon="7.14635">
        <ele>440.5</ele>
        <time>2020-08-12T08:55:51Z</time>
      </trkpt>
      <trkpt lat="48.63558" lon="7.14648">
        <ele>440.9</ele>
        <time>2020-08-12T08:55:53Z</time>
      </trkpt>
      <trkpt lat="48.63558" lon="7.14662">
        <ele>441.8</ele>
        <time>2020-08-12T08:55:55Z</time>
      </trkpt>
      <trkpt lat="48.63557" lon="7.14672">
        <ele>442.9</ele>
        <time>2020-08-12T08:55:57Z</time>
      </trkpt>
      <trkpt lat="48.63556" lon="7.14684">
        <ele>443.5</ele>
        <time>2020-08-12T08:55:59Z</time>
      </trkpt>
      <trkpt lat="48.63554" lon="7.14697">
        <ele>444.3</ele>
        <time>2020-08-12T08:56:01Z</time>
      </trkpt>
      <trkpt lat="48.63554" lon="7.14709">
        <ele>445.7</ele>
        <time>2020-08-12T08:56:03Z</time>
      </trkpt>
      <trkpt lat="48.63554" lon="7.14721">
        <ele>446.8</ele>
        <time>2020-08-12T08:56:05Z</time>
      </trkpt>
      <trkpt lat="48.63555" lon="7.14733">
        <ele>447.4</ele>
        <time>2020-08-12T08:56:07Z</time>
      </trkpt>
      <trkpt lat="48.63557" lon="7.14744">
        <ele>448.6</ele>
        <time>2020-08-12T08:56:09Z</time>
      </trkpt>
      <trkpt lat="48.63557" lon="7.14752">
        <ele>450</ele>
        <time>2020-08-12T08:56:11Z</time>
      </trkpt>
      <trkpt lat="48.63557" lon="7.14762">
        <ele>450.8</ele>
        <time>2020-08-12T08:56:13Z</time>
      </trkpt>
      <trkpt lat="48.63557" lon="7.14772">
        <ele>451.4</ele>
        <time>2020-08-12T08:56:15Z</time>
      </trkpt>
      <trkpt lat="48.63556" lon="7.14782">
        <ele>452.1</ele>
        <time>2020-08-12T08:56:17Z</time>
      </trkpt>
      <trkpt lat="48.63557" lon="7.14793">
        <ele>451.3</ele>
        <time>2020-08-12T08:56:19Z</time>
      </trkpt>
      <trkpt lat="48.63558" lon="7.14804">
        <ele>450.9</ele>
        <time>2020-08-12T08:56:21Z</time>
      </trkpt>
      <trkpt lat="48.63558" lon="7.14816">
        <ele>451.3</ele>
        <time>2020-08-12T08:56:23Z</time>
      </trkpt>
      <trkpt lat="48.63558" lon="7.14826">
        <ele>451.2</ele>
        <time>2020-08-12T08:56:25Z</time>
      </trkpt>
      <trkpt lat="48.63557" lon="7.14838">
        <ele>450.7</ele>
        <time>2020-08-12T08:56:27Z</time>
      </trkpt>
      <trkpt lat="48.63556" lon="7.14849">
        <ele>451.1</ele>
        <time>2020-08-12T08:56:29Z</time>
      </trkpt>
      <trkpt lat="48.63555" lon="7.14861">
        <ele>451.3</ele>
        <time>2020-08-12T08:56:31Z</time>
      </trkpt>
      <trkpt lat="48.63554" lon="7.14873">
        <ele>451.7</ele>
        <time>2020-08-12T08:56:33Z</time>
      </trkpt>
      <trkpt lat="48.63554" lon="7.14883">
        <ele>452.2</ele>
        <time>2020-08-12T08:56:35Z</time>
      </trkpt>
      <trkpt lat="48.63554" lon="7.14893">
        <ele>454.3</ele>
        <time>2020-08-12T08:56:37Z</time>
      </trkpt>
      <trkpt lat="48.63554" lon="7.14902">
        <ele>455.1</ele>
        <time>2020-08-12T08:56:39Z</time>
      </trkpt>
      <trkpt lat="48.63553" lon="7.14918">
        <ele>456.7</ele>
        <time>2020-08-12T08:56:42Z</time>
      </trkpt>
      <trkpt lat="48.63551" lon="7.14929">
        <ele>456.6</ele>
        <time>2020-08-12T08:56:44Z</time>
      </trkpt>
      <trkpt lat="48.63547" lon="7.14945">
        <ele>457.7</ele>
        <time>2020-08-12T08:56:47Z</time>
      </trkpt>
      <trkpt lat="48.63544" lon="7.14956">
        <ele>458.3</ele>
        <time>2020-08-12T08:56:49Z</time>
      </trkpt>
      <trkpt lat="48.63541" lon="7.14966">
        <ele>458.4</ele>
        <time>2020-08-12T08:56:51Z</time>
      </trkpt>
      <trkpt lat="48.63539" lon="7.14975">
        <ele>459.4</ele>
        <time>2020-08-12T08:56:53Z</time>
      </trkpt>
      <trkpt lat="48.63535" lon="7.14985">
        <ele>459.8</ele>
        <time>2020-08-12T08:56:55Z</time>
      </trkpt>
      <trkpt lat="48.63531" lon="7.14994">
        <ele>460.3</ele>
        <time>2020-08-12T08:56:57Z</time>
      </trkpt>
      <trkpt lat="48.63528" lon="7.15002">
        <ele>459.6</ele>
        <time>2020-08-12T08:56:59Z</time>
      </trkpt>
      <trkpt lat="48.63524" lon="7.15009">
        <ele>458.8</ele>
        <time>2020-08-12T08:57:01Z</time>
      </trkpt>
      <trkpt lat="48.63518" lon="7.15015">
        <ele>458</ele>
        <time>2020-08-12T08:57:03Z</time>
      </trkpt>
      <trkpt lat="48.63514" lon="7.1502">
        <ele>457.3</ele>
        <time>2020-08-12T08:57:05Z</time>
      </trkpt>
      <trkpt lat="48.63509" lon="7.15022">
        <ele>454.8</ele>
        <time>2020-08-12T08:57:10Z</time>
      </trkpt>
      <trkpt lat="48.6351" lon="7.15029">
        <ele>456.9</ele>
        <time>2020-08-12T08:57:29Z</time>
      </trkpt>
      <trkpt lat="48.63514" lon="7.15034">
        <ele>458.1</ele>
        <time>2020-08-12T08:57:42Z</time>
      </trkpt>
      <trkpt lat="48.63517" lon="7.15039">
        <ele>460.9</ele>
        <time>2020-08-12T08:57:53Z</time>
      </trkpt>
      <trkpt lat="48.63522" lon="7.15043">
        <ele>463.4</ele>
        <time>2020-08-12T08:57:59Z</time>
      </trkpt>
      <trkpt lat="48.63525" lon="7.15049">
        <ele>464.5</ele>
        <time>2020-08-12T08:58:05Z</time>
      </trkpt>
      <trkpt lat="48.63528" lon="7.15054">
        <ele>465.1</ele>
        <time>2020-08-12T08:58:10Z</time>
      </trkpt>
      <trkpt lat="48.63532" lon="7.15059">
        <ele>465.8</ele>
        <time>2020-08-12T08:58:19Z</time>
      </trkpt>
      <trkpt lat="48.63536" lon="7.15064">
        <ele>467.2</ele>
        <time>2020-08-12T08:58:25Z</time>
      </trkpt>
      <trkpt lat="48.63539" lon="7.1507">
        <ele>468.4</ele>
        <time>2020-08-12T08:58:29Z</time>
      </trkpt>
      <trkpt lat="48.63542" lon="7.15076">
        <ele>469.5</ele>
        <time>2020-08-12T08:58:33Z</time>
      </trkpt>
      <trkpt lat="48.63546" lon="7.15083">
        <ele>469.7</ele>
        <time>2020-08-12T08:58:38Z</time>
      </trkpt>
      <trkpt lat="48.63549" lon="7.15089">
        <ele>471.2</ele>
        <time>2020-08-12T08:58:45Z</time>
      </trkpt>
      <trkpt lat="48.6355" lon="7.15096">
        <ele>472</ele>
        <time>2020-08-12T08:58:53Z</time>
      </trkpt>
      <trkpt lat="48.6355" lon="7.15103">
        <ele>471.9</ele>
        <time>2020-08-12T08:58:57Z</time>
      </trkpt>
      <trkpt lat="48.63553" lon="7.15108">
        <ele>474.9</ele>
        <time>2020-08-12T08:59:18Z</time>
      </trkpt>
      <trkpt lat="48.63557" lon="7.15113">
        <ele>486.1</ele>
        <time>2020-08-12T09:01:23Z</time>
      </trkpt>
      <trkpt lat="48.6356" lon="7.15119">
        <ele>484.1</ele>
        <time>2020-08-12T09:01:29Z</time>
      </trkpt>
      <trkpt lat="48.63561" lon="7.15126">
        <ele>482.5</ele>
        <time>2020-08-12T09:01:40Z</time>
      </trkpt>
      <trkpt lat="48.63566" lon="7.15126">
        <ele>480.7</ele>
        <time>2020-08-12T09:01:55Z</time>
      </trkpt>
      <trkpt lat="48.63571" lon="7.1513">
        <ele>479.6</ele>
        <time>2020-08-12T09:01:59Z</time>
      </trkpt>
      <trkpt lat="48.63575" lon="7.15132">
        <ele>478.5</ele>
        <time>2020-08-12T09:02:03Z</time>
      </trkpt>
      <trkpt lat="48.63582" lon="7.15134">
        <ele>478.2</ele>
        <time>2020-08-12T09:02:06Z</time>
      </trkpt>
      <trkpt lat="48.63588" lon="7.15142">
        <ele>478.5</ele>
        <time>2020-08-12T09:02:08Z</time>
      </trkpt>
      <trkpt lat="48.63594" lon="7.15146">
        <ele>477.6</ele>
        <time>2020-08-12T09:02:10Z</time>
      </trkpt>
      <trkpt lat="48.63599" lon="7.15149">
        <ele>477</ele>
        <time>2020-08-12T09:02:12Z</time>
      </trkpt>
      <trkpt lat="48.636" lon="7.15158">
        <ele>476.8</ele>
        <time>2020-08-12T09:02:15Z</time>
      </trkpt>
      <trkpt lat="48.63599" lon="7.15165">
        <ele>477.4</ele>
        <time>2020-08-12T09:02:22Z</time>
      </trkpt>
      <trkpt lat="48.63596" lon="7.15172">
        <ele>477.4</ele>
        <time>2020-08-12T09:02:24Z</time>
      </trkpt>
      <trkpt lat="48.63592" lon="7.15179">
        <ele>478.2</ele>
        <time>2020-08-12T09:02:26Z</time>
      </trkpt>
      <trkpt lat="48.63589" lon="7.15185">
        <ele>478.5</ele>
        <time>2020-08-12T09:02:30Z</time>
      </trkpt>
      <trkpt lat="48.63586" lon="7.15191">
        <ele>478.1</ele>
        <time>2020-08-12T09:02:38Z</time>
      </trkpt>
      <trkpt lat="48.63583" lon="7.15198">
        <ele>478</ele>
        <time>2020-08-12T09:02:41Z</time>
      </trkpt>
      <trkpt lat="48.63579" lon="7.15207">
        <ele>477.4</ele>
        <time>2020-08-12T09:02:43Z</time>
      </trkpt>
      <trkpt lat="48.63575" lon="7.15216">
        <ele>476.9</ele>
        <time>2020-08-12T09:02:45Z</time>
      </trkpt>
      <trkpt lat="48.63571" lon="7.15228">
        <ele>476.9</ele>
        <time>2020-08-12T09:02:47Z</time>
      </trkpt>
      <trkpt lat="48.63567" lon="7.15243">
        <ele>476.8</ele>
        <time>2020-08-12T09:02:49Z</time>
      </trkpt>
      <trkpt lat="48.63562" lon="7.15255">
        <ele>474.7</ele>
        <time>2020-08-12T09:02:51Z</time>
      </trkpt>
      <trkpt lat="48.63558" lon="7.15266">
        <ele>474</ele>
        <time>2020-08-12T09:02:53Z</time>
      </trkpt>
      <trkpt lat="48.63552" lon="7.15282">
        <ele>472.4</ele>
        <time>2020-08-12T09:02:56Z</time>
      </trkpt>
      <trkpt lat="48.63549" lon="7.15296">
        <ele>472.8</ele>
        <time>2020-08-12T09:02:58Z</time>
      </trkpt>
      <trkpt lat="48.63542" lon="7.15317">
        <ele>471</ele>
        <time>2020-08-12T09:03:01Z</time>
      </trkpt>
      <trkpt lat="48.63539" lon="7.15332">
        <ele>470.5</ele>
        <time>2020-08-12T09:03:03Z</time>
      </trkpt>
      <trkpt lat="48.63536" lon="7.15358">
        <ele>469.5</ele>
        <time>2020-08-12T09:03:06Z</time>
      </trkpt>
      <trkpt lat="48.63534" lon="7.15375">
        <ele>469.6</ele>
        <time>2020-08-12T09:03:08Z</time>
      </trkpt>
      <trkpt lat="48.63532" lon="7.15393">
        <ele>468.5</ele>
        <time>2020-08-12T09:03:10Z</time>
      </trkpt>
      <trkpt lat="48.63529" lon="7.15413">
        <ele>467.3</ele>
        <time>2020-08-12T09:03:12Z</time>
      </trkpt>
      <trkpt lat="48.63526" lon="7.15447">
        <ele>465.7</ele>
        <time>2020-08-12T09:03:15Z</time>
      </trkpt>
      <trkpt lat="48.63526" lon="7.15469">
        <ele>464.4</ele>
        <time>2020-08-12T09:03:17Z</time>
      </trkpt>
      <trkpt lat="48.63522" lon="7.15491">
        <ele>463.4</ele>
        <time>2020-08-12T09:03:19Z</time>
      </trkpt>
      <trkpt lat="48.63521" lon="7.15512">
        <ele>463.3</ele>
        <time>2020-08-12T09:03:21Z</time>
      </trkpt>
      <trkpt lat="48.6352" lon="7.15538">
        <ele>462.1</ele>
        <time>2020-08-12T09:03:24Z</time>
      </trkpt>
      <trkpt lat="48.63519" lon="7.15552">
        <ele>461</ele>
        <time>2020-08-12T09:03:26Z</time>
      </trkpt>
      <trkpt lat="48.6352" lon="7.15565">
        <ele>459.7</ele>
        <time>2020-08-12T09:03:28Z</time>
      </trkpt>
      <trkpt lat="48.6352" lon="7.15577">
        <ele>459.2</ele>
        <time>2020-08-12T09:03:30Z</time>
      </trkpt>
      <trkpt lat="48.63522" lon="7.1559">
        <ele>459.2</ele>
        <time>2020-08-12T09:03:32Z</time>
      </trkpt>
      <trkpt lat="48.63523" lon="7.15601">
        <ele>459</ele>
        <time>2020-08-12T09:03:34Z</time>
      </trkpt>
      <trkpt lat="48.63523" lon="7.1561">
        <ele>458.1</ele>
        <time>2020-08-12T09:03:36Z</time>
      </trkpt>
      <trkpt lat="48.63524" lon="7.15625">
        <ele>457.6</ele>
        <time>2020-08-12T09:03:39Z</time>
      </trkpt>
      <trkpt lat="48.63525" lon="7.15636">
        <ele>459</ele>
        <time>2020-08-12T09:03:41Z</time>
      </trkpt>
      <trkpt lat="48.63526" lon="7.15649">
        <ele>459.2</ele>
        <time>2020-08-12T09:03:43Z</time>
      </trkpt>
      <trkpt lat="48.63525" lon="7.1566">
        <ele>458</ele>
        <time>2020-08-12T09:03:45Z</time>
      </trkpt>
      <trkpt lat="48.63525" lon="7.1567">
        <ele>457.5</ele>
        <time>2020-08-12T09:03:47Z</time>
      </trkpt>
      <trkpt lat="48.63527" lon="7.15677">
        <ele>457</ele>
        <time>2020-08-12T09:03:49Z</time>
      </trkpt>
      <trkpt lat="48.63528" lon="7.15684">
        <ele>456.6</ele>
        <time>2020-08-12T09:03:52Z</time>
      </trkpt>
      <trkpt lat="48.63526" lon="7.15691">
        <ele>457</ele>
        <time>2020-08-12T09:05:37Z</time>
      </trkpt>
      <trkpt lat="48.6352" lon="7.1569">
        <ele>457.9</ele>
        <time>2020-08-12T09:05:41Z</time>
      </trkpt>
      <trkpt lat="48.63514" lon="7.1569">
        <ele>459.1</ele>
        <time>2020-08-12T09:05:44Z</time>
      </trkpt>
      <trkpt lat="48.63509" lon="7.15692">
        <ele>460.2</ele>
        <time>2020-08-12T09:05:47Z</time>
      </trkpt>
      <trkpt lat="48.63503" lon="7.15693">
        <ele>461</ele>
        <time>2020-08-12T09:05:50Z</time>
      </trkpt>
      <trkpt lat="48.63497" lon="7.15694">
        <ele>461.3</ele>
        <time>2020-08-12T09:05:53Z</time>
      </trkpt>
      <trkpt lat="48.63491" lon="7.15696">
        <ele>461.4</ele>
        <time>2020-08-12T09:05:56Z</time>
      </trkpt>
      <trkpt lat="48.63485" lon="7.15697">
        <ele>461.6</ele>
        <time>2020-08-12T09:05:59Z</time>
      </trkpt>
      <trkpt lat="48.6348" lon="7.15698">
        <ele>462.7</ele>
        <time>2020-08-12T09:06:02Z</time>
      </trkpt>
      <trkpt lat="48.63474" lon="7.15699">
        <ele>464.3</ele>
        <time>2020-08-12T09:06:05Z</time>
      </trkpt>
      <trkpt lat="48.63468" lon="7.15701">
        <ele>465.7</ele>
        <time>2020-08-12T09:06:08Z</time>
      </trkpt>
      <trkpt lat="48.63463" lon="7.15702">
        <ele>466.5</ele>
        <time>2020-08-12T09:06:10Z</time>
      </trkpt>
      <trkpt lat="48.63458" lon="7.15703">
        <ele>467.2</ele>
        <time>2020-08-12T09:06:12Z</time>
      </trkpt>
      <trkpt lat="48.63446" lon="7.15707">
        <ele>467.4</ele>
        <time>2020-08-12T09:06:15Z</time>
      </trkpt>
      <trkpt lat="48.63437" lon="7.15713">
        <ele>467.5</ele>
        <time>2020-08-12T09:06:17Z</time>
      </trkpt>
      <trkpt lat="48.63426" lon="7.15721">
        <ele>467.5</ele>
        <time>2020-08-12T09:06:20Z</time>
      </trkpt>
      <trkpt lat="48.63419" lon="7.15724">
        <ele>468.5</ele>
        <time>2020-08-12T09:06:22Z</time>
      </trkpt>
      <trkpt lat="48.63411" lon="7.15728">
        <ele>468.5</ele>
        <time>2020-08-12T09:06:24Z</time>
      </trkpt>
      <trkpt lat="48.63401" lon="7.15732">
        <ele>468.7</ele>
        <time>2020-08-12T09:06:26Z</time>
      </trkpt>
      <trkpt lat="48.63396" lon="7.15735">
        <ele>468.4</ele>
        <time>2020-08-12T09:06:28Z</time>
      </trkpt>
      <trkpt lat="48.6339" lon="7.15741">
        <ele>468.5</ele>
        <time>2020-08-12T09:06:30Z</time>
      </trkpt>
      <trkpt lat="48.63385" lon="7.15748">
        <ele>468.7</ele>
        <time>2020-08-12T09:06:32Z</time>
      </trkpt>
      <trkpt lat="48.63381" lon="7.15753">
        <ele>469.3</ele>
        <time>2020-08-12T09:06:34Z</time>
      </trkpt>
      <trkpt lat="48.63375" lon="7.15759">
        <ele>468.8</ele>
        <time>2020-08-12T09:06:36Z</time>
      </trkpt>
      <trkpt lat="48.63369" lon="7.15761">
        <ele>467.5</ele>
        <time>2020-08-12T09:06:38Z</time>
      </trkpt>
      <trkpt lat="48.63364" lon="7.15761">
        <ele>465.9</ele>
        <time>2020-08-12T09:06:40Z</time>
      </trkpt>
      <trkpt lat="48.63358" lon="7.15757">
        <ele>464.6</ele>
        <time>2020-08-12T09:06:43Z</time>
      </trkpt>
      <trkpt lat="48.63353" lon="7.15754">
        <ele>464.2</ele>
        <time>2020-08-12T09:06:45Z</time>
      </trkpt>
      <trkpt lat="48.63344" lon="7.15751">
        <ele>464.2</ele>
        <time>2020-08-12T09:06:48Z</time>
      </trkpt>
      <trkpt lat="48.63339" lon="7.15749">
        <ele>464.1</ele>
        <time>2020-08-12T09:06:50Z</time>
      </trkpt>
      <trkpt lat="48.63334" lon="7.15746">
        <ele>464.1</ele>
        <time>2020-08-12T09:06:52Z</time>
      </trkpt>
      <trkpt lat="48.6333" lon="7.15744">
        <ele>464.3</ele>
        <time>2020-08-12T09:06:54Z</time>
      </trkpt>
      <trkpt lat="48.63323" lon="7.15742">
        <ele>464.9</ele>
        <time>2020-08-12T09:06:57Z</time>
      </trkpt>
      <trkpt lat="48.63316" lon="7.1574">
        <ele>464.2</ele>
        <time>2020-08-12T09:07:00Z</time>
      </trkpt>
      <trkpt lat="48.63312" lon="7.15739">
        <ele>465.4</ele>
        <time>2020-08-12T09:07:05Z</time>
      </trkpt>
      <trkpt lat="48.63316" lon="7.15743">
        <ele>462.8</ele>
        <time>2020-08-12T09:07:25Z</time>
      </trkpt>
      <trkpt lat="48.63321" lon="7.15746">
        <ele>462.5</ele>
        <time>2020-08-12T09:07:27Z</time>
      </trkpt>
      <trkpt lat="48.63326" lon="7.1575">
        <ele>462.7</ele>
        <time>2020-08-12T09:07:29Z</time>
      </trkpt>
      <trkpt lat="48.6333" lon="7.15753">
        <ele>463</ele>
        <time>2020-08-12T09:07:31Z</time>
      </trkpt>
      <trkpt lat="48.63335" lon="7.15757">
        <ele>464</ele>
        <time>2020-08-12T09:07:34Z</time>
      </trkpt>
      <trkpt lat="48.63332" lon="7.15763">
        <ele>464</ele>
        <time>2020-08-12T09:07:38Z</time>
      </trkpt>
      <trkpt lat="48.63327" lon="7.15768">
        <ele>463.4</ele>
        <time>2020-08-12T09:07:40Z</time>
      </trkpt>
      <trkpt lat="48.63321" lon="7.15774">
        <ele>463.2</ele>
        <time>2020-08-12T09:07:42Z</time>
      </trkpt>
      <trkpt lat="48.63315" lon="7.1578">
        <ele>462.3</ele>
        <time>2020-08-12T09:07:44Z</time>
      </trkpt>
      <trkpt lat="48.63308" lon="7.15785">
        <ele>462.2</ele>
        <time>2020-08-12T09:07:46Z</time>
      </trkpt>
      <trkpt lat="48.633" lon="7.15785">
        <ele>462.4</ele>
        <time>2020-08-12T09:07:48Z</time>
      </trkpt>
      <trkpt lat="48.63293" lon="7.15785">
        <ele>461.5</ele>
        <time>2020-08-12T09:07:50Z</time>
      </trkpt>
      <trkpt lat="48.63285" lon="7.15783">
        <ele>461.5</ele>
        <time>2020-08-12T09:07:52Z</time>
      </trkpt>
      <trkpt lat="48.63277" lon="7.15782">
        <ele>461.9</ele>
        <time>2020-08-12T09:07:54Z</time>
      </trkpt>
      <trkpt lat="48.63271" lon="7.15785">
        <ele>462.2</ele>
        <time>2020-08-12T09:07:56Z</time>
      </trkpt>
      <trkpt lat="48.63266" lon="7.1579">
        <ele>462</ele>
        <time>2020-08-12T09:07:58Z</time>
      </trkpt>
      <trkpt lat="48.63261" lon="7.15797">
        <ele>462.5</ele>
        <time>2020-08-12T09:08:00Z</time>
      </trkpt>
      <trkpt lat="48.63256" lon="7.15803">
        <ele>463.6</ele>
        <time>2020-08-12T09:08:02Z</time>
      </trkpt>
      <trkpt lat="48.63252" lon="7.15809">
        <ele>464.9</ele>
        <time>2020-08-12T09:08:04Z</time>
      </trkpt>
      <trkpt lat="48.63248" lon="7.15815">
        <ele>465.3</ele>
        <time>2020-08-12T09:08:06Z</time>
      </trkpt>
      <trkpt lat="48.63244" lon="7.1582">
        <ele>465.3</ele>
        <time>2020-08-12T09:08:08Z</time>
      </trkpt>
      <trkpt lat="48.63241" lon="7.15825">
        <ele>464.8</ele>
        <time>2020-08-12T09:08:10Z</time>
      </trkpt>
      <trkpt lat="48.63238" lon="7.15831">
        <ele>464.5</ele>
        <time>2020-08-12T09:08:12Z</time>
      </trkpt>
      <trkpt lat="48.63235" lon="7.15838">
        <ele>464</ele>
        <time>2020-08-12T09:08:14Z</time>
      </trkpt>
      <trkpt lat="48.63232" lon="7.15845">
        <ele>463.9</ele>
        <time>2020-08-12T09:08:16Z</time>
      </trkpt>
      <trkpt lat="48.63227" lon="7.15851">
        <ele>462.8</ele>
        <time>2020-08-12T09:08:18Z</time>
      </trkpt>
      <trkpt lat="48.63222" lon="7.15854">
        <ele>462.7</ele>
        <time>2020-08-12T09:08:20Z</time>
      </trkpt>
      <trkpt lat="48.63216" lon="7.15857">
        <ele>462.4</ele>
        <time>2020-08-12T09:08:22Z</time>
      </trkpt>
      <trkpt lat="48.63212" lon="7.15861">
        <ele>463</ele>
        <time>2020-08-12T09:08:25Z</time>
      </trkpt>
      <trkpt lat="48.63209" lon="7.15867">
        <ele>459.5</ele>
        <time>2020-08-12T09:08:40Z</time>
      </trkpt>
      <trkpt lat="48.63205" lon="7.15875">
        <ele>459.7</ele>
        <time>2020-08-12T09:08:43Z</time>
      </trkpt>
      <trkpt lat="48.63203" lon="7.15882">
        <ele>460.6</ele>
        <time>2020-08-12T09:08:45Z</time>
      </trkpt>
      <trkpt lat="48.632" lon="7.15889">
        <ele>461</ele>
        <time>2020-08-12T09:08:47Z</time>
      </trkpt>
      <trkpt lat="48.63197" lon="7.15895">
        <ele>461.1</ele>
        <time>2020-08-12T09:08:49Z</time>
      </trkpt>
      <trkpt lat="48.63192" lon="7.15903">
        <ele>461.7</ele>
        <time>2020-08-12T09:08:52Z</time>
      </trkpt>
      <trkpt lat="48.6319" lon="7.15909">
        <ele>461.8</ele>
        <time>2020-08-12T09:08:54Z</time>
      </trkpt>
      <trkpt lat="48.63187" lon="7.15917">
        <ele>460.9</ele>
        <time>2020-08-12T09:08:57Z</time>
      </trkpt>
      <trkpt lat="48.63184" lon="7.15925">
        <ele>460.7</ele>
        <time>2020-08-12T09:09:00Z</time>
      </trkpt>
      <trkpt lat="48.63181" lon="7.15933">
        <ele>461.1</ele>
        <time>2020-08-12T09:09:03Z</time>
      </trkpt>
      <trkpt lat="48.63179" lon="7.15942">
        <ele>461.4</ele>
        <time>2020-08-12T09:09:06Z</time>
      </trkpt>
      <trkpt lat="48.63177" lon="7.15951">
        <ele>461.8</ele>
        <time>2020-08-12T09:09:09Z</time>
      </trkpt>
      <trkpt lat="48.63174" lon="7.15959">
        <ele>463</ele>
        <time>2020-08-12T09:09:12Z</time>
      </trkpt>
      <trkpt lat="48.63171" lon="7.15966">
        <ele>463.9</ele>
        <time>2020-08-12T09:09:15Z</time>
      </trkpt>
      <trkpt lat="48.63167" lon="7.15972">
        <ele>465.1</ele>
        <time>2020-08-12T09:09:18Z</time>
      </trkpt>
      <trkpt lat="48.63162" lon="7.15978">
        <ele>466.7</ele>
        <time>2020-08-12T09:09:22Z</time>
      </trkpt>
      <trkpt lat="48.63158" lon="7.15984">
        <ele>468.6</ele>
        <time>2020-08-12T09:09:25Z</time>
      </trkpt>
      <trkpt lat="48.63153" lon="7.1599">
        <ele>470.2</ele>
        <time>2020-08-12T09:09:28Z</time>
      </trkpt>
      <trkpt lat="48.6315" lon="7.15996">
        <ele>470.6</ele>
        <time>2020-08-12T09:09:31Z</time>
      </trkpt>
      <trkpt lat="48.63146" lon="7.16001">
        <ele>473.5</ele>
        <time>2020-08-12T09:09:34Z</time>
      </trkpt>
      <trkpt lat="48.63142" lon="7.16006">
        <ele>474.9</ele>
        <time>2020-08-12T09:09:37Z</time>
      </trkpt>
      <trkpt lat="48.63138" lon="7.1601">
        <ele>475.9</ele>
        <time>2020-08-12T09:09:40Z</time>
      </trkpt>
      <trkpt lat="48.63133" lon="7.16015">
        <ele>476.4</ele>
        <time>2020-08-12T09:09:43Z</time>
      </trkpt>
      <trkpt lat="48.63129" lon="7.16019">
        <ele>476.6</ele>
        <time>2020-08-12T09:09:46Z</time>
      </trkpt>
      <trkpt lat="48.63124" lon="7.16024">
        <ele>476.7</ele>
        <time>2020-08-12T09:09:49Z</time>
      </trkpt>
      <trkpt lat="48.6312" lon="7.1603">
        <ele>477.9</ele>
        <time>2020-08-12T09:09:52Z</time>
      </trkpt>
      <trkpt lat="48.63115" lon="7.16037">
        <ele>479</ele>
        <time>2020-08-12T09:09:55Z</time>
      </trkpt>
      <trkpt lat="48.6311" lon="7.16041">
        <ele>478.7</ele>
        <time>2020-08-12T09:09:58Z</time>
      </trkpt>
      <trkpt lat="48.63105" lon="7.16044">
        <ele>478.5</ele>
        <time>2020-08-12T09:10:01Z</time>
      </trkpt>
      <trkpt lat="48.63099" lon="7.16047">
        <ele>478.2</ele>
        <time>2020-08-12T09:10:04Z</time>
      </trkpt>
      <trkpt lat="48.63094" lon="7.16052">
        <ele>479</ele>
        <time>2020-08-12T09:10:07Z</time>
      </trkpt>
      <trkpt lat="48.63089" lon="7.16056">
        <ele>478.3</ele>
        <time>2020-08-12T09:10:10Z</time>
      </trkpt>
      <trkpt lat="48.63084" lon="7.16058">
        <ele>477.3</ele>
        <time>2020-08-12T09:10:13Z</time>
      </trkpt>
      <trkpt lat="48.63079" lon="7.16059">
        <ele>476.7</ele>
        <time>2020-08-12T09:10:15Z</time>
      </trkpt>
      <trkpt lat="48.63073" lon="7.16062">
        <ele>475.5</ele>
        <time>2020-08-12T09:10:17Z</time>
      </trkpt>
      <trkpt lat="48.63068" lon="7.16063">
        <ele>475.1</ele>
        <time>2020-08-12T09:10:19Z</time>
      </trkpt>
      <trkpt lat="48.63063" lon="7.16063">
        <ele>474.3</ele>
        <time>2020-08-12T09:10:21Z</time>
      </trkpt>
      <trkpt lat="48.63057" lon="7.16064">
        <ele>474.3</ele>
        <time>2020-08-12T09:10:23Z</time>
      </trkpt>
      <trkpt lat="48.63051" lon="7.16064">
        <ele>473.2</ele>
        <time>2020-08-12T09:10:25Z</time>
      </trkpt>
      <trkpt lat="48.63044" lon="7.16064">
        <ele>472.4</ele>
        <time>2020-08-12T09:10:27Z</time>
      </trkpt>
      <trkpt lat="48.63037" lon="7.16065">
        <ele>471.6</ele>
        <time>2020-08-12T09:10:29Z</time>
      </trkpt>
      <trkpt lat="48.63028" lon="7.16064">
        <ele>471.3</ele>
        <time>2020-08-12T09:10:31Z</time>
      </trkpt>
      <trkpt lat="48.6302" lon="7.16064">
        <ele>470.7</ele>
        <time>2020-08-12T09:10:33Z</time>
      </trkpt>
      <trkpt lat="48.63011" lon="7.16063">
        <ele>470.7</ele>
        <time>2020-08-12T09:10:35Z</time>
      </trkpt>
      <trkpt lat="48.63003" lon="7.16059">
        <ele>470.5</ele>
        <time>2020-08-12T09:10:37Z</time>
      </trkpt>
      <trkpt lat="48.62995" lon="7.16055">
        <ele>469.8</ele>
        <time>2020-08-12T09:10:39Z</time>
      </trkpt>
      <trkpt lat="48.62988" lon="7.16053">
        <ele>469.9</ele>
        <time>2020-08-12T09:10:41Z</time>
      </trkpt>
      <trkpt lat="48.62981" lon="7.16051">
        <ele>470.1</ele>
        <time>2020-08-12T09:10:43Z</time>
      </trkpt>
      <trkpt lat="48.62974" lon="7.16049">
        <ele>469.6</ele>
        <time>2020-08-12T09:10:45Z</time>
      </trkpt>
      <trkpt lat="48.62968" lon="7.16046">
        <ele>469.2</ele>
        <time>2020-08-12T09:10:47Z</time>
      </trkpt>
      <trkpt lat="48.62961" lon="7.16043">
        <ele>469.7</ele>
        <time>2020-08-12T09:10:49Z</time>
      </trkpt>
      <trkpt lat="48.62954" lon="7.16041">
        <ele>468.4</ele>
        <time>2020-08-12T09:10:51Z</time>
      </trkpt>
      <trkpt lat="48.62947" lon="7.16037">
        <ele>467.6</ele>
        <time>2020-08-12T09:10:53Z</time>
      </trkpt>
      <trkpt lat="48.62939" lon="7.16033">
        <ele>467.4</ele>
        <time>2020-08-12T09:10:55Z</time>
      </trkpt>
      <trkpt lat="48.62932" lon="7.16031">
        <ele>466.4</ele>
        <time>2020-08-12T09:10:57Z</time>
      </trkpt>
      <trkpt lat="48.62925" lon="7.1603">
        <ele>467</ele>
        <time>2020-08-12T09:10:59Z</time>
      </trkpt>
      <trkpt lat="48.62918" lon="7.16028">
        <ele>468.2</ele>
        <time>2020-08-12T09:11:01Z</time>
      </trkpt>
      <trkpt lat="48.62911" lon="7.16028">
        <ele>469.4</ele>
        <time>2020-08-12T09:11:03Z</time>
      </trkpt>
      <trkpt lat="48.62901" lon="7.16027">
        <ele>470.8</ele>
        <time>2020-08-12T09:11:06Z</time>
      </trkpt>
      <trkpt lat="48.62895" lon="7.16027">
        <ele>471.6</ele>
        <time>2020-08-12T09:11:08Z</time>
      </trkpt>
      <trkpt lat="48.6289" lon="7.16027">
        <ele>472.6</ele>
        <time>2020-08-12T09:11:10Z</time>
      </trkpt>
      <trkpt lat="48.6288" lon="7.16029">
        <ele>474.2</ele>
        <time>2020-08-12T09:11:13Z</time>
      </trkpt>
      <trkpt lat="48.62875" lon="7.1603">
        <ele>475.5</ele>
        <time>2020-08-12T09:11:15Z</time>
      </trkpt>
      <trkpt lat="48.62868" lon="7.1603">
        <ele>476.5</ele>
        <time>2020-08-12T09:11:18Z</time>
      </trkpt>
      <trkpt lat="48.62862" lon="7.16027">
        <ele>477.6</ele>
        <time>2020-08-12T09:11:21Z</time>
      </trkpt>
      <trkpt lat="48.62857" lon="7.16025">
        <ele>478.1</ele>
        <time>2020-08-12T09:11:24Z</time>
      </trkpt>
      <trkpt lat="48.62853" lon="7.16029">
        <ele>481.5</ele>
        <time>2020-08-12T09:11:34Z</time>
      </trkpt>
      <trkpt lat="48.62848" lon="7.16029">
        <ele>482.7</ele>
        <time>2020-08-12T09:11:39Z</time>
      </trkpt>
      <trkpt lat="48.62843" lon="7.1603">
        <ele>484.1</ele>
        <time>2020-08-12T09:11:42Z</time>
      </trkpt>
      <trkpt lat="48.62837" lon="7.1603">
        <ele>484.9</ele>
        <time>2020-08-12T09:11:45Z</time>
      </trkpt>
      <trkpt lat="48.62832" lon="7.1603">
        <ele>485.1</ele>
        <time>2020-08-12T09:11:47Z</time>
      </trkpt>
      <trkpt lat="48.62826" lon="7.16028">
        <ele>486.2</ele>
        <time>2020-08-12T09:11:50Z</time>
      </trkpt>
      <trkpt lat="48.62821" lon="7.16028">
        <ele>487.2</ele>
        <time>2020-08-12T09:11:52Z</time>
      </trkpt>
      <trkpt lat="48.62816" lon="7.16028">
        <ele>487.9</ele>
        <time>2020-08-12T09:11:54Z</time>
      </trkpt>
      <trkpt lat="48.62811" lon="7.16028">
        <ele>488.4</ele>
        <time>2020-08-12T09:11:56Z</time>
      </trkpt>
      <trkpt lat="48.62805" lon="7.16028">
        <ele>489.7</ele>
        <time>2020-08-12T09:11:58Z</time>
      </trkpt>
      <trkpt lat="48.62799" lon="7.16027">
        <ele>491.1</ele>
        <time>2020-08-12T09:12:00Z</time>
      </trkpt>
      <trkpt lat="48.62793" lon="7.16026">
        <ele>490.9</ele>
        <time>2020-08-12T09:12:02Z</time>
      </trkpt>
      <trkpt lat="48.62786" lon="7.16024">
        <ele>490.8</ele>
        <time>2020-08-12T09:12:04Z</time>
      </trkpt>
      <trkpt lat="48.6278" lon="7.16022">
        <ele>491.1</ele>
        <time>2020-08-12T09:12:06Z</time>
      </trkpt>
      <trkpt lat="48.62775" lon="7.16022">
        <ele>491.1</ele>
        <time>2020-08-12T09:12:08Z</time>
      </trkpt>
      <trkpt lat="48.62769" lon="7.16023">
        <ele>490.5</ele>
        <time>2020-08-12T09:12:10Z</time>
      </trkpt>
      <trkpt lat="48.62763" lon="7.16024">
        <ele>490.9</ele>
        <time>2020-08-12T09:12:12Z</time>
      </trkpt>
      <trkpt lat="48.62758" lon="7.16027">
        <ele>491.4</ele>
        <time>2020-08-12T09:12:14Z</time>
      </trkpt>
      <trkpt lat="48.62754" lon="7.16029">
        <ele>491.6</ele>
        <time>2020-08-12T09:12:16Z</time>
      </trkpt>
      <trkpt lat="48.62748" lon="7.16032">
        <ele>492.4</ele>
        <time>2020-08-12T09:12:19Z</time>
      </trkpt>
      <trkpt lat="48.62743" lon="7.16034">
        <ele>493.3</ele>
        <time>2020-08-12T09:12:21Z</time>
      </trkpt>
      <trkpt lat="48.62738" lon="7.16037">
        <ele>494.6</ele>
        <time>2020-08-12T09:12:24Z</time>
      </trkpt>
      <trkpt lat="48.62733" lon="7.1604">
        <ele>495.7</ele>
        <time>2020-08-12T09:12:27Z</time>
      </trkpt>
      <trkpt lat="48.62728" lon="7.1604">
        <ele>496.3</ele>
        <time>2020-08-12T09:12:30Z</time>
      </trkpt>
      <trkpt lat="48.62722" lon="7.1604">
        <ele>496.5</ele>
        <time>2020-08-12T09:12:33Z</time>
      </trkpt>
      <trkpt lat="48.62716" lon="7.16041">
        <ele>496.8</ele>
        <time>2020-08-12T09:12:36Z</time>
      </trkpt>
      <trkpt lat="48.62709" lon="7.16041">
        <ele>496.8</ele>
        <time>2020-08-12T09:12:39Z</time>
      </trkpt>
      <trkpt lat="48.62703" lon="7.16042">
        <ele>496.6</ele>
        <time>2020-08-12T09:12:42Z</time>
      </trkpt>
      <trkpt lat="48.62697" lon="7.16042">
        <ele>496.8</ele>
        <time>2020-08-12T09:12:45Z</time>
      </trkpt>
      <trkpt lat="48.62691" lon="7.16042">
        <ele>494.7</ele>
        <time>2020-08-12T09:12:48Z</time>
      </trkpt>
      <trkpt lat="48.62685" lon="7.16043">
        <ele>494.9</ele>
        <time>2020-08-12T09:12:51Z</time>
      </trkpt>
      <trkpt lat="48.6268" lon="7.16043">
        <ele>496.4</ele>
        <time>2020-08-12T09:12:54Z</time>
      </trkpt>
      <trkpt lat="48.62674" lon="7.16043">
        <ele>498.5</ele>
        <time>2020-08-12T09:12:57Z</time>
      </trkpt>
      <trkpt lat="48.62667" lon="7.16043">
        <ele>501</ele>
        <time>2020-08-12T09:13:00Z</time>
      </trkpt>
      <trkpt lat="48.62661" lon="7.16044">
        <ele>502.8</ele>
        <time>2020-08-12T09:13:03Z</time>
      </trkpt>
      <trkpt lat="48.62656" lon="7.16046">
        <ele>504.9</ele>
        <time>2020-08-12T09:13:06Z</time>
      </trkpt>
      <trkpt lat="48.6265" lon="7.16047">
        <ele>505.5</ele>
        <time>2020-08-12T09:13:09Z</time>
      </trkpt>
      <trkpt lat="48.62644" lon="7.16048">
        <ele>505.7</ele>
        <time>2020-08-12T09:13:12Z</time>
      </trkpt>
      <trkpt lat="48.62638" lon="7.1605">
        <ele>507</ele>
        <time>2020-08-12T09:13:15Z</time>
      </trkpt>
      <trkpt lat="48.62633" lon="7.16052">
        <ele>507.7</ele>
        <time>2020-08-12T09:13:18Z</time>
      </trkpt>
      <trkpt lat="48.62628" lon="7.16053">
        <ele>507.7</ele>
        <time>2020-08-12T09:13:21Z</time>
      </trkpt>
      <trkpt lat="48.62623" lon="7.16054">
        <ele>507.1</ele>
        <time>2020-08-12T09:13:24Z</time>
      </trkpt>
      <trkpt lat="48.62618" lon="7.16054">
        <ele>506.8</ele>
        <time>2020-08-12T09:13:27Z</time>
      </trkpt>
      <trkpt lat="48.62613" lon="7.16055">
        <ele>507</ele>
        <time>2020-08-12T09:13:30Z</time>
      </trkpt>
      <trkpt lat="48.62608" lon="7.16055">
        <ele>506.7</ele>
        <time>2020-08-12T09:13:33Z</time>
      </trkpt>
      <trkpt lat="48.62602" lon="7.16054">
        <ele>505.9</ele>
        <time>2020-08-12T09:13:36Z</time>
      </trkpt>
      <trkpt lat="48.62596" lon="7.16054">
        <ele>504.3</ele>
        <time>2020-08-12T09:13:39Z</time>
      </trkpt>
      <trkpt lat="48.62591" lon="7.16052">
        <ele>502.7</ele>
        <time>2020-08-12T09:13:42Z</time>
      </trkpt>
      <trkpt lat="48.62585" lon="7.16051">
        <ele>501.5</ele>
        <time>2020-08-12T09:13:45Z</time>
      </trkpt>
      <trkpt lat="48.62579" lon="7.1605">
        <ele>499.8</ele>
        <time>2020-08-12T09:13:48Z</time>
      </trkpt>
      <trkpt lat="48.62573" lon="7.16048">
        <ele>500.2</ele>
        <time>2020-08-12T09:13:51Z</time>
      </trkpt>
      <trkpt lat="48.62568" lon="7.16046">
        <ele>500.3</ele>
        <time>2020-08-12T09:13:55Z</time>
      </trkpt>
      <trkpt lat="48.62563" lon="7.16046">
        <ele>498.4</ele>
        <time>2020-08-12T09:14:13Z</time>
      </trkpt>
      <trkpt lat="48.62558" lon="7.16043">
        <ele>497.3</ele>
        <time>2020-08-12T09:14:16Z</time>
      </trkpt>
      <trkpt lat="48.62553" lon="7.16041">
        <ele>497</ele>
        <time>2020-08-12T09:14:18Z</time>
      </trkpt>
      <trkpt lat="48.62549" lon="7.1604">
        <ele>496.5</ele>
        <time>2020-08-12T09:14:20Z</time>
      </trkpt>
      <trkpt lat="48.62543" lon="7.16037">
        <ele>495.8</ele>
        <time>2020-08-12T09:14:22Z</time>
      </trkpt>
      <trkpt lat="48.62538" lon="7.16035">
        <ele>496</ele>
        <time>2020-08-12T09:14:24Z</time>
      </trkpt>
      <trkpt lat="48.62532" lon="7.16032">
        <ele>492.5</ele>
        <time>2020-08-12T09:14:26Z</time>
      </trkpt>
      <trkpt lat="48.62525" lon="7.16028">
        <ele>492.2</ele>
        <time>2020-08-12T09:14:28Z</time>
      </trkpt>
      <trkpt lat="48.62519" lon="7.16025">
        <ele>492.6</ele>
        <time>2020-08-12T09:14:30Z</time>
      </trkpt>
      <trkpt lat="48.62512" lon="7.16021">
        <ele>493.6</ele>
        <time>2020-08-12T09:14:32Z</time>
      </trkpt>
      <trkpt lat="48.62506" lon="7.16016">
        <ele>493.7</ele>
        <time>2020-08-12T09:14:34Z</time>
      </trkpt>
      <trkpt lat="48.62499" lon="7.16011">
        <ele>494.3</ele>
        <time>2020-08-12T09:14:36Z</time>
      </trkpt>
      <trkpt lat="48.62493" lon="7.16007">
        <ele>495.2</ele>
        <time>2020-08-12T09:14:38Z</time>
      </trkpt>
      <trkpt lat="48.62483" lon="7.16001">
        <ele>496.5</ele>
        <time>2020-08-12T09:14:41Z</time>
      </trkpt>
      <trkpt lat="48.62477" lon="7.15998">
        <ele>496.8</ele>
        <time>2020-08-12T09:14:43Z</time>
      </trkpt>
      <trkpt lat="48.62472" lon="7.15994">
        <ele>495.9</ele>
        <time>2020-08-12T09:14:45Z</time>
      </trkpt>
      <trkpt lat="48.62466" lon="7.1599">
        <ele>495.6</ele>
        <time>2020-08-12T09:14:47Z</time>
      </trkpt>
      <trkpt lat="48.6246" lon="7.15986">
        <ele>495.5</ele>
        <time>2020-08-12T09:14:49Z</time>
      </trkpt>
      <trkpt lat="48.62455" lon="7.15981">
        <ele>494.8</ele>
        <time>2020-08-12T09:14:51Z</time>
      </trkpt>
      <trkpt lat="48.62449" lon="7.15977">
        <ele>494.7</ele>
        <time>2020-08-12T09:14:53Z</time>
      </trkpt>
      <trkpt lat="48.62442" lon="7.15972">
        <ele>494.4</ele>
        <time>2020-08-12T09:14:55Z</time>
      </trkpt>
      <trkpt lat="48.62436" lon="7.15968">
        <ele>494.1</ele>
        <time>2020-08-12T09:14:57Z</time>
      </trkpt>
      <trkpt lat="48.62429" lon="7.15965">
        <ele>493.2</ele>
        <time>2020-08-12T09:14:59Z</time>
      </trkpt>
      <trkpt lat="48.62422" lon="7.15963">
        <ele>493.3</ele>
        <time>2020-08-12T09:15:01Z</time>
      </trkpt>
      <trkpt lat="48.62415" lon="7.15964">
        <ele>494.1</ele>
        <time>2020-08-12T09:15:03Z</time>
      </trkpt>
      <trkpt lat="48.62411" lon="7.15968">
        <ele>495.5</ele>
        <time>2020-08-12T09:15:06Z</time>
      </trkpt>
      <trkpt lat="48.62407" lon="7.15974">
        <ele>500</ele>
        <time>2020-08-12T09:15:23Z</time>
      </trkpt>
      <trkpt lat="48.62403" lon="7.15978">
        <ele>500</ele>
        <time>2020-08-12T09:15:26Z</time>
      </trkpt>
      <trkpt lat="48.62398" lon="7.15982">
        <ele>500.7</ele>
        <time>2020-08-12T09:15:28Z</time>
      </trkpt>
      <trkpt lat="48.62392" lon="7.15987">
        <ele>500.9</ele>
        <time>2020-08-12T09:15:30Z</time>
      </trkpt>
      <trkpt lat="48.62388" lon="7.15991">
        <ele>501.4</ele>
        <time>2020-08-12T09:15:33Z</time>
      </trkpt>
      <trkpt lat="48.62383" lon="7.15993">
        <ele>502.6</ele>
        <time>2020-08-12T09:15:44Z</time>
      </trkpt>
      <trkpt lat="48.62378" lon="7.15997">
        <ele>502.3</ele>
        <time>2020-08-12T09:15:48Z</time>
      </trkpt>
      <trkpt lat="48.62374" lon="7.16003">
        <ele>501</ele>
        <time>2020-08-12T09:15:51Z</time>
      </trkpt>
      <trkpt lat="48.62371" lon="7.16009">
        <ele>500.5</ele>
        <time>2020-08-12T09:15:53Z</time>
      </trkpt>
      <trkpt lat="48.62368" lon="7.16016">
        <ele>500.1</ele>
        <time>2020-08-12T09:15:55Z</time>
      </trkpt>
      <trkpt lat="48.62366" lon="7.16024">
        <ele>499.1</ele>
        <time>2020-08-12T09:15:57Z</time>
      </trkpt>
      <trkpt lat="48.62365" lon="7.16031">
        <ele>498.5</ele>
        <time>2020-08-12T09:15:59Z</time>
      </trkpt>
      <trkpt lat="48.62363" lon="7.16038">
        <ele>498.2</ele>
        <time>2020-08-12T09:16:01Z</time>
      </trkpt>
      <trkpt lat="48.62362" lon="7.16044">
        <ele>497.7</ele>
        <time>2020-08-12T09:16:03Z</time>
      </trkpt>
      <trkpt lat="48.6236" lon="7.16051">
        <ele>496.9</ele>
        <time>2020-08-12T09:16:06Z</time>
      </trkpt>
      <trkpt lat="48.62359" lon="7.16058">
        <ele>495.6</ele>
        <time>2020-08-12T09:16:12Z</time>
      </trkpt>
      <trkpt lat="48.6236" lon="7.16065">
        <ele>495</ele>
        <time>2020-08-12T09:16:15Z</time>
      </trkpt>
      <trkpt lat="48.6236" lon="7.16072">
        <ele>495.2</ele>
        <time>2020-08-12T09:16:17Z</time>
      </trkpt>
      <trkpt lat="48.62359" lon="7.1608">
        <ele>496</ele>
        <time>2020-08-12T09:16:19Z</time>
      </trkpt>
      <trkpt lat="48.62359" lon="7.16089">
        <ele>497.1</ele>
        <time>2020-08-12T09:16:21Z</time>
      </trkpt>
      <trkpt lat="48.62359" lon="7.161">
        <ele>497.9</ele>
        <time>2020-08-12T09:16:23Z</time>
      </trkpt>
      <trkpt lat="48.6236" lon="7.16111">
        <ele>497.1</ele>
        <time>2020-08-12T09:16:25Z</time>
      </trkpt>
      <trkpt lat="48.6236" lon="7.16123">
        <ele>495</ele>
        <time>2020-08-12T09:16:27Z</time>
      </trkpt>
      <trkpt lat="48.62359" lon="7.16136">
        <ele>493.9</ele>
        <time>2020-08-12T09:16:29Z</time>
      </trkpt>
      <trkpt lat="48.62357" lon="7.1615">
        <ele>492.7</ele>
        <time>2020-08-12T09:16:31Z</time>
      </trkpt>
      <trkpt lat="48.62357" lon="7.16164">
        <ele>491.7</ele>
        <time>2020-08-12T09:16:33Z</time>
      </trkpt>
      <trkpt lat="48.62358" lon="7.16176">
        <ele>479.2</ele>
        <time>2020-08-12T09:16:35Z</time>
      </trkpt>
      <trkpt lat="48.6236" lon="7.16191">
        <ele>478.6</ele>
        <time>2020-08-12T09:16:37Z</time>
      </trkpt>
      <trkpt lat="48.6236" lon="7.16205">
        <ele>478.1</ele>
        <time>2020-08-12T09:16:39Z</time>
      </trkpt>
      <trkpt lat="48.62361" lon="7.16221">
        <ele>478</ele>
        <time>2020-08-12T09:16:41Z</time>
      </trkpt>
      <trkpt lat="48.62362" lon="7.16242">
        <ele>477.8</ele>
        <time>2020-08-12T09:16:43Z</time>
      </trkpt>
      <trkpt lat="48.62362" lon="7.16259">
        <ele>478</ele>
        <time>2020-08-12T09:16:45Z</time>
      </trkpt>
      <trkpt lat="48.62361" lon="7.16277">
        <ele>477.8</ele>
        <time>2020-08-12T09:16:47Z</time>
      </trkpt>
      <trkpt lat="48.62359" lon="7.16293">
        <ele>477.7</ele>
        <time>2020-08-12T09:16:49Z</time>
      </trkpt>
      <trkpt lat="48.62356" lon="7.16308">
        <ele>476.4</ele>
        <time>2020-08-12T09:16:51Z</time>
      </trkpt>
      <trkpt lat="48.62354" lon="7.16322">
        <ele>475.3</ele>
        <time>2020-08-12T09:16:53Z</time>
      </trkpt>
      <trkpt lat="48.62353" lon="7.16336">
        <ele>473.8</ele>
        <time>2020-08-12T09:16:55Z</time>
      </trkpt>
      <trkpt lat="48.62352" lon="7.1635">
        <ele>472.7</ele>
        <time>2020-08-12T09:16:57Z</time>
      </trkpt>
      <trkpt lat="48.62352" lon="7.16364">
        <ele>471.4</ele>
        <time>2020-08-12T09:16:59Z</time>
      </trkpt>
      <trkpt lat="48.6235" lon="7.16378">
        <ele>471</ele>
        <time>2020-08-12T09:17:01Z</time>
      </trkpt>
      <trkpt lat="48.62349" lon="7.16393">
        <ele>470</ele>
        <time>2020-08-12T09:17:03Z</time>
      </trkpt>
      <trkpt lat="48.62349" lon="7.16405">
        <ele>469.1</ele>
        <time>2020-08-12T09:17:05Z</time>
      </trkpt>
      <trkpt lat="48.62348" lon="7.16418">
        <ele>468.4</ele>
        <time>2020-08-12T09:17:07Z</time>
      </trkpt>
      <trkpt lat="48.62347" lon="7.16432">
        <ele>467.4</ele>
        <time>2020-08-12T09:17:09Z</time>
      </trkpt>
      <trkpt lat="48.62347" lon="7.16446">
        <ele>466.3</ele>
        <time>2020-08-12T09:17:11Z</time>
      </trkpt>
      <trkpt lat="48.62345" lon="7.16461">
        <ele>466.1</ele>
        <time>2020-08-12T09:17:13Z</time>
      </trkpt>
      <trkpt lat="48.62342" lon="7.1647">
        <ele>464.8</ele>
        <time>2020-08-12T09:17:15Z</time>
      </trkpt>
      <trkpt lat="48.62342" lon="7.16477">
        <ele>465.1</ele>
        <time>2020-08-12T09:17:19Z</time>
      </trkpt>
      <trkpt lat="48.62341" lon="7.16484">
        <ele>464.5</ele>
        <time>2020-08-12T09:17:23Z</time>
      </trkpt>
      <trkpt lat="48.62339" lon="7.16491">
        <ele>465.1</ele>
        <time>2020-08-12T09:17:26Z</time>
      </trkpt>
      <trkpt lat="48.62336" lon="7.16497">
        <ele>465.2</ele>
        <time>2020-08-12T09:17:28Z</time>
      </trkpt>
      <trkpt lat="48.62332" lon="7.16503">
        <ele>465.1</ele>
        <time>2020-08-12T09:17:30Z</time>
      </trkpt>
      <trkpt lat="48.62327" lon="7.16509">
        <ele>465.1</ele>
        <time>2020-08-12T09:17:32Z</time>
      </trkpt>
      <trkpt lat="48.62321" lon="7.16515">
        <ele>464</ele>
        <time>2020-08-12T09:17:34Z</time>
      </trkpt>
      <trkpt lat="48.62314" lon="7.16519">
        <ele>461.8</ele>
        <time>2020-08-12T09:17:36Z</time>
      </trkpt>
      <trkpt lat="48.62312" lon="7.16526">
        <ele>461.2</ele>
        <time>2020-08-12T09:17:38Z</time>
      </trkpt>
      <trkpt lat="48.62314" lon="7.16533">
        <ele>458.8</ele>
        <time>2020-08-12T09:17:43Z</time>
      </trkpt>
      <trkpt lat="48.62319" lon="7.16531">
        <ele>456.7</ele>
        <time>2020-08-12T09:17:51Z</time>
      </trkpt>
      <trkpt lat="48.62329" lon="7.16526">
        <ele>456.7</ele>
        <time>2020-08-12T09:17:54Z</time>
      </trkpt>
      <trkpt lat="48.62336" lon="7.1652">
        <ele>457.9</ele>
        <time>2020-08-12T09:17:56Z</time>
      </trkpt>
      <trkpt lat="48.62346" lon="7.16513">
        <ele>458.4</ele>
        <time>2020-08-12T09:17:58Z</time>
      </trkpt>
      <trkpt lat="48.62357" lon="7.16503">
        <ele>458.6</ele>
        <time>2020-08-12T09:18:00Z</time>
      </trkpt>
      <trkpt lat="48.62367" lon="7.16491">
        <ele>458.4</ele>
        <time>2020-08-12T09:18:02Z</time>
      </trkpt>
      <trkpt lat="48.62377" lon="7.16478">
        <ele>457.6</ele>
        <time>2020-08-12T09:18:04Z</time>
      </trkpt>
      <trkpt lat="48.62386" lon="7.16464">
        <ele>457.2</ele>
        <time>2020-08-12T09:18:06Z</time>
      </trkpt>
      <trkpt lat="48.62393" lon="7.16448">
        <ele>455.7</ele>
        <time>2020-08-12T09:18:08Z</time>
      </trkpt>
      <trkpt lat="48.62399" lon="7.16431">
        <ele>454.4</ele>
        <time>2020-08-12T09:18:10Z</time>
      </trkpt>
      <trkpt lat="48.62405" lon="7.16414">
        <ele>452.9</ele>
        <time>2020-08-12T09:18:12Z</time>
      </trkpt>
      <trkpt lat="48.6241" lon="7.16395">
        <ele>451.7</ele>
        <time>2020-08-12T09:18:14Z</time>
      </trkpt>
      <trkpt lat="48.62416" lon="7.16377">
        <ele>449.9</ele>
        <time>2020-08-12T09:18:16Z</time>
      </trkpt>
      <trkpt lat="48.62423" lon="7.16356">
        <ele>448.3</ele>
        <time>2020-08-12T09:18:18Z</time>
      </trkpt>
      <trkpt lat="48.62429" lon="7.16337">
        <ele>447</ele>
        <time>2020-08-12T09:18:20Z</time>
      </trkpt>
      <trkpt lat="48.62435" lon="7.16317">
        <ele>445.6</ele>
        <time>2020-08-12T09:18:22Z</time>
      </trkpt>
      <trkpt lat="48.6244" lon="7.16299">
        <ele>444.8</ele>
        <time>2020-08-12T09:18:24Z</time>
      </trkpt>
      <trkpt lat="48.62444" lon="7.16277">
        <ele>443.5</ele>
        <time>2020-08-12T09:18:26Z</time>
      </trkpt>
      <trkpt lat="48.62449" lon="7.16257">
        <ele>442.4</ele>
        <time>2020-08-12T09:18:28Z</time>
      </trkpt>
      <trkpt lat="48.62456" lon="7.16239">
        <ele>441.7</ele>
        <time>2020-08-12T09:18:30Z</time>
      </trkpt>
      <trkpt lat="48.62474" lon="7.16226">
        <ele>441.2</ele>
        <time>2020-08-12T09:18:33Z</time>
      </trkpt>
      <trkpt lat="48.62485" lon="7.16229">
        <ele>440.2</ele>
        <time>2020-08-12T09:18:35Z</time>
      </trkpt>
      <trkpt lat="48.62497" lon="7.16236">
        <ele>439.6</ele>
        <time>2020-08-12T09:18:37Z</time>
      </trkpt>
      <trkpt lat="48.62509" lon="7.16244">
        <ele>438.8</ele>
        <time>2020-08-12T09:18:39Z</time>
      </trkpt>
      <trkpt lat="48.62521" lon="7.16255">
        <ele>440.7</ele>
        <time>2020-08-12T09:18:41Z</time>
      </trkpt>
      <trkpt lat="48.62534" lon="7.16264">
        <ele>440.6</ele>
        <time>2020-08-12T09:18:43Z</time>
      </trkpt>
      <trkpt lat="48.62549" lon="7.16274">
        <ele>440.9</ele>
        <time>2020-08-12T09:18:45Z</time>
      </trkpt>
      <trkpt lat="48.6256" lon="7.16279">
        <ele>440</ele>
        <time>2020-08-12T09:18:47Z</time>
      </trkpt>
      <trkpt lat="48.62572" lon="7.16283">
        <ele>439.8</ele>
        <time>2020-08-12T09:18:49Z</time>
      </trkpt>
      <trkpt lat="48.62588" lon="7.1629">
        <ele>438.8</ele>
        <time>2020-08-12T09:18:51Z</time>
      </trkpt>
      <trkpt lat="48.62602" lon="7.16299">
        <ele>437.9</ele>
        <time>2020-08-12T09:18:53Z</time>
      </trkpt>
      <trkpt lat="48.62617" lon="7.16307">
        <ele>436.9</ele>
        <time>2020-08-12T09:18:55Z</time>
      </trkpt>
      <trkpt lat="48.62629" lon="7.16312">
        <ele>435.7</ele>
        <time>2020-08-12T09:18:57Z</time>
      </trkpt>
      <trkpt lat="48.62642" lon="7.16317">
        <ele>433.5</ele>
        <time>2020-08-12T09:18:59Z</time>
      </trkpt>
      <trkpt lat="48.62656" lon="7.16318">
        <ele>432</ele>
        <time>2020-08-12T09:19:01Z</time>
      </trkpt>
      <trkpt lat="48.62671" lon="7.16318">
        <ele>430.8</ele>
        <time>2020-08-12T09:19:03Z</time>
      </trkpt>
      <trkpt lat="48.6269" lon="7.16322">
        <ele>429.2</ele>
        <time>2020-08-12T09:19:05Z</time>
      </trkpt>
      <trkpt lat="48.62709" lon="7.16325">
        <ele>427.6</ele>
        <time>2020-08-12T09:19:07Z</time>
      </trkpt>
      <trkpt lat="48.62729" lon="7.16328">
        <ele>426.6</ele>
        <time>2020-08-12T09:19:09Z</time>
      </trkpt>
      <trkpt lat="48.62749" lon="7.16331">
        <ele>425.8</ele>
        <time>2020-08-12T09:19:11Z</time>
      </trkpt>
      <trkpt lat="48.62765" lon="7.16338">
        <ele>425.3</ele>
        <time>2020-08-12T09:19:13Z</time>
      </trkpt>
      <trkpt lat="48.62781" lon="7.16348">
        <ele>424.6</ele>
        <time>2020-08-12T09:19:15Z</time>
      </trkpt>
      <trkpt lat="48.62797" lon="7.1636">
        <ele>423.8</ele>
        <time>2020-08-12T09:19:17Z</time>
      </trkpt>
      <trkpt lat="48.62811" lon="7.16372">
        <ele>423.6</ele>
        <time>2020-08-12T09:19:19Z</time>
      </trkpt>
      <trkpt lat="48.62822" lon="7.16385">
        <ele>422.9</ele>
        <time>2020-08-12T09:19:21Z</time>
      </trkpt>
      <trkpt lat="48.62835" lon="7.16394">
        <ele>421.5</ele>
        <time>2020-08-12T09:19:23Z</time>
      </trkpt>
      <trkpt lat="48.62848" lon="7.16405">
        <ele>420.6</ele>
        <time>2020-08-12T09:19:25Z</time>
      </trkpt>
      <trkpt lat="48.6286" lon="7.16417">
        <ele>418.9</ele>
        <time>2020-08-12T09:19:27Z</time>
      </trkpt>
      <trkpt lat="48.62871" lon="7.16427">
        <ele>418.4</ele>
        <time>2020-08-12T09:19:29Z</time>
      </trkpt>
      <trkpt lat="48.6288" lon="7.16434">
        <ele>417.5</ele>
        <time>2020-08-12T09:19:31Z</time>
      </trkpt>
      <trkpt lat="48.62884" lon="7.1644">
        <ele>416.2</ele>
        <time>2020-08-12T09:19:39Z</time>
      </trkpt>
      <trkpt lat="48.62878" lon="7.16444">
        <ele>419.7</ele>
        <time>2020-08-12T09:19:55Z</time>
      </trkpt>
      <trkpt lat="48.62872" lon="7.16447">
        <ele>420.4</ele>
        <time>2020-08-12T09:19:58Z</time>
      </trkpt>
      <trkpt lat="48.62866" lon="7.16447">
        <ele>420.6</ele>
        <time>2020-08-12T09:20:00Z</time>
      </trkpt>
      <trkpt lat="48.62861" lon="7.16447">
        <ele>420.6</ele>
        <time>2020-08-12T09:20:02Z</time>
      </trkpt>
      <trkpt lat="48.62855" lon="7.16446">
        <ele>419.8</ele>
        <time>2020-08-12T09:20:04Z</time>
      </trkpt>
      <trkpt lat="48.62848" lon="7.16444">
        <ele>418.4</ele>
        <time>2020-08-12T09:20:06Z</time>
      </trkpt>
      <trkpt lat="48.6284" lon="7.16442">
        <ele>416.9</ele>
        <time>2020-08-12T09:20:08Z</time>
      </trkpt>
      <trkpt lat="48.62831" lon="7.16436">
        <ele>415.2</ele>
        <time>2020-08-12T09:20:10Z</time>
      </trkpt>
      <trkpt lat="48.62823" lon="7.16432">
        <ele>414.1</ele>
        <time>2020-08-12T09:20:12Z</time>
      </trkpt>
      <trkpt lat="48.6281" lon="7.16425">
        <ele>411.7</ele>
        <time>2020-08-12T09:20:15Z</time>
      </trkpt>
      <trkpt lat="48.628" lon="7.16423">
        <ele>411.2</ele>
        <time>2020-08-12T09:20:17Z</time>
      </trkpt>
      <trkpt lat="48.6279" lon="7.16419">
        <ele>410.4</ele>
        <time>2020-08-12T09:20:19Z</time>
      </trkpt>
      <trkpt lat="48.62775" lon="7.16406">
        <ele>409.4</ele>
        <time>2020-08-12T09:20:22Z</time>
      </trkpt>
      <trkpt lat="48.62763" lon="7.16403">
        <ele>410</ele>
        <time>2020-08-12T09:20:25Z</time>
      </trkpt>
      <trkpt lat="48.62755" lon="7.16405">
        <ele>408.5</ele>
        <time>2020-08-12T09:20:27Z</time>
      </trkpt>
      <trkpt lat="48.62748" lon="7.16412">
        <ele>408.5</ele>
        <time>2020-08-12T09:20:29Z</time>
      </trkpt>
      <trkpt lat="48.62743" lon="7.16419">
        <ele>408.2</ele>
        <time>2020-08-12T09:20:31Z</time>
      </trkpt>
      <trkpt lat="48.62738" lon="7.16429">
        <ele>407.7</ele>
        <time>2020-08-12T09:20:33Z</time>
      </trkpt>
      <trkpt lat="48.62736" lon="7.16439">
        <ele>407.1</ele>
        <time>2020-08-12T09:20:35Z</time>
      </trkpt>
      <trkpt lat="48.62735" lon="7.16453">
        <ele>406.7</ele>
        <time>2020-08-12T09:20:37Z</time>
      </trkpt>
      <trkpt lat="48.62736" lon="7.16466">
        <ele>406.4</ele>
        <time>2020-08-12T09:20:39Z</time>
      </trkpt>
      <trkpt lat="48.62737" lon="7.16478">
        <ele>406.4</ele>
        <time>2020-08-12T09:20:41Z</time>
      </trkpt>
      <trkpt lat="48.62738" lon="7.1649">
        <ele>406.1</ele>
        <time>2020-08-12T09:20:43Z</time>
      </trkpt>
      <trkpt lat="48.62737" lon="7.16503">
        <ele>405.6</ele>
        <time>2020-08-12T09:20:45Z</time>
      </trkpt>
      <trkpt lat="48.62736" lon="7.16514">
        <ele>405.5</ele>
        <time>2020-08-12T09:20:47Z</time>
      </trkpt>
      <trkpt lat="48.62732" lon="7.16523">
        <ele>404.4</ele>
        <time>2020-08-12T09:20:49Z</time>
      </trkpt>
      <trkpt lat="48.62727" lon="7.16532">
        <ele>404.2</ele>
        <time>2020-08-12T09:20:51Z</time>
      </trkpt>
      <trkpt lat="48.6272" lon="7.16539">
        <ele>403.4</ele>
        <time>2020-08-12T09:20:53Z</time>
      </trkpt>
      <trkpt lat="48.62709" lon="7.16546">
        <ele>402.5</ele>
        <time>2020-08-12T09:20:55Z</time>
      </trkpt>
      <trkpt lat="48.62701" lon="7.16551">
        <ele>401.9</ele>
        <time>2020-08-12T09:20:57Z</time>
      </trkpt>
      <trkpt lat="48.62692" lon="7.16552">
        <ele>400.2</ele>
        <time>2020-08-12T09:20:59Z</time>
      </trkpt>
      <trkpt lat="48.62683" lon="7.16553">
        <ele>399.6</ele>
        <time>2020-08-12T09:21:01Z</time>
      </trkpt>
      <trkpt lat="48.62672" lon="7.16551">
        <ele>397.5</ele>
        <time>2020-08-12T09:21:03Z</time>
      </trkpt>
      <trkpt lat="48.62664" lon="7.16547">
        <ele>396.5</ele>
        <time>2020-08-12T09:21:05Z</time>
      </trkpt>
      <trkpt lat="48.62657" lon="7.16543">
        <ele>395.3</ele>
        <time>2020-08-12T09:21:07Z</time>
      </trkpt>
      <trkpt lat="48.62652" lon="7.16539">
        <ele>395</ele>
        <time>2020-08-12T09:21:09Z</time>
      </trkpt>
      <trkpt lat="48.62648" lon="7.16535">
        <ele>395</ele>
        <time>2020-08-12T09:21:11Z</time>
      </trkpt>
      <trkpt lat="48.62643" lon="7.16529">
        <ele>395.2</ele>
        <time>2020-08-12T09:21:14Z</time>
      </trkpt>
      <trkpt lat="48.62639" lon="7.16523">
        <ele>395.7</ele>
        <time>2020-08-12T09:21:16Z</time>
      </trkpt>
      <trkpt lat="48.62635" lon="7.16516">
        <ele>395.1</ele>
        <time>2020-08-12T09:21:18Z</time>
      </trkpt>
      <trkpt lat="48.62631" lon="7.16511">
        <ele>395.6</ele>
        <time>2020-08-12T09:21:20Z</time>
      </trkpt>
      <trkpt lat="48.62627" lon="7.16506">
        <ele>396.1</ele>
        <time>2020-08-12T09:21:22Z</time>
      </trkpt>
      <trkpt lat="48.62626" lon="7.16514">
        <ele>397.9</ele>
        <time>2020-08-12T09:21:27Z</time>
      </trkpt>
      <trkpt lat="48.62626" lon="7.16523">
        <ele>398.3</ele>
        <time>2020-08-12T09:21:29Z</time>
      </trkpt>
      <trkpt lat="48.62622" lon="7.1654">
        <ele>398.6</ele>
        <time>2020-08-12T09:21:32Z</time>
      </trkpt>
      <trkpt lat="48.62619" lon="7.16551">
        <ele>399</ele>
        <time>2020-08-12T09:21:34Z</time>
      </trkpt>
      <trkpt lat="48.62613" lon="7.16562">
        <ele>400.2</ele>
        <time>2020-08-12T09:21:36Z</time>
      </trkpt>
      <trkpt lat="48.62604" lon="7.16573">
        <ele>401.9</ele>
        <time>2020-08-12T09:21:39Z</time>
      </trkpt>
      <trkpt lat="48.62599" lon="7.16576">
        <ele>402.9</ele>
        <time>2020-08-12T09:21:41Z</time>
      </trkpt>
      <trkpt lat="48.6259" lon="7.1658">
        <ele>404.6</ele>
        <time>2020-08-12T09:21:44Z</time>
      </trkpt>
      <trkpt lat="48.62584" lon="7.16581">
        <ele>405.2</ele>
        <time>2020-08-12T09:21:46Z</time>
      </trkpt>
      <trkpt lat="48.62578" lon="7.16583">
        <ele>405.8</ele>
        <time>2020-08-12T09:21:48Z</time>
      </trkpt>
      <trkpt lat="48.62572" lon="7.16584">
        <ele>405.7</ele>
        <time>2020-08-12T09:21:50Z</time>
      </trkpt>
      <trkpt lat="48.62566" lon="7.16583">
        <ele>404.8</ele>
        <time>2020-08-12T09:21:52Z</time>
      </trkpt>
      <trkpt lat="48.62559" lon="7.16584">
        <ele>404.9</ele>
        <time>2020-08-12T09:21:54Z</time>
      </trkpt>
      <trkpt lat="48.62553" lon="7.16586">
        <ele>405.1</ele>
        <time>2020-08-12T09:21:56Z</time>
      </trkpt>
      <trkpt lat="48.62544" lon="7.1659">
        <ele>405.6</ele>
        <time>2020-08-12T09:21:59Z</time>
      </trkpt>
      <trkpt lat="48.62538" lon="7.16592">
        <ele>405.6</ele>
        <time>2020-08-12T09:22:01Z</time>
      </trkpt>
      <trkpt lat="48.62531" lon="7.16598">
        <ele>406</ele>
        <time>2020-08-12T09:22:04Z</time>
      </trkpt>
      <trkpt lat="48.62525" lon="7.16603">
        <ele>405.9</ele>
        <time>2020-08-12T09:22:06Z</time>
      </trkpt>
      <trkpt lat="48.62517" lon="7.16608">
        <ele>405.5</ele>
        <time>2020-08-12T09:22:09Z</time>
      </trkpt>
      <trkpt lat="48.62509" lon="7.16614">
        <ele>404.8</ele>
        <time>2020-08-12T09:22:12Z</time>
      </trkpt>
      <trkpt lat="48.62502" lon="7.16619">
        <ele>405.4</ele>
        <time>2020-08-12T09:22:14Z</time>
      </trkpt>
      <trkpt lat="48.62496" lon="7.16624">
        <ele>405.7</ele>
        <time>2020-08-12T09:22:16Z</time>
      </trkpt>
      <trkpt lat="48.62488" lon="7.16632">
        <ele>407.4</ele>
        <time>2020-08-12T09:22:19Z</time>
      </trkpt>
      <trkpt lat="48.62483" lon="7.16636">
        <ele>408.3</ele>
        <time>2020-08-12T09:22:21Z</time>
      </trkpt>
      <trkpt lat="48.62479" lon="7.16642">
        <ele>409</ele>
        <time>2020-08-12T09:22:23Z</time>
      </trkpt>
      <trkpt lat="48.62474" lon="7.16648">
        <ele>410.1</ele>
        <time>2020-08-12T09:22:25Z</time>
      </trkpt>
      <trkpt lat="48.62467" lon="7.16655">
        <ele>412</ele>
        <time>2020-08-12T09:22:28Z</time>
      </trkpt>
      <trkpt lat="48.62464" lon="7.1666">
        <ele>413</ele>
        <time>2020-08-12T09:22:30Z</time>
      </trkpt>
      <trkpt lat="48.62457" lon="7.16667">
        <ele>413.9</ele>
        <time>2020-08-12T09:22:33Z</time>
      </trkpt>
      <trkpt lat="48.62453" lon="7.16675">
        <ele>414.6</ele>
        <time>2020-08-12T09:22:36Z</time>
      </trkpt>
      <trkpt lat="48.62451" lon="7.16681">
        <ele>417.7</ele>
        <time>2020-08-12T09:23:03Z</time>
      </trkpt>
      <trkpt lat="48.62453" lon="7.16675">
        <ele>414.9</ele>
        <time>2020-08-12T09:24:09Z</time>
      </trkpt>
      <trkpt lat="48.6246" lon="7.16674">
        <ele>411.3</ele>
        <time>2020-08-12T09:24:25Z</time>
      </trkpt>
      <trkpt lat="48.62469" lon="7.16671">
        <ele>409.9</ele>
        <time>2020-08-12T09:24:27Z</time>
      </trkpt>
      <trkpt lat="48.62485" lon="7.16667">
        <ele>408.1</ele>
        <time>2020-08-12T09:24:30Z</time>
      </trkpt>
      <trkpt lat="48.62495" lon="7.16663">
        <ele>406.7</ele>
        <time>2020-08-12T09:24:32Z</time>
      </trkpt>
      <trkpt lat="48.62504" lon="7.16659">
        <ele>406</ele>
        <time>2020-08-12T09:24:34Z</time>
      </trkpt>
      <trkpt lat="48.62511" lon="7.16657">
        <ele>405.8</ele>
        <time>2020-08-12T09:24:36Z</time>
      </trkpt>
      <trkpt lat="48.62521" lon="7.16653">
        <ele>405.9</ele>
        <time>2020-08-12T09:24:39Z</time>
      </trkpt>
      <trkpt lat="48.62526" lon="7.16653">
        <ele>405.5</ele>
        <time>2020-08-12T09:24:41Z</time>
      </trkpt>
      <trkpt lat="48.62533" lon="7.16652">
        <ele>405.5</ele>
        <time>2020-08-12T09:24:43Z</time>
      </trkpt>
      <trkpt lat="48.62546" lon="7.16654">
        <ele>404.7</ele>
        <time>2020-08-12T09:24:46Z</time>
      </trkpt>
      <trkpt lat="48.62553" lon="7.16658">
        <ele>403.8</ele>
        <time>2020-08-12T09:24:48Z</time>
      </trkpt>
      <trkpt lat="48.6256" lon="7.16662">
        <ele>403.2</ele>
        <time>2020-08-12T09:24:50Z</time>
      </trkpt>
      <trkpt lat="48.62565" lon="7.16666">
        <ele>402.4</ele>
        <time>2020-08-12T09:24:52Z</time>
      </trkpt>
      <trkpt lat="48.62573" lon="7.16674">
        <ele>402.5</ele>
        <time>2020-08-12T09:24:55Z</time>
      </trkpt>
      <trkpt lat="48.62579" lon="7.16675">
        <ele>402.6</ele>
        <time>2020-08-12T09:24:58Z</time>
      </trkpt>
      <trkpt lat="48.62584" lon="7.16678">
        <ele>402.6</ele>
        <time>2020-08-12T09:25:01Z</time>
      </trkpt>
      <trkpt lat="48.62588" lon="7.16682">
        <ele>405.2</ele>
        <time>2020-08-12T09:25:17Z</time>
      </trkpt>
      <trkpt lat="48.62595" lon="7.16691">
        <ele>406.7</ele>
        <time>2020-08-12T09:25:20Z</time>
      </trkpt>
      <trkpt lat="48.62603" lon="7.167">
        <ele>408.3</ele>
        <time>2020-08-12T09:25:23Z</time>
      </trkpt>
      <trkpt lat="48.62609" lon="7.16705">
        <ele>409.4</ele>
        <time>2020-08-12T09:25:25Z</time>
      </trkpt>
      <trkpt lat="48.62616" lon="7.16712">
        <ele>410.4</ele>
        <time>2020-08-12T09:25:28Z</time>
      </trkpt>
      <trkpt lat="48.62623" lon="7.1672">
        <ele>411.1</ele>
        <time>2020-08-12T09:25:31Z</time>
      </trkpt>
      <trkpt lat="48.62624" lon="7.16728">
        <ele>412.6</ele>
        <time>2020-08-12T09:25:48Z</time>
      </trkpt>
      <trkpt lat="48.62628" lon="7.16733">
        <ele>413.9</ele>
        <time>2020-08-12T09:25:53Z</time>
      </trkpt>
      <trkpt lat="48.62631" lon="7.16738">
        <ele>414</ele>
        <time>2020-08-12T09:25:58Z</time>
      </trkpt>
      <trkpt lat="48.62634" lon="7.16744">
        <ele>414.6</ele>
        <time>2020-08-12T09:26:06Z</time>
      </trkpt>
      <trkpt lat="48.62636" lon="7.1675">
        <ele>414.3</ele>
        <time>2020-08-12T09:26:09Z</time>
      </trkpt>
      <trkpt lat="48.62639" lon="7.16759">
        <ele>415.2</ele>
        <time>2020-08-12T09:26:13Z</time>
      </trkpt>
      <trkpt lat="48.62643" lon="7.16769">
        <ele>416</ele>
        <time>2020-08-12T09:26:16Z</time>
      </trkpt>
      <trkpt lat="48.62645" lon="7.16776">
        <ele>416.2</ele>
        <time>2020-08-12T09:26:18Z</time>
      </trkpt>
      <trkpt lat="48.6265" lon="7.16782">
        <ele>416.4</ele>
        <time>2020-08-12T09:26:20Z</time>
      </trkpt>
      <trkpt lat="48.62654" lon="7.16787">
        <ele>416.9</ele>
        <time>2020-08-12T09:26:22Z</time>
      </trkpt>
      <trkpt lat="48.62658" lon="7.16793">
        <ele>417.8</ele>
        <time>2020-08-12T09:26:25Z</time>
      </trkpt>
      <trkpt lat="48.6266" lon="7.16801">
        <ele>418</ele>
        <time>2020-08-12T09:26:27Z</time>
      </trkpt>
      <trkpt lat="48.62663" lon="7.16808">
        <ele>418.3</ele>
        <time>2020-08-12T09:26:29Z</time>
      </trkpt>
      <trkpt lat="48.62667" lon="7.16819">
        <ele>419.5</ele>
        <time>2020-08-12T09:26:32Z</time>
      </trkpt>
      <trkpt lat="48.62669" lon="7.16828">
        <ele>420.1</ele>
        <time>2020-08-12T09:26:34Z</time>
      </trkpt>
      <trkpt lat="48.6267" lon="7.16837">
        <ele>421.5</ele>
        <time>2020-08-12T09:26:36Z</time>
      </trkpt>
      <trkpt lat="48.62673" lon="7.16845">
        <ele>421.6</ele>
        <time>2020-08-12T09:26:38Z</time>
      </trkpt>
      <trkpt lat="48.62676" lon="7.16854">
        <ele>422.4</ele>
        <time>2020-08-12T09:26:41Z</time>
      </trkpt>
      <trkpt lat="48.62678" lon="7.16862">
        <ele>423.9</ele>
        <time>2020-08-12T09:26:53Z</time>
      </trkpt>
      <trkpt lat="48.62679" lon="7.16871">
        <ele>424.3</ele>
        <time>2020-08-12T09:26:56Z</time>
      </trkpt>
      <trkpt lat="48.62679" lon="7.1688">
        <ele>424.3</ele>
        <time>2020-08-12T09:26:59Z</time>
      </trkpt>
      <trkpt lat="48.62679" lon="7.16888">
        <ele>423.2</ele>
        <time>2020-08-12T09:27:06Z</time>
      </trkpt>
      <trkpt lat="48.62679" lon="7.16896">
        <ele>422.2</ele>
        <time>2020-08-12T09:27:15Z</time>
      </trkpt>
      <trkpt lat="48.62678" lon="7.16904">
        <ele>421.5</ele>
        <time>2020-08-12T09:27:18Z</time>
      </trkpt>
      <trkpt lat="48.62678" lon="7.16911">
        <ele>423.7</ele>
        <time>2020-08-12T09:27:25Z</time>
      </trkpt>
      <trkpt lat="48.62679" lon="7.16919">
        <ele>426.8</ele>
        <time>2020-08-12T09:27:32Z</time>
      </trkpt>
      <trkpt lat="48.6268" lon="7.16926">
        <ele>427.9</ele>
        <time>2020-08-12T09:27:39Z</time>
      </trkpt>
      <trkpt lat="48.62678" lon="7.16933">
        <ele>429.9</ele>
        <time>2020-08-12T09:27:43Z</time>
      </trkpt>
      <trkpt lat="48.62675" lon="7.16939">
        <ele>431.8</ele>
        <time>2020-08-12T09:27:48Z</time>
      </trkpt>
      <trkpt lat="48.6267" lon="7.16943">
        <ele>432.8</ele>
        <time>2020-08-12T09:27:52Z</time>
      </trkpt>
      <trkpt lat="48.62667" lon="7.16949">
        <ele>433.6</ele>
        <time>2020-08-12T09:27:57Z</time>
      </trkpt>
      <trkpt lat="48.62663" lon="7.16954">
        <ele>434.4</ele>
        <time>2020-08-12T09:28:03Z</time>
      </trkpt>
      <trkpt lat="48.62658" lon="7.16958">
        <ele>435.1</ele>
        <time>2020-08-12T09:28:08Z</time>
      </trkpt>
      <trkpt lat="48.62652" lon="7.16965">
        <ele>434.3</ele>
        <time>2020-08-12T09:28:11Z</time>
      </trkpt>
      <trkpt lat="48.62648" lon="7.1697">
        <ele>433.5</ele>
        <time>2020-08-12T09:28:13Z</time>
      </trkpt>
      <trkpt lat="48.62642" lon="7.16984">
        <ele>434.2</ele>
        <time>2020-08-12T09:28:16Z</time>
      </trkpt>
      <trkpt lat="48.62638" lon="7.16993">
        <ele>433.9</ele>
        <time>2020-08-12T09:28:18Z</time>
      </trkpt>
      <trkpt lat="48.62633" lon="7.17005">
        <ele>434.7</ele>
        <time>2020-08-12T09:28:20Z</time>
      </trkpt>
      <trkpt lat="48.62628" lon="7.17016">
        <ele>434.8</ele>
        <time>2020-08-12T09:28:22Z</time>
      </trkpt>
      <trkpt lat="48.62627" lon="7.17024">
        <ele>435.4</ele>
        <time>2020-08-12T09:28:24Z</time>
      </trkpt>
      <trkpt lat="48.62622" lon="7.17031">
        <ele>436.5</ele>
        <time>2020-08-12T09:28:26Z</time>
      </trkpt>
      <trkpt lat="48.62618" lon="7.17042">
        <ele>437.2</ele>
        <time>2020-08-12T09:28:28Z</time>
      </trkpt>
      <trkpt lat="48.62613" lon="7.17056">
        <ele>438.4</ele>
        <time>2020-08-12T09:28:30Z</time>
      </trkpt>
      <trkpt lat="48.6261" lon="7.17067">
        <ele>439.1</ele>
        <time>2020-08-12T09:28:32Z</time>
      </trkpt>
      <trkpt lat="48.62605" lon="7.17077">
        <ele>439.9</ele>
        <time>2020-08-12T09:28:34Z</time>
      </trkpt>
      <trkpt lat="48.62603" lon="7.17094">
        <ele>441.3</ele>
        <time>2020-08-12T09:28:37Z</time>
      </trkpt>
      <trkpt lat="48.62603" lon="7.17113">
        <ele>443</ele>
        <time>2020-08-12T09:28:40Z</time>
      </trkpt>
      <trkpt lat="48.62603" lon="7.17124">
        <ele>444.9</ele>
        <time>2020-08-12T09:28:42Z</time>
      </trkpt>
      <trkpt lat="48.62603" lon="7.17135">
        <ele>446.1</ele>
        <time>2020-08-12T09:28:44Z</time>
      </trkpt>
      <trkpt lat="48.626" lon="7.17145">
        <ele>447.7</ele>
        <time>2020-08-12T09:28:46Z</time>
      </trkpt>
      <trkpt lat="48.626" lon="7.17158">
        <ele>448</ele>
        <time>2020-08-12T09:28:48Z</time>
      </trkpt>
      <trkpt lat="48.62599" lon="7.17171">
        <ele>449.2</ele>
        <time>2020-08-12T09:28:50Z</time>
      </trkpt>
      <trkpt lat="48.62598" lon="7.17188">
        <ele>450.5</ele>
        <time>2020-08-12T09:28:53Z</time>
      </trkpt>
      <trkpt lat="48.62597" lon="7.17203">
        <ele>450.3</ele>
        <time>2020-08-12T09:28:55Z</time>
      </trkpt>
      <trkpt lat="48.62598" lon="7.17216">
        <ele>451.8</ele>
        <time>2020-08-12T09:28:57Z</time>
      </trkpt>
      <trkpt lat="48.62599" lon="7.1723">
        <ele>453.7</ele>
        <time>2020-08-12T09:28:59Z</time>
      </trkpt>
      <trkpt lat="48.62598" lon="7.17243">
        <ele>455.3</ele>
        <time>2020-08-12T09:29:01Z</time>
      </trkpt>
      <trkpt lat="48.62599" lon="7.17256">
        <ele>455.6</ele>
        <time>2020-08-12T09:29:03Z</time>
      </trkpt>
      <trkpt lat="48.62599" lon="7.17269">
        <ele>456.4</ele>
        <time>2020-08-12T09:29:05Z</time>
      </trkpt>
      <trkpt lat="48.62598" lon="7.17287">
        <ele>456.5</ele>
        <time>2020-08-12T09:29:08Z</time>
      </trkpt>
      <trkpt lat="48.62597" lon="7.17298">
        <ele>457.7</ele>
        <time>2020-08-12T09:29:10Z</time>
      </trkpt>
      <trkpt lat="48.62598" lon="7.17312">
        <ele>457.9</ele>
        <time>2020-08-12T09:29:12Z</time>
      </trkpt>
      <trkpt lat="48.62597" lon="7.17326">
        <ele>459.1</ele>
        <time>2020-08-12T09:29:14Z</time>
      </trkpt>
      <trkpt lat="48.626" lon="7.17339">
        <ele>460.3</ele>
        <time>2020-08-12T09:29:16Z</time>
      </trkpt>
      <trkpt lat="48.62601" lon="7.17358">
        <ele>461.5</ele>
        <time>2020-08-12T09:29:19Z</time>
      </trkpt>
      <trkpt lat="48.626" lon="7.17371">
        <ele>463</ele>
        <time>2020-08-12T09:29:21Z</time>
      </trkpt>
      <trkpt lat="48.62598" lon="7.17383">
        <ele>463.7</ele>
        <time>2020-08-12T09:29:23Z</time>
      </trkpt>
      <trkpt lat="48.62592" lon="7.174">
        <ele>465</ele>
        <time>2020-08-12T09:29:26Z</time>
      </trkpt>
      <trkpt lat="48.62587" lon="7.17418">
        <ele>466</ele>
        <time>2020-08-12T09:29:29Z</time>
      </trkpt>
      <trkpt lat="48.62584" lon="7.1743">
        <ele>466.8</ele>
        <time>2020-08-12T09:29:31Z</time>
      </trkpt>
      <trkpt lat="48.62581" lon="7.17445">
        <ele>467.8</ele>
        <time>2020-08-12T09:29:34Z</time>
      </trkpt>
      <trkpt lat="48.6258" lon="7.17458">
        <ele>468.6</ele>
        <time>2020-08-12T09:29:36Z</time>
      </trkpt>
      <trkpt lat="48.62579" lon="7.17472">
        <ele>469.6</ele>
        <time>2020-08-12T09:29:38Z</time>
      </trkpt>
      <trkpt lat="48.62582" lon="7.17484">
        <ele>471</ele>
        <time>2020-08-12T09:29:40Z</time>
      </trkpt>
      <trkpt lat="48.62583" lon="7.17497">
        <ele>472</ele>
        <time>2020-08-12T09:29:42Z</time>
      </trkpt>
      <trkpt lat="48.62582" lon="7.17509">
        <ele>473.4</ele>
        <time>2020-08-12T09:29:44Z</time>
      </trkpt>
      <trkpt lat="48.62583" lon="7.17522">
        <ele>474.1</ele>
        <time>2020-08-12T09:29:46Z</time>
      </trkpt>
      <trkpt lat="48.62582" lon="7.17541">
        <ele>475.6</ele>
        <time>2020-08-12T09:29:49Z</time>
      </trkpt>
      <trkpt lat="48.62582" lon="7.17554">
        <ele>477.2</ele>
        <time>2020-08-12T09:29:51Z</time>
      </trkpt>
      <trkpt lat="48.62581" lon="7.17567">
        <ele>477.8</ele>
        <time>2020-08-12T09:29:53Z</time>
      </trkpt>
      <trkpt lat="48.62582" lon="7.1758">
        <ele>479.5</ele>
        <time>2020-08-12T09:29:55Z</time>
      </trkpt>
      <trkpt lat="48.62581" lon="7.17593">
        <ele>479.5</ele>
        <time>2020-08-12T09:29:57Z</time>
      </trkpt>
      <trkpt lat="48.62579" lon="7.17612">
        <ele>481.4</ele>
        <time>2020-08-12T09:30:00Z</time>
      </trkpt>
      <trkpt lat="48.62579" lon="7.17624">
        <ele>482.4</ele>
        <time>2020-08-12T09:30:02Z</time>
      </trkpt>
      <trkpt lat="48.62577" lon="7.17637">
        <ele>483.5</ele>
        <time>2020-08-12T09:30:04Z</time>
      </trkpt>
      <trkpt lat="48.62575" lon="7.17649">
        <ele>484.4</ele>
        <time>2020-08-12T09:30:06Z</time>
      </trkpt>
      <trkpt lat="48.62573" lon="7.17661">
        <ele>485</ele>
        <time>2020-08-12T09:30:08Z</time>
      </trkpt>
      <trkpt lat="48.62571" lon="7.17674">
        <ele>485.5</ele>
        <time>2020-08-12T09:30:10Z</time>
      </trkpt>
      <trkpt lat="48.6257" lon="7.17686">
        <ele>486.4</ele>
        <time>2020-08-12T09:30:12Z</time>
      </trkpt>
      <trkpt lat="48.62569" lon="7.17698">
        <ele>487</ele>
        <time>2020-08-12T09:30:14Z</time>
      </trkpt>
      <trkpt lat="48.62568" lon="7.17711">
        <ele>487.7</ele>
        <time>2020-08-12T09:30:16Z</time>
      </trkpt>
      <trkpt lat="48.62567" lon="7.17724">
        <ele>487.9</ele>
        <time>2020-08-12T09:30:18Z</time>
      </trkpt>
      <trkpt lat="48.62568" lon="7.17738">
        <ele>488.6</ele>
        <time>2020-08-12T09:30:20Z</time>
      </trkpt>
      <trkpt lat="48.62566" lon="7.17751">
        <ele>488.9</ele>
        <time>2020-08-12T09:30:22Z</time>
      </trkpt>
      <trkpt lat="48.62565" lon="7.17764">
        <ele>489.7</ele>
        <time>2020-08-12T09:30:24Z</time>
      </trkpt>
      <trkpt lat="48.62563" lon="7.17776">
        <ele>490.4</ele>
        <time>2020-08-12T09:30:26Z</time>
      </trkpt>
      <trkpt lat="48.6256" lon="7.17787">
        <ele>491.1</ele>
        <time>2020-08-12T09:30:28Z</time>
      </trkpt>
      <trkpt lat="48.62556" lon="7.17799">
        <ele>491.7</ele>
        <time>2020-08-12T09:30:30Z</time>
      </trkpt>
      <trkpt lat="48.62554" lon="7.17806">
        <ele>492.6</ele>
        <time>2020-08-12T09:30:34Z</time>
      </trkpt>
      <trkpt lat="48.62559" lon="7.17805">
        <ele>495.1</ele>
        <time>2020-08-12T09:31:00Z</time>
      </trkpt>
      <trkpt lat="48.62565" lon="7.17806">
        <ele>495.1</ele>
        <time>2020-08-12T09:31:03Z</time>
      </trkpt>
      <trkpt lat="48.6257" lon="7.17807">
        <ele>495</ele>
        <time>2020-08-12T09:31:06Z</time>
      </trkpt>
      <trkpt lat="48.62576" lon="7.17804">
        <ele>495.1</ele>
        <time>2020-08-12T09:31:09Z</time>
      </trkpt>
      <trkpt lat="48.6258" lon="7.17801">
        <ele>494.8</ele>
        <time>2020-08-12T09:31:11Z</time>
      </trkpt>
      <trkpt lat="48.62584" lon="7.17796">
        <ele>494.3</ele>
        <time>2020-08-12T09:31:13Z</time>
      </trkpt>
      <trkpt lat="48.6259" lon="7.17791">
        <ele>493.9</ele>
        <time>2020-08-12T09:31:15Z</time>
      </trkpt>
      <trkpt lat="48.62596" lon="7.17786">
        <ele>493.7</ele>
        <time>2020-08-12T09:31:17Z</time>
      </trkpt>
      <trkpt lat="48.62608" lon="7.17778">
        <ele>493.5</ele>
        <time>2020-08-12T09:31:20Z</time>
      </trkpt>
      <trkpt lat="48.62625" lon="7.1777">
        <ele>493.5</ele>
        <time>2020-08-12T09:31:23Z</time>
      </trkpt>
      <trkpt lat="48.62638" lon="7.17765">
        <ele>492.7</ele>
        <time>2020-08-12T09:31:25Z</time>
      </trkpt>
      <trkpt lat="48.62657" lon="7.17758">
        <ele>492.1</ele>
        <time>2020-08-12T09:31:28Z</time>
      </trkpt>
      <trkpt lat="48.62666" lon="7.17754">
        <ele>492.1</ele>
        <time>2020-08-12T09:31:30Z</time>
      </trkpt>
      <trkpt lat="48.62675" lon="7.17753">
        <ele>491.3</ele>
        <time>2020-08-12T09:31:32Z</time>
      </trkpt>
      <trkpt lat="48.6269" lon="7.17748">
        <ele>490.2</ele>
        <time>2020-08-12T09:31:35Z</time>
      </trkpt>
      <trkpt lat="48.62701" lon="7.17742">
        <ele>489.5</ele>
        <time>2020-08-12T09:31:37Z</time>
      </trkpt>
      <trkpt lat="48.6271" lon="7.17735">
        <ele>488.8</ele>
        <time>2020-08-12T09:31:39Z</time>
      </trkpt>
      <trkpt lat="48.62719" lon="7.17727">
        <ele>488.8</ele>
        <time>2020-08-12T09:31:41Z</time>
      </trkpt>
      <trkpt lat="48.62729" lon="7.1772">
        <ele>488.7</ele>
        <time>2020-08-12T09:31:43Z</time>
      </trkpt>
      <trkpt lat="48.6274" lon="7.17712">
        <ele>489.2</ele>
        <time>2020-08-12T09:31:45Z</time>
      </trkpt>
      <trkpt lat="48.62751" lon="7.17704">
        <ele>488.3</ele>
        <time>2020-08-12T09:31:47Z</time>
      </trkpt>
      <trkpt lat="48.6276" lon="7.17693">
        <ele>488.4</ele>
        <time>2020-08-12T09:31:49Z</time>
      </trkpt>
      <trkpt lat="48.62768" lon="7.17681">
        <ele>489.2</ele>
        <time>2020-08-12T09:31:51Z</time>
      </trkpt>
      <trkpt lat="48.62775" lon="7.17667">
        <ele>490</ele>
        <time>2020-08-12T09:31:53Z</time>
      </trkpt>
      <trkpt lat="48.62783" lon="7.17655">
        <ele>490.2</ele>
        <time>2020-08-12T09:31:55Z</time>
      </trkpt>
      <trkpt lat="48.62788" lon="7.17639">
        <ele>491.7</ele>
        <time>2020-08-12T09:31:57Z</time>
      </trkpt>
      <trkpt lat="48.62793" lon="7.17626">
        <ele>493.4</ele>
        <time>2020-08-12T09:31:59Z</time>
      </trkpt>
      <trkpt lat="48.628" lon="7.17615">
        <ele>494.8</ele>
        <time>2020-08-12T09:32:01Z</time>
      </trkpt>
      <trkpt lat="48.6281" lon="7.176">
        <ele>497.3</ele>
        <time>2020-08-12T09:32:04Z</time>
      </trkpt>
      <trkpt lat="48.62817" lon="7.17591">
        <ele>498.1</ele>
        <time>2020-08-12T09:32:06Z</time>
      </trkpt>
      <trkpt lat="48.62825" lon="7.17584">
        <ele>499.1</ele>
        <time>2020-08-12T09:32:08Z</time>
      </trkpt>
      <trkpt lat="48.62831" lon="7.17576">
        <ele>499.2</ele>
        <time>2020-08-12T09:32:10Z</time>
      </trkpt>
      <trkpt lat="48.6284" lon="7.17562">
        <ele>500.5</ele>
        <time>2020-08-12T09:32:13Z</time>
      </trkpt>
      <trkpt lat="48.62848" lon="7.17547">
        <ele>501.6</ele>
        <time>2020-08-12T09:32:16Z</time>
      </trkpt>
      <trkpt lat="48.62853" lon="7.17537">
        <ele>502.4</ele>
        <time>2020-08-12T09:32:18Z</time>
      </trkpt>
      <trkpt lat="48.62858" lon="7.17528">
        <ele>503.5</ele>
        <time>2020-08-12T09:32:20Z</time>
      </trkpt>
      <trkpt lat="48.62865" lon="7.1752">
        <ele>504.5</ele>
        <time>2020-08-12T09:32:22Z</time>
      </trkpt>
      <trkpt lat="48.62874" lon="7.17506">
        <ele>507.1</ele>
        <time>2020-08-12T09:32:25Z</time>
      </trkpt>
      <trkpt lat="48.62881" lon="7.17497">
        <ele>508.9</ele>
        <time>2020-08-12T09:32:27Z</time>
      </trkpt>
      <trkpt lat="48.6289" lon="7.17483">
        <ele>510.8</ele>
        <time>2020-08-12T09:32:30Z</time>
      </trkpt>
      <trkpt lat="48.62898" lon="7.17469">
        <ele>512.2</ele>
        <time>2020-08-12T09:32:32Z</time>
      </trkpt>
      <trkpt lat="48.62904" lon="7.17459">
        <ele>513.7</ele>
        <time>2020-08-12T09:32:34Z</time>
      </trkpt>
      <trkpt lat="48.62911" lon="7.17449">
        <ele>514.2</ele>
        <time>2020-08-12T09:32:36Z</time>
      </trkpt>
      <trkpt lat="48.62917" lon="7.17441">
        <ele>514.9</ele>
        <time>2020-08-12T09:32:38Z</time>
      </trkpt>
      <trkpt lat="48.62925" lon="7.17434">
        <ele>515.6</ele>
        <time>2020-08-12T09:32:40Z</time>
      </trkpt>
      <trkpt lat="48.62932" lon="7.17428">
        <ele>516.4</ele>
        <time>2020-08-12T09:32:42Z</time>
      </trkpt>
      <trkpt lat="48.62941" lon="7.17426">
        <ele>516.9</ele>
        <time>2020-08-12T09:32:44Z</time>
      </trkpt>
      <trkpt lat="48.6295" lon="7.17425">
        <ele>516.9</ele>
        <time>2020-08-12T09:32:46Z</time>
      </trkpt>
      <trkpt lat="48.62959" lon="7.17426">
        <ele>516.9</ele>
        <time>2020-08-12T09:32:48Z</time>
      </trkpt>
      <trkpt lat="48.62968" lon="7.17428">
        <ele>516.9</ele>
        <time>2020-08-12T09:32:50Z</time>
      </trkpt>
      <trkpt lat="48.62972" lon="7.17429">
        <ele>517.1</ele>
        <time>2020-08-12T09:32:52Z</time>
      </trkpt>
      <trkpt lat="48.62976" lon="7.17425">
        <ele>522.5</ele>
        <time>2020-08-12T09:33:07Z</time>
      </trkpt>
      <trkpt lat="48.62982" lon="7.17425">
        <ele>525.7</ele>
        <time>2020-08-12T09:33:23Z</time>
      </trkpt>
      <trkpt lat="48.62987" lon="7.17426">
        <ele>526.3</ele>
        <time>2020-08-12T09:33:25Z</time>
      </trkpt>
      <trkpt lat="48.62992" lon="7.17427">
        <ele>526.2</ele>
        <time>2020-08-12T09:33:27Z</time>
      </trkpt>
      <trkpt lat="48.62997" lon="7.17429">
        <ele>526.2</ele>
        <time>2020-08-12T09:33:29Z</time>
      </trkpt>
      <trkpt lat="48.63002" lon="7.17429">
        <ele>525.5</ele>
        <time>2020-08-12T09:33:31Z</time>
      </trkpt>
      <trkpt lat="48.63008" lon="7.17431">
        <ele>524.9</ele>
        <time>2020-08-12T09:33:33Z</time>
      </trkpt>
      <trkpt lat="48.63014" lon="7.17433">
        <ele>524.8</ele>
        <time>2020-08-12T09:33:35Z</time>
      </trkpt>
      <trkpt lat="48.63021" lon="7.17435">
        <ele>524.6</ele>
        <time>2020-08-12T09:33:37Z</time>
      </trkpt>
      <trkpt lat="48.63028" lon="7.17435">
        <ele>525.3</ele>
        <time>2020-08-12T09:33:39Z</time>
      </trkpt>
      <trkpt lat="48.63035" lon="7.17434">
        <ele>526</ele>
        <time>2020-08-12T09:33:41Z</time>
      </trkpt>
      <trkpt lat="48.63042" lon="7.17433">
        <ele>527.3</ele>
        <time>2020-08-12T09:33:43Z</time>
      </trkpt>
      <trkpt lat="48.63048" lon="7.17433">
        <ele>528.3</ele>
        <time>2020-08-12T09:33:45Z</time>
      </trkpt>
      <trkpt lat="48.63048" lon="7.17442">
        <ele>530.8</ele>
        <time>2020-08-12T09:33:50Z</time>
      </trkpt>
      <trkpt lat="48.63045" lon="7.17447">
        <ele>531.3</ele>
        <time>2020-08-12T09:33:52Z</time>
      </trkpt>
      <trkpt lat="48.63041" lon="7.17452">
        <ele>530.7</ele>
        <time>2020-08-12T09:33:54Z</time>
      </trkpt>
      <trkpt lat="48.63037" lon="7.17457">
        <ele>530.7</ele>
        <time>2020-08-12T09:33:56Z</time>
      </trkpt>
      <trkpt lat="48.63032" lon="7.17463">
        <ele>530.6</ele>
        <time>2020-08-12T09:33:58Z</time>
      </trkpt>
      <trkpt lat="48.63027" lon="7.17469">
        <ele>530.3</ele>
        <time>2020-08-12T09:34:00Z</time>
      </trkpt>
      <trkpt lat="48.63022" lon="7.17476">
        <ele>530.9</ele>
        <time>2020-08-12T09:34:02Z</time>
      </trkpt>
      <trkpt lat="48.63018" lon="7.17483">
        <ele>531.6</ele>
        <time>2020-08-12T09:34:04Z</time>
      </trkpt>
      <trkpt lat="48.63013" lon="7.17492">
        <ele>532</ele>
        <time>2020-08-12T09:34:06Z</time>
      </trkpt>
      <trkpt lat="48.63008" lon="7.175">
        <ele>530.7</ele>
        <time>2020-08-12T09:34:08Z</time>
      </trkpt>
      <trkpt lat="48.62999" lon="7.17509">
        <ele>530.3</ele>
        <time>2020-08-12T09:34:10Z</time>
      </trkpt>
      <trkpt lat="48.62991" lon="7.17517">
        <ele>530.4</ele>
        <time>2020-08-12T09:34:12Z</time>
      </trkpt>
      <trkpt lat="48.62984" lon="7.17525">
        <ele>530.4</ele>
        <time>2020-08-12T09:34:14Z</time>
      </trkpt>
      <trkpt lat="48.62978" lon="7.17531">
        <ele>530</ele>
        <time>2020-08-12T09:34:16Z</time>
      </trkpt>
      <trkpt lat="48.62972" lon="7.1754">
        <ele>529.8</ele>
        <time>2020-08-12T09:34:18Z</time>
      </trkpt>
      <trkpt lat="48.62966" lon="7.17547">
        <ele>529.7</ele>
        <time>2020-08-12T09:34:20Z</time>
      </trkpt>
      <trkpt lat="48.62959" lon="7.17555">
        <ele>529.3</ele>
        <time>2020-08-12T09:34:22Z</time>
      </trkpt>
      <trkpt lat="48.62953" lon="7.1756">
        <ele>528.4</ele>
        <time>2020-08-12T09:34:24Z</time>
      </trkpt>
      <trkpt lat="48.62945" lon="7.17566">
        <ele>528.4</ele>
        <time>2020-08-12T09:34:26Z</time>
      </trkpt>
      <trkpt lat="48.62939" lon="7.17573">
        <ele>528.2</ele>
        <time>2020-08-12T09:34:28Z</time>
      </trkpt>
      <trkpt lat="48.62933" lon="7.1758">
        <ele>528.9</ele>
        <time>2020-08-12T09:34:30Z</time>
      </trkpt>
      <trkpt lat="48.62926" lon="7.17587">
        <ele>529</ele>
        <time>2020-08-12T09:34:32Z</time>
      </trkpt>
      <trkpt lat="48.62919" lon="7.17594">
        <ele>529.8</ele>
        <time>2020-08-12T09:34:34Z</time>
      </trkpt>
      <trkpt lat="48.62911" lon="7.17604">
        <ele>531.2</ele>
        <time>2020-08-12T09:34:36Z</time>
      </trkpt>
      <trkpt lat="48.62903" lon="7.17616">
        <ele>532</ele>
        <time>2020-08-12T09:34:38Z</time>
      </trkpt>
      <trkpt lat="48.62894" lon="7.17628">
        <ele>532.9</ele>
        <time>2020-08-12T09:34:40Z</time>
      </trkpt>
      <trkpt lat="48.62884" lon="7.17641">
        <ele>533.2</ele>
        <time>2020-08-12T09:34:42Z</time>
      </trkpt>
      <trkpt lat="48.62875" lon="7.17655">
        <ele>533.6</ele>
        <time>2020-08-12T09:34:44Z</time>
      </trkpt>
      <trkpt lat="48.62864" lon="7.17673">
        <ele>534.3</ele>
        <time>2020-08-12T09:34:46Z</time>
      </trkpt>
      <trkpt lat="48.62854" lon="7.17692">
        <ele>531.8</ele>
        <time>2020-08-12T09:34:48Z</time>
      </trkpt>
      <trkpt lat="48.62842" lon="7.17711">
        <ele>533.2</ele>
        <time>2020-08-12T09:34:50Z</time>
      </trkpt>
      <trkpt lat="48.62831" lon="7.1773">
        <ele>534.8</ele>
        <time>2020-08-12T09:34:52Z</time>
      </trkpt>
      <trkpt lat="48.6282" lon="7.17748">
        <ele>536.5</ele>
        <time>2020-08-12T09:34:54Z</time>
      </trkpt>
      <trkpt lat="48.62809" lon="7.17763">
        <ele>538.1</ele>
        <time>2020-08-12T09:34:56Z</time>
      </trkpt>
      <trkpt lat="48.62801" lon="7.1778">
        <ele>539.3</ele>
        <time>2020-08-12T09:34:58Z</time>
      </trkpt>
      <trkpt lat="48.62796" lon="7.17799">
        <ele>540</ele>
        <time>2020-08-12T09:35:00Z</time>
      </trkpt>
      <trkpt lat="48.6279" lon="7.17815">
        <ele>539.3</ele>
        <time>2020-08-12T09:35:02Z</time>
      </trkpt>
      <trkpt lat="48.62783" lon="7.1783">
        <ele>539.7</ele>
        <time>2020-08-12T09:35:04Z</time>
      </trkpt>
      <trkpt lat="48.62776" lon="7.17844">
        <ele>539.9</ele>
        <time>2020-08-12T09:35:06Z</time>
      </trkpt>
      <trkpt lat="48.62769" lon="7.17856">
        <ele>539.7</ele>
        <time>2020-08-12T09:35:08Z</time>
      </trkpt>
      <trkpt lat="48.62761" lon="7.17868">
        <ele>540.3</ele>
        <time>2020-08-12T09:35:10Z</time>
      </trkpt>
      <trkpt lat="48.62755" lon="7.1788">
        <ele>540.6</ele>
        <time>2020-08-12T09:35:12Z</time>
      </trkpt>
      <trkpt lat="48.62749" lon="7.17891">
        <ele>541.1</ele>
        <time>2020-08-12T09:35:14Z</time>
      </trkpt>
      <trkpt lat="48.62742" lon="7.17903">
        <ele>542.2</ele>
        <time>2020-08-12T09:35:16Z</time>
      </trkpt>
      <trkpt lat="48.62736" lon="7.17912">
        <ele>542.6</ele>
        <time>2020-08-12T09:35:18Z</time>
      </trkpt>
      <trkpt lat="48.6273" lon="7.17919">
        <ele>542.7</ele>
        <time>2020-08-12T09:35:20Z</time>
      </trkpt>
      <trkpt lat="48.62723" lon="7.17927">
        <ele>542.6</ele>
        <time>2020-08-12T09:35:22Z</time>
      </trkpt>
      <trkpt lat="48.62718" lon="7.17938">
        <ele>542.5</ele>
        <time>2020-08-12T09:35:24Z</time>
      </trkpt>
      <trkpt lat="48.62716" lon="7.17948">
        <ele>543</ele>
        <time>2020-08-12T09:35:26Z</time>
      </trkpt>
      <trkpt lat="48.62716" lon="7.17959">
        <ele>544.2</ele>
        <time>2020-08-12T09:35:28Z</time>
      </trkpt>
      <trkpt lat="48.62719" lon="7.17971">
        <ele>545.1</ele>
        <time>2020-08-12T09:35:30Z</time>
      </trkpt>
      <trkpt lat="48.62722" lon="7.17984">
        <ele>545.9</ele>
        <time>2020-08-12T09:35:32Z</time>
      </trkpt>
      <trkpt lat="48.62723" lon="7.17995">
        <ele>546.7</ele>
        <time>2020-08-12T09:35:34Z</time>
      </trkpt>
      <trkpt lat="48.62724" lon="7.18007">
        <ele>547.6</ele>
        <time>2020-08-12T09:35:36Z</time>
      </trkpt>
      <trkpt lat="48.62725" lon="7.18021">
        <ele>548.3</ele>
        <time>2020-08-12T09:35:38Z</time>
      </trkpt>
      <trkpt lat="48.62728" lon="7.18037">
        <ele>548.5</ele>
        <time>2020-08-12T09:35:40Z</time>
      </trkpt>
      <trkpt lat="48.62731" lon="7.18052">
        <ele>548.4</ele>
        <time>2020-08-12T09:35:42Z</time>
      </trkpt>
      <trkpt lat="48.62732" lon="7.18068">
        <ele>547.1</ele>
        <time>2020-08-12T09:35:44Z</time>
      </trkpt>
      <trkpt lat="48.62733" lon="7.18081">
        <ele>545.9</ele>
        <time>2020-08-12T09:35:46Z</time>
      </trkpt>
      <trkpt lat="48.62737" lon="7.18093">
        <ele>545.2</ele>
        <time>2020-08-12T09:35:48Z</time>
      </trkpt>
      <trkpt lat="48.62742" lon="7.18107">
        <ele>544.1</ele>
        <time>2020-08-12T09:35:50Z</time>
      </trkpt>
      <trkpt lat="48.62745" lon="7.18119">
        <ele>543.7</ele>
        <time>2020-08-12T09:35:52Z</time>
      </trkpt>
      <trkpt lat="48.62746" lon="7.18131">
        <ele>542.7</ele>
        <time>2020-08-12T09:35:54Z</time>
      </trkpt>
      <trkpt lat="48.6275" lon="7.18143">
        <ele>542.4</ele>
        <time>2020-08-12T09:35:56Z</time>
      </trkpt>
      <trkpt lat="48.62755" lon="7.18154">
        <ele>513.5</ele>
        <time>2020-08-12T09:35:58Z</time>
      </trkpt>
      <trkpt lat="48.62757" lon="7.18161">
        <ele>511.6</ele>
        <time>2020-08-12T09:35:59Z</time>
      </trkpt>
      <trkpt lat="48.62759" lon="7.18167">
        <ele>510.1</ele>
        <time>2020-08-12T09:36:00Z</time>
      </trkpt>
      <trkpt lat="48.62763" lon="7.18179">
        <ele>494.7</ele>
        <time>2020-08-12T09:36:02Z</time>
      </trkpt>
      <trkpt lat="48.62768" lon="7.18192">
        <ele>486.7</ele>
        <time>2020-08-12T09:36:04Z</time>
      </trkpt>
      <trkpt lat="48.62773" lon="7.18205">
        <ele>487</ele>
        <time>2020-08-12T09:36:06Z</time>
      </trkpt>
      <trkpt lat="48.62778" lon="7.18222">
        <ele>493.2</ele>
        <time>2020-08-12T09:36:08Z</time>
      </trkpt>
      <trkpt lat="48.62783" lon="7.1824">
        <ele>498.4</ele>
        <time>2020-08-12T09:36:10Z</time>
      </trkpt>
      <trkpt lat="48.62793" lon="7.18256">
        <ele>506.7</ele>
        <time>2020-08-12T09:36:12Z</time>
      </trkpt>
      <trkpt lat="48.62804" lon="7.18271">
        <ele>493.8</ele>
        <time>2020-08-12T09:36:14Z</time>
      </trkpt>
      <trkpt lat="48.62814" lon="7.18284">
        <ele>489.2</ele>
        <time>2020-08-12T09:36:16Z</time>
      </trkpt>
      <trkpt lat="48.62824" lon="7.18294">
        <ele>496.9</ele>
        <time>2020-08-12T09:36:18Z</time>
      </trkpt>
      <trkpt lat="48.62832" lon="7.18303">
        <ele>505</ele>
        <time>2020-08-12T09:36:20Z</time>
      </trkpt>
      <trkpt lat="48.62837" lon="7.18308">
        <ele>497.6</ele>
        <time>2020-08-12T09:36:22Z</time>
      </trkpt>
      <trkpt lat="48.62842" lon="7.18312">
        <ele>488.7</ele>
        <time>2020-08-12T09:36:24Z</time>
      </trkpt>
      <trkpt lat="48.62847" lon="7.18318">
        <ele>496</ele>
        <time>2020-08-12T09:36:26Z</time>
      </trkpt>
      <trkpt lat="48.62853" lon="7.18326">
        <ele>503.6</ele>
        <time>2020-08-12T09:36:28Z</time>
      </trkpt>
      <trkpt lat="48.62861" lon="7.18338">
        <ele>510.5</ele>
        <time>2020-08-12T09:36:30Z</time>
      </trkpt>
      <trkpt lat="48.62868" lon="7.18345">
        <ele>516.6</ele>
        <time>2020-08-12T09:36:32Z</time>
      </trkpt>
      <trkpt lat="48.62872" lon="7.1835">
        <ele>524.2</ele>
        <time>2020-08-12T09:36:35Z</time>
      </trkpt>
      <trkpt lat="48.62876" lon="7.18342">
        <ele>535.5</ele>
        <time>2020-08-12T09:36:58Z</time>
      </trkpt>
      <trkpt lat="48.62878" lon="7.18335">
        <ele>536</ele>
        <time>2020-08-12T09:37:00Z</time>
      </trkpt>
      <trkpt lat="48.62879" lon="7.18326">
        <ele>536.3</ele>
        <time>2020-08-12T09:37:02Z</time>
      </trkpt>
      <trkpt lat="48.6288" lon="7.18319">
        <ele>536.8</ele>
        <time>2020-08-12T09:37:04Z</time>
      </trkpt>
      <trkpt lat="48.62879" lon="7.18311">
        <ele>540.1</ele>
        <time>2020-08-12T09:37:20Z</time>
      </trkpt>
      <trkpt lat="48.62876" lon="7.18304">
        <ele>540.5</ele>
        <time>2020-08-12T09:37:23Z</time>
      </trkpt>
      <trkpt lat="48.62875" lon="7.18294">
        <ele>540.5</ele>
        <time>2020-08-12T09:37:26Z</time>
      </trkpt>
      <trkpt lat="48.62875" lon="7.18285">
        <ele>540.7</ele>
        <time>2020-08-12T09:37:28Z</time>
      </trkpt>
      <trkpt lat="48.62875" lon="7.18274">
        <ele>541.5</ele>
        <time>2020-08-12T09:37:30Z</time>
      </trkpt>
      <trkpt lat="48.62875" lon="7.18262">
        <ele>541.7</ele>
        <time>2020-08-12T09:37:32Z</time>
      </trkpt>
      <trkpt lat="48.62875" lon="7.18251">
        <ele>530.5</ele>
        <time>2020-08-12T09:37:34Z</time>
      </trkpt>
      <trkpt lat="48.62875" lon="7.18239">
        <ele>525.5</ele>
        <time>2020-08-12T09:37:36Z</time>
      </trkpt>
      <trkpt lat="48.62876" lon="7.18222">
        <ele>524.6</ele>
        <time>2020-08-12T09:37:38Z</time>
      </trkpt>
      <trkpt lat="48.62879" lon="7.18205">
        <ele>526</ele>
        <time>2020-08-12T09:37:40Z</time>
      </trkpt>
      <trkpt lat="48.6288" lon="7.18191">
        <ele>527.8</ele>
        <time>2020-08-12T09:37:42Z</time>
      </trkpt>
      <trkpt lat="48.62879" lon="7.18178">
        <ele>529</ele>
        <time>2020-08-12T09:37:44Z</time>
      </trkpt>
      <trkpt lat="48.62877" lon="7.18168">
        <ele>530.6</ele>
        <time>2020-08-12T09:37:46Z</time>
      </trkpt>
      <trkpt lat="48.62879" lon="7.18156">
        <ele>531.7</ele>
        <time>2020-08-12T09:37:48Z</time>
      </trkpt>
      <trkpt lat="48.62884" lon="7.18142">
        <ele>532.6</ele>
        <time>2020-08-12T09:37:50Z</time>
      </trkpt>
      <trkpt lat="48.62888" lon="7.18129">
        <ele>533.9</ele>
        <time>2020-08-12T09:37:52Z</time>
      </trkpt>
      <trkpt lat="48.62891" lon="7.18117">
        <ele>535.2</ele>
        <time>2020-08-12T09:37:54Z</time>
      </trkpt>
      <trkpt lat="48.62894" lon="7.18106">
        <ele>536</ele>
        <time>2020-08-12T09:37:56Z</time>
      </trkpt>
      <trkpt lat="48.62895" lon="7.18097">
        <ele>536.3</ele>
        <time>2020-08-12T09:37:58Z</time>
      </trkpt>
      <trkpt lat="48.62897" lon="7.18087">
        <ele>537.1</ele>
        <time>2020-08-12T09:38:00Z</time>
      </trkpt>
      <trkpt lat="48.62898" lon="7.18075">
        <ele>537.7</ele>
        <time>2020-08-12T09:38:02Z</time>
      </trkpt>
      <trkpt lat="48.62901" lon="7.1806">
        <ele>537</ele>
        <time>2020-08-12T09:38:04Z</time>
      </trkpt>
      <trkpt lat="48.62905" lon="7.18043">
        <ele>535.5</ele>
        <time>2020-08-12T09:38:06Z</time>
      </trkpt>
      <trkpt lat="48.6291" lon="7.18024">
        <ele>534.3</ele>
        <time>2020-08-12T09:38:08Z</time>
      </trkpt>
      <trkpt lat="48.62915" lon="7.1801">
        <ele>533.5</ele>
        <time>2020-08-12T09:38:10Z</time>
      </trkpt>
      <trkpt lat="48.62921" lon="7.17996">
        <ele>533.4</ele>
        <time>2020-08-12T09:38:12Z</time>
      </trkpt>
      <trkpt lat="48.62926" lon="7.17983">
        <ele>516.6</ele>
        <time>2020-08-12T09:38:14Z</time>
      </trkpt>
      <trkpt lat="48.62933" lon="7.1797">
        <ele>514.1</ele>
        <time>2020-08-12T09:38:16Z</time>
      </trkpt>
      <trkpt lat="48.62938" lon="7.17958">
        <ele>504.7</ele>
        <time>2020-08-12T09:38:18Z</time>
      </trkpt>
      <trkpt lat="48.6294" lon="7.17944">
        <ele>504.7</ele>
        <time>2020-08-12T09:38:20Z</time>
      </trkpt>
      <trkpt lat="48.62946" lon="7.17934">
        <ele>508.3</ele>
        <time>2020-08-12T09:38:22Z</time>
      </trkpt>
      <trkpt lat="48.62951" lon="7.17924">
        <ele>511.4</ele>
        <time>2020-08-12T09:38:24Z</time>
      </trkpt>
      <trkpt lat="48.62955" lon="7.17914">
        <ele>514.6</ele>
        <time>2020-08-12T09:38:26Z</time>
      </trkpt>
      <trkpt lat="48.6296" lon="7.17903">
        <ele>517.2</ele>
        <time>2020-08-12T09:38:28Z</time>
      </trkpt>
      <trkpt lat="48.62964" lon="7.17892">
        <ele>510.5</ele>
        <time>2020-08-12T09:38:30Z</time>
      </trkpt>
      <trkpt lat="48.62973" lon="7.1788">
        <ele>514</ele>
        <time>2020-08-12T09:38:32Z</time>
      </trkpt>
      <trkpt lat="48.62983" lon="7.17868">
        <ele>516.7</ele>
        <time>2020-08-12T09:38:34Z</time>
      </trkpt>
      <trkpt lat="48.62992" lon="7.17854">
        <ele>518.5</ele>
        <time>2020-08-12T09:38:36Z</time>
      </trkpt>
      <trkpt lat="48.63" lon="7.17837">
        <ele>520.4</ele>
        <time>2020-08-12T09:38:38Z</time>
      </trkpt>
      <trkpt lat="48.63008" lon="7.1782">
        <ele>521.6</ele>
        <time>2020-08-12T09:38:40Z</time>
      </trkpt>
      <trkpt lat="48.63016" lon="7.17806">
        <ele>522.5</ele>
        <time>2020-08-12T09:38:42Z</time>
      </trkpt>
      <trkpt lat="48.63026" lon="7.17794">
        <ele>522.8</ele>
        <time>2020-08-12T09:38:44Z</time>
      </trkpt>
      <trkpt lat="48.63033" lon="7.17782">
        <ele>524.3</ele>
        <time>2020-08-12T09:38:46Z</time>
      </trkpt>
      <trkpt lat="48.6304" lon="7.17767">
        <ele>525.8</ele>
        <time>2020-08-12T09:38:48Z</time>
      </trkpt>
      <trkpt lat="48.63047" lon="7.1775">
        <ele>526.6</ele>
        <time>2020-08-12T09:38:50Z</time>
      </trkpt>
      <trkpt lat="48.63054" lon="7.17735">
        <ele>528.1</ele>
        <time>2020-08-12T09:38:52Z</time>
      </trkpt>
      <trkpt lat="48.63061" lon="7.17721">
        <ele>528.8</ele>
        <time>2020-08-12T09:38:54Z</time>
      </trkpt>
      <trkpt lat="48.63068" lon="7.17711">
        <ele>528.7</ele>
        <time>2020-08-12T09:38:56Z</time>
      </trkpt>
      <trkpt lat="48.63077" lon="7.17701">
        <ele>529.3</ele>
        <time>2020-08-12T09:38:58Z</time>
      </trkpt>
      <trkpt lat="48.63083" lon="7.17691">
        <ele>528.3</ele>
        <time>2020-08-12T09:39:00Z</time>
      </trkpt>
      <trkpt lat="48.63086" lon="7.17685">
        <ele>528.5</ele>
        <time>2020-08-12T09:39:02Z</time>
      </trkpt>
      <trkpt lat="48.6309" lon="7.1768">
        <ele>529.5</ele>
        <time>2020-08-12T09:39:07Z</time>
      </trkpt>
      <trkpt lat="48.63093" lon="7.17673">
        <ele>530.4</ele>
        <time>2020-08-12T09:39:37Z</time>
      </trkpt>
      <trkpt lat="48.63099" lon="7.17668">
        <ele>529.8</ele>
        <time>2020-08-12T09:39:40Z</time>
      </trkpt>
      <trkpt lat="48.63102" lon="7.17663">
        <ele>531.4</ele>
        <time>2020-08-12T09:39:50Z</time>
      </trkpt>
      <trkpt lat="48.63107" lon="7.17659">
        <ele>531.7</ele>
        <time>2020-08-12T09:39:53Z</time>
      </trkpt>
      <trkpt lat="48.6311" lon="7.17654">
        <ele>532.6</ele>
        <time>2020-08-12T09:39:55Z</time>
      </trkpt>
      <trkpt lat="48.63114" lon="7.17647">
        <ele>532.2</ele>
        <time>2020-08-12T09:39:57Z</time>
      </trkpt>
      <trkpt lat="48.63119" lon="7.17638">
        <ele>532.8</ele>
        <time>2020-08-12T09:39:59Z</time>
      </trkpt>
      <trkpt lat="48.63124" lon="7.1763">
        <ele>533.3</ele>
        <time>2020-08-12T09:40:01Z</time>
      </trkpt>
      <trkpt lat="48.63131" lon="7.17624">
        <ele>533.9</ele>
        <time>2020-08-12T09:40:03Z</time>
      </trkpt>
      <trkpt lat="48.63136" lon="7.17619">
        <ele>534.5</ele>
        <time>2020-08-12T09:40:05Z</time>
      </trkpt>
      <trkpt lat="48.63141" lon="7.17615">
        <ele>534</ele>
        <time>2020-08-12T09:40:07Z</time>
      </trkpt>
      <trkpt lat="48.63145" lon="7.1761">
        <ele>533.2</ele>
        <time>2020-08-12T09:40:12Z</time>
      </trkpt>
      <trkpt lat="48.63152" lon="7.17606">
        <ele>532.6</ele>
        <time>2020-08-12T09:40:15Z</time>
      </trkpt>
      <trkpt lat="48.63158" lon="7.17602">
        <ele>532.7</ele>
        <time>2020-08-12T09:40:17Z</time>
      </trkpt>
      <trkpt lat="48.63165" lon="7.17599">
        <ele>532.5</ele>
        <time>2020-08-12T09:40:19Z</time>
      </trkpt>
      <trkpt lat="48.63172" lon="7.17596">
        <ele>532.2</ele>
        <time>2020-08-12T09:40:21Z</time>
      </trkpt>
      <trkpt lat="48.63178" lon="7.17592">
        <ele>531.8</ele>
        <time>2020-08-12T09:40:23Z</time>
      </trkpt>
      <trkpt lat="48.63184" lon="7.17587">
        <ele>532.4</ele>
        <time>2020-08-12T09:40:25Z</time>
      </trkpt>
      <trkpt lat="48.63192" lon="7.17582">
        <ele>532.5</ele>
        <time>2020-08-12T09:40:27Z</time>
      </trkpt>
      <trkpt lat="48.632" lon="7.17578">
        <ele>532.6</ele>
        <time>2020-08-12T09:40:29Z</time>
      </trkpt>
      <trkpt lat="48.63208" lon="7.17574">
        <ele>532.2</ele>
        <time>2020-08-12T09:40:31Z</time>
      </trkpt>
      <trkpt lat="48.63217" lon="7.17573">
        <ele>532.3</ele>
        <time>2020-08-12T09:40:33Z</time>
      </trkpt>
      <trkpt lat="48.63224" lon="7.17572">
        <ele>532.3</ele>
        <time>2020-08-12T09:40:35Z</time>
      </trkpt>
      <trkpt lat="48.63232" lon="7.17573">
        <ele>532.4</ele>
        <time>2020-08-12T09:40:37Z</time>
      </trkpt>
      <trkpt lat="48.6324" lon="7.17575">
        <ele>532.4</ele>
        <time>2020-08-12T09:40:39Z</time>
      </trkpt>
      <trkpt lat="48.63249" lon="7.17577">
        <ele>532.7</ele>
        <time>2020-08-12T09:40:41Z</time>
      </trkpt>
      <trkpt lat="48.63255" lon="7.17577">
        <ele>532.9</ele>
        <time>2020-08-12T09:40:43Z</time>
      </trkpt>
      <trkpt lat="48.6326" lon="7.17579">
        <ele>533.2</ele>
        <time>2020-08-12T09:40:48Z</time>
      </trkpt>
      <trkpt lat="48.63263" lon="7.17583">
        <ele>531</ele>
        <time>2020-08-12T09:40:56Z</time>
      </trkpt>
      <trkpt lat="48.63268" lon="7.17588">
        <ele>530.8</ele>
        <time>2020-08-12T09:41:00Z</time>
      </trkpt>
      <trkpt lat="48.63274" lon="7.17592">
        <ele>530.8</ele>
        <time>2020-08-12T09:41:03Z</time>
      </trkpt>
      <trkpt lat="48.63279" lon="7.17595">
        <ele>530.4</ele>
        <time>2020-08-12T09:41:05Z</time>
      </trkpt>
      <trkpt lat="48.63285" lon="7.17598">
        <ele>530.8</ele>
        <time>2020-08-12T09:41:07Z</time>
      </trkpt>
      <trkpt lat="48.6329" lon="7.17599">
        <ele>530.7</ele>
        <time>2020-08-12T09:41:09Z</time>
      </trkpt>
      <trkpt lat="48.63296" lon="7.17602">
        <ele>530.6</ele>
        <time>2020-08-12T09:41:11Z</time>
      </trkpt>
      <trkpt lat="48.63301" lon="7.17606">
        <ele>530.2</ele>
        <time>2020-08-12T09:41:13Z</time>
      </trkpt>
      <trkpt lat="48.63307" lon="7.17611">
        <ele>529.4</ele>
        <time>2020-08-12T09:41:15Z</time>
      </trkpt>
      <trkpt lat="48.63313" lon="7.17616">
        <ele>528.4</ele>
        <time>2020-08-12T09:41:17Z</time>
      </trkpt>
      <trkpt lat="48.6332" lon="7.17621">
        <ele>527.5</ele>
        <time>2020-08-12T09:41:19Z</time>
      </trkpt>
      <trkpt lat="48.63328" lon="7.17627">
        <ele>527</ele>
        <time>2020-08-12T09:41:21Z</time>
      </trkpt>
      <trkpt lat="48.63336" lon="7.17634">
        <ele>526.6</ele>
        <time>2020-08-12T09:41:23Z</time>
      </trkpt>
      <trkpt lat="48.63343" lon="7.17639">
        <ele>526.3</ele>
        <time>2020-08-12T09:41:25Z</time>
      </trkpt>
      <trkpt lat="48.6335" lon="7.17645">
        <ele>525.5</ele>
        <time>2020-08-12T09:41:27Z</time>
      </trkpt>
      <trkpt lat="48.63357" lon="7.17651">
        <ele>524.7</ele>
        <time>2020-08-12T09:41:29Z</time>
      </trkpt>
      <trkpt lat="48.63364" lon="7.1766">
        <ele>523.7</ele>
        <time>2020-08-12T09:41:31Z</time>
      </trkpt>
      <trkpt lat="48.63371" lon="7.17669">
        <ele>522.9</ele>
        <time>2020-08-12T09:41:33Z</time>
      </trkpt>
      <trkpt lat="48.63378" lon="7.17678">
        <ele>522.2</ele>
        <time>2020-08-12T09:41:35Z</time>
      </trkpt>
      <trkpt lat="48.63385" lon="7.17685">
        <ele>521.8</ele>
        <time>2020-08-12T09:41:38Z</time>
      </trkpt>
      <trkpt lat="48.63393" lon="7.17696">
        <ele>522</ele>
        <time>2020-08-12T09:41:40Z</time>
      </trkpt>
      <trkpt lat="48.63408" lon="7.17711">
        <ele>522.4</ele>
        <time>2020-08-12T09:41:43Z</time>
      </trkpt>
      <trkpt lat="48.63415" lon="7.17721">
        <ele>522.4</ele>
        <time>2020-08-12T09:41:45Z</time>
      </trkpt>
      <trkpt lat="48.63426" lon="7.17736">
        <ele>522.4</ele>
        <time>2020-08-12T09:41:48Z</time>
      </trkpt>
      <trkpt lat="48.63433" lon="7.17744">
        <ele>522.1</ele>
        <time>2020-08-12T09:41:50Z</time>
      </trkpt>
      <trkpt lat="48.63439" lon="7.17753">
        <ele>522.1</ele>
        <time>2020-08-12T09:41:52Z</time>
      </trkpt>
      <trkpt lat="48.63447" lon="7.17762">
        <ele>521.8</ele>
        <time>2020-08-12T09:41:55Z</time>
      </trkpt>
      <trkpt lat="48.63451" lon="7.17766">
        <ele>522.3</ele>
        <time>2020-08-12T09:41:58Z</time>
      </trkpt>
      <trkpt lat="48.63455" lon="7.1777">
        <ele>527.2</ele>
        <time>2020-08-12T09:42:13Z</time>
      </trkpt>
      <trkpt lat="48.63459" lon="7.17776">
        <ele>528.2</ele>
        <time>2020-08-12T09:42:27Z</time>
      </trkpt>
      <trkpt lat="48.63464" lon="7.1778">
        <ele>528.1</ele>
        <time>2020-08-12T09:42:30Z</time>
      </trkpt>
      <trkpt lat="48.63469" lon="7.17786">
        <ele>528.1</ele>
        <time>2020-08-12T09:42:32Z</time>
      </trkpt>
      <trkpt lat="48.63477" lon="7.17799">
        <ele>527.6</ele>
        <time>2020-08-12T09:42:35Z</time>
      </trkpt>
      <trkpt lat="48.63482" lon="7.17809">
        <ele>527.8</ele>
        <time>2020-08-12T09:42:37Z</time>
      </trkpt>
      <trkpt lat="48.63488" lon="7.17818">
        <ele>527.7</ele>
        <time>2020-08-12T09:42:39Z</time>
      </trkpt>
      <trkpt lat="48.63493" lon="7.17827">
        <ele>528.3</ele>
        <time>2020-08-12T09:42:41Z</time>
      </trkpt>
      <trkpt lat="48.63499" lon="7.17836">
        <ele>528.8</ele>
        <time>2020-08-12T09:42:43Z</time>
      </trkpt>
      <trkpt lat="48.63506" lon="7.17849">
        <ele>529.1</ele>
        <time>2020-08-12T09:42:46Z</time>
      </trkpt>
      <trkpt lat="48.63511" lon="7.17859">
        <ele>529.2</ele>
        <time>2020-08-12T09:42:48Z</time>
      </trkpt>
      <trkpt lat="48.63515" lon="7.17867">
        <ele>529.3</ele>
        <time>2020-08-12T09:42:50Z</time>
      </trkpt>
      <trkpt lat="48.63519" lon="7.17875">
        <ele>529.2</ele>
        <time>2020-08-12T09:42:52Z</time>
      </trkpt>
      <trkpt lat="48.63523" lon="7.17885">
        <ele>528.9</ele>
        <time>2020-08-12T09:42:54Z</time>
      </trkpt>
      <trkpt lat="48.63529" lon="7.17894">
        <ele>528.5</ele>
        <time>2020-08-12T09:42:56Z</time>
      </trkpt>
      <trkpt lat="48.63536" lon="7.17903">
        <ele>528.5</ele>
        <time>2020-08-12T09:42:58Z</time>
      </trkpt>
      <trkpt lat="48.63544" lon="7.17912">
        <ele>528.2</ele>
        <time>2020-08-12T09:43:00Z</time>
      </trkpt>
      <trkpt lat="48.63549" lon="7.17922">
        <ele>528</ele>
        <time>2020-08-12T09:43:02Z</time>
      </trkpt>
      <trkpt lat="48.63558" lon="7.17937">
        <ele>527.1</ele>
        <time>2020-08-12T09:43:05Z</time>
      </trkpt>
      <trkpt lat="48.63563" lon="7.17946">
        <ele>526.8</ele>
        <time>2020-08-12T09:43:07Z</time>
      </trkpt>
      <trkpt lat="48.63569" lon="7.17954">
        <ele>526.9</ele>
        <time>2020-08-12T09:43:09Z</time>
      </trkpt>
      <trkpt lat="48.63573" lon="7.17959">
        <ele>527.1</ele>
        <time>2020-08-12T09:43:12Z</time>
      </trkpt>
      <trkpt lat="48.63578" lon="7.1796">
        <ele>527.8</ele>
        <time>2020-08-12T09:43:33Z</time>
      </trkpt>
      <trkpt lat="48.6358" lon="7.17968">
        <ele>527.5</ele>
        <time>2020-08-12T09:43:36Z</time>
      </trkpt>
      <trkpt lat="48.63582" lon="7.17974">
        <ele>527.4</ele>
        <time>2020-08-12T09:43:38Z</time>
      </trkpt>
      <trkpt lat="48.63583" lon="7.17982">
        <ele>527.8</ele>
        <time>2020-08-12T09:43:41Z</time>
      </trkpt>
      <trkpt lat="48.63585" lon="7.17989">
        <ele>528.3</ele>
        <time>2020-08-12T09:43:43Z</time>
      </trkpt>
      <trkpt lat="48.63591" lon="7.18003">
        <ele>528.7</ele>
        <time>2020-08-12T09:43:46Z</time>
      </trkpt>
      <trkpt lat="48.63599" lon="7.18013">
        <ele>529.2</ele>
        <time>2020-08-12T09:43:48Z</time>
      </trkpt>
      <trkpt lat="48.63605" lon="7.18022">
        <ele>529.6</ele>
        <time>2020-08-12T09:43:50Z</time>
      </trkpt>
      <trkpt lat="48.63609" lon="7.18033">
        <ele>530.3</ele>
        <time>2020-08-12T09:43:52Z</time>
      </trkpt>
      <trkpt lat="48.63613" lon="7.18042">
        <ele>530.7</ele>
        <time>2020-08-12T09:43:54Z</time>
      </trkpt>
      <trkpt lat="48.63617" lon="7.18052">
        <ele>531.5</ele>
        <time>2020-08-12T09:43:56Z</time>
      </trkpt>
      <trkpt lat="48.63621" lon="7.18062">
        <ele>531.5</ele>
        <time>2020-08-12T09:43:58Z</time>
      </trkpt>
      <trkpt lat="48.63624" lon="7.18072">
        <ele>531.8</ele>
        <time>2020-08-12T09:44:00Z</time>
      </trkpt>
      <trkpt lat="48.63627" lon="7.18082">
        <ele>531.4</ele>
        <time>2020-08-12T09:44:02Z</time>
      </trkpt>
      <trkpt lat="48.6363" lon="7.18091">
        <ele>531.6</ele>
        <time>2020-08-12T09:44:04Z</time>
      </trkpt>
      <trkpt lat="48.63636" lon="7.18105">
        <ele>530.7</ele>
        <time>2020-08-12T09:44:07Z</time>
      </trkpt>
      <trkpt lat="48.6364" lon="7.18114">
        <ele>530.2</ele>
        <time>2020-08-12T09:44:09Z</time>
      </trkpt>
      <trkpt lat="48.63643" lon="7.18121">
        <ele>529.7</ele>
        <time>2020-08-12T09:44:11Z</time>
      </trkpt>
      <trkpt lat="48.63646" lon="7.18126">
        <ele>529.4</ele>
        <time>2020-08-12T09:44:13Z</time>
      </trkpt>
      <trkpt lat="48.63648" lon="7.18133">
        <ele>528.7</ele>
        <time>2020-08-12T09:44:15Z</time>
      </trkpt>
      <trkpt lat="48.63651" lon="7.1814">
        <ele>528.3</ele>
        <time>2020-08-12T09:44:17Z</time>
      </trkpt>
      <trkpt lat="48.63654" lon="7.18146">
        <ele>527.7</ele>
        <time>2020-08-12T09:44:19Z</time>
      </trkpt>
      <trkpt lat="48.63663" lon="7.18156">
        <ele>527.7</ele>
        <time>2020-08-12T09:44:22Z</time>
      </trkpt>
      <trkpt lat="48.63668" lon="7.18162">
        <ele>528.2</ele>
        <time>2020-08-12T09:44:24Z</time>
      </trkpt>
      <trkpt lat="48.63671" lon="7.18168">
        <ele>528.8</ele>
        <time>2020-08-12T09:44:27Z</time>
      </trkpt>
      <trkpt lat="48.63673" lon="7.18175">
        <ele>529.3</ele>
        <time>2020-08-12T09:44:32Z</time>
      </trkpt>
      <trkpt lat="48.63676" lon="7.18183">
        <ele>529.4</ele>
        <time>2020-08-12T09:44:35Z</time>
      </trkpt>
      <trkpt lat="48.63679" lon="7.1819">
        <ele>529.5</ele>
        <time>2020-08-12T09:44:38Z</time>
      </trkpt>
      <trkpt lat="48.63682" lon="7.18194">
        <ele>530.4</ele>
        <time>2020-08-12T09:45:13Z</time>
      </trkpt>
      <trkpt lat="48.63687" lon="7.18197">
        <ele>530.2</ele>
        <time>2020-08-12T09:45:18Z</time>
      </trkpt>
      <trkpt lat="48.6369" lon="7.18202">
        <ele>529</ele>
        <time>2020-08-12T09:45:20Z</time>
      </trkpt>
      <trkpt lat="48.63695" lon="7.18211">
        <ele>528.1</ele>
        <time>2020-08-12T09:45:22Z</time>
      </trkpt>
      <trkpt lat="48.637" lon="7.1822">
        <ele>526.9</ele>
        <time>2020-08-12T09:45:24Z</time>
      </trkpt>
      <trkpt lat="48.63704" lon="7.18229">
        <ele>526.4</ele>
        <time>2020-08-12T09:45:26Z</time>
      </trkpt>
      <trkpt lat="48.63708" lon="7.18239">
        <ele>525.3</ele>
        <time>2020-08-12T09:45:28Z</time>
      </trkpt>
      <trkpt lat="48.63711" lon="7.18251">
        <ele>514.8</ele>
        <time>2020-08-12T09:45:30Z</time>
      </trkpt>
      <trkpt lat="48.63714" lon="7.18262">
        <ele>507.4</ele>
        <time>2020-08-12T09:45:32Z</time>
      </trkpt>
      <trkpt lat="48.63717" lon="7.18275">
        <ele>509.2</ele>
        <time>2020-08-12T09:45:34Z</time>
      </trkpt>
      <trkpt lat="48.63721" lon="7.18287">
        <ele>510</ele>
        <time>2020-08-12T09:45:36Z</time>
      </trkpt>
      <trkpt lat="48.63724" lon="7.18299">
        <ele>512.2</ele>
        <time>2020-08-12T09:45:38Z</time>
      </trkpt>
      <trkpt lat="48.63726" lon="7.18311">
        <ele>513.3</ele>
        <time>2020-08-12T09:45:40Z</time>
      </trkpt>
      <trkpt lat="48.63726" lon="7.18323">
        <ele>514.3</ele>
        <time>2020-08-12T09:45:42Z</time>
      </trkpt>
      <trkpt lat="48.63727" lon="7.18334">
        <ele>516.3</ele>
        <time>2020-08-12T09:45:44Z</time>
      </trkpt>
      <trkpt lat="48.63729" lon="7.18344">
        <ele>516.6</ele>
        <time>2020-08-12T09:45:46Z</time>
      </trkpt>
      <trkpt lat="48.63732" lon="7.1835">
        <ele>516.9</ele>
        <time>2020-08-12T09:45:48Z</time>
      </trkpt>
      <trkpt lat="48.63734" lon="7.18357">
        <ele>517.9</ele>
        <time>2020-08-12T09:45:53Z</time>
      </trkpt>
      <trkpt lat="48.63739" lon="7.18361">
        <ele>518.8</ele>
        <time>2020-08-12T09:45:59Z</time>
      </trkpt>
      <trkpt lat="48.63743" lon="7.18363">
        <ele>518.9</ele>
        <time>2020-08-12T09:46:01Z</time>
      </trkpt>
      <trkpt lat="48.63749" lon="7.18365">
        <ele>519.1</ele>
        <time>2020-08-12T09:46:03Z</time>
      </trkpt>
      <trkpt lat="48.63754" lon="7.18369">
        <ele>518.7</ele>
        <time>2020-08-12T09:46:05Z</time>
      </trkpt>
      <trkpt lat="48.63759" lon="7.18372">
        <ele>518.5</ele>
        <time>2020-08-12T09:46:07Z</time>
      </trkpt>
      <trkpt lat="48.63764" lon="7.18375">
        <ele>518.2</ele>
        <time>2020-08-12T09:46:09Z</time>
      </trkpt>
      <trkpt lat="48.63772" lon="7.18376">
        <ele>517.6</ele>
        <time>2020-08-12T09:46:11Z</time>
      </trkpt>
      <trkpt lat="48.63778" lon="7.18375">
        <ele>516.6</ele>
        <time>2020-08-12T09:46:13Z</time>
      </trkpt>
      <trkpt lat="48.63785" lon="7.1837">
        <ele>515.4</ele>
        <time>2020-08-12T09:46:15Z</time>
      </trkpt>
      <trkpt lat="48.63794" lon="7.18361">
        <ele>513.8</ele>
        <time>2020-08-12T09:46:17Z</time>
      </trkpt>
      <trkpt lat="48.63803" lon="7.18354">
        <ele>512.4</ele>
        <time>2020-08-12T09:46:19Z</time>
      </trkpt>
      <trkpt lat="48.63811" lon="7.18349">
        <ele>511.6</ele>
        <time>2020-08-12T09:46:21Z</time>
      </trkpt>
      <trkpt lat="48.63817" lon="7.18342">
        <ele>510.9</ele>
        <time>2020-08-12T09:46:23Z</time>
      </trkpt>
      <trkpt lat="48.63824" lon="7.18337">
        <ele>510.1</ele>
        <time>2020-08-12T09:46:25Z</time>
      </trkpt>
      <trkpt lat="48.63831" lon="7.18334">
        <ele>510.7</ele>
        <time>2020-08-12T09:46:27Z</time>
      </trkpt>
      <trkpt lat="48.63836" lon="7.18332">
        <ele>510.9</ele>
        <time>2020-08-12T09:46:29Z</time>
      </trkpt>
      <trkpt lat="48.63845" lon="7.18332">
        <ele>510.7</ele>
        <time>2020-08-12T09:46:31Z</time>
      </trkpt>
      <trkpt lat="48.63856" lon="7.18334">
        <ele>510.1</ele>
        <time>2020-08-12T09:46:33Z</time>
      </trkpt>
      <trkpt lat="48.63867" lon="7.18336">
        <ele>509.1</ele>
        <time>2020-08-12T09:46:35Z</time>
      </trkpt>
      <trkpt lat="48.63877" lon="7.18338">
        <ele>508.9</ele>
        <time>2020-08-12T09:46:37Z</time>
      </trkpt>
      <trkpt lat="48.63889" lon="7.18342">
        <ele>508.2</ele>
        <time>2020-08-12T09:46:39Z</time>
      </trkpt>
      <trkpt lat="48.639" lon="7.18344">
        <ele>507.5</ele>
        <time>2020-08-12T09:46:41Z</time>
      </trkpt>
      <trkpt lat="48.63909" lon="7.18346">
        <ele>507</ele>
        <time>2020-08-12T09:46:43Z</time>
      </trkpt>
      <trkpt lat="48.63914" lon="7.18347">
        <ele>506.7</ele>
        <time>2020-08-12T09:46:46Z</time>
      </trkpt>
      <trkpt lat="48.63917" lon="7.18354">
        <ele>505.4</ele>
        <time>2020-08-12T09:46:52Z</time>
      </trkpt>
      <trkpt lat="48.63914" lon="7.18364">
        <ele>505.6</ele>
        <time>2020-08-12T09:46:55Z</time>
      </trkpt>
      <trkpt lat="48.6391" lon="7.18372">
        <ele>505.6</ele>
        <time>2020-08-12T09:46:57Z</time>
      </trkpt>
      <trkpt lat="48.63905" lon="7.1838">
        <ele>505.5</ele>
        <time>2020-08-12T09:46:59Z</time>
      </trkpt>
      <trkpt lat="48.639" lon="7.18388">
        <ele>505.8</ele>
        <time>2020-08-12T09:47:01Z</time>
      </trkpt>
      <trkpt lat="48.63896" lon="7.18395">
        <ele>506.1</ele>
        <time>2020-08-12T09:47:03Z</time>
      </trkpt>
      <trkpt lat="48.63894" lon="7.18403">
        <ele>505.5</ele>
        <time>2020-08-12T09:47:05Z</time>
      </trkpt>
      <trkpt lat="48.63897" lon="7.18408">
        <ele>507.8</ele>
        <time>2020-08-12T09:47:16Z</time>
      </trkpt>
      <trkpt lat="48.639" lon="7.18415">
        <ele>508.2</ele>
        <time>2020-08-12T09:47:20Z</time>
      </trkpt>
      <trkpt lat="48.63904" lon="7.18424">
        <ele>508</ele>
        <time>2020-08-12T09:47:22Z</time>
      </trkpt>
      <trkpt lat="48.63908" lon="7.18433">
        <ele>507.7</ele>
        <time>2020-08-12T09:47:24Z</time>
      </trkpt>
      <trkpt lat="48.63913" lon="7.18443">
        <ele>506.9</ele>
        <time>2020-08-12T09:47:27Z</time>
      </trkpt>
      <trkpt lat="48.63917" lon="7.18448">
        <ele>505.9</ele>
        <time>2020-08-12T09:47:33Z</time>
      </trkpt>
      <trkpt lat="48.63921" lon="7.18456">
        <ele>503.1</ele>
        <time>2020-08-12T09:47:38Z</time>
      </trkpt>
      <trkpt lat="48.6393" lon="7.18462">
        <ele>501.6</ele>
        <time>2020-08-12T09:47:40Z</time>
      </trkpt>
      <trkpt lat="48.6394" lon="7.18468">
        <ele>501.2</ele>
        <time>2020-08-12T09:47:42Z</time>
      </trkpt>
      <trkpt lat="48.6395" lon="7.18477">
        <ele>500.9</ele>
        <time>2020-08-12T09:47:44Z</time>
      </trkpt>
      <trkpt lat="48.63965" lon="7.18489">
        <ele>500.5</ele>
        <time>2020-08-12T09:47:47Z</time>
      </trkpt>
      <trkpt lat="48.63974" lon="7.18497">
        <ele>500.5</ele>
        <time>2020-08-12T09:47:49Z</time>
      </trkpt>
      <trkpt lat="48.63983" lon="7.18504">
        <ele>500.6</ele>
        <time>2020-08-12T09:47:51Z</time>
      </trkpt>
      <trkpt lat="48.63992" lon="7.18509">
        <ele>500.4</ele>
        <time>2020-08-12T09:47:53Z</time>
      </trkpt>
      <trkpt lat="48.64" lon="7.18515">
        <ele>500.2</ele>
        <time>2020-08-12T09:47:55Z</time>
      </trkpt>
      <trkpt lat="48.64008" lon="7.1852">
        <ele>500</ele>
        <time>2020-08-12T09:47:57Z</time>
      </trkpt>
      <trkpt lat="48.64018" lon="7.18527">
        <ele>501.2</ele>
        <time>2020-08-12T09:48:00Z</time>
      </trkpt>
      <trkpt lat="48.64026" lon="7.18536">
        <ele>498</ele>
        <time>2020-08-12T09:48:02Z</time>
      </trkpt>
      <trkpt lat="48.64034" lon="7.18543">
        <ele>498.8</ele>
        <time>2020-08-12T09:48:04Z</time>
      </trkpt>
      <trkpt lat="48.64041" lon="7.18547">
        <ele>498.8</ele>
        <time>2020-08-12T09:48:06Z</time>
      </trkpt>
      <trkpt lat="48.64048" lon="7.18552">
        <ele>499.8</ele>
        <time>2020-08-12T09:48:08Z</time>
      </trkpt>
      <trkpt lat="48.6406" lon="7.18558">
        <ele>500.4</ele>
        <time>2020-08-12T09:48:11Z</time>
      </trkpt>
      <trkpt lat="48.64068" lon="7.18559">
        <ele>501.5</ele>
        <time>2020-08-12T09:48:13Z</time>
      </trkpt>
      <trkpt lat="48.64074" lon="7.1856">
        <ele>502</ele>
        <time>2020-08-12T09:48:15Z</time>
      </trkpt>
      <trkpt lat="48.64082" lon="7.1856">
        <ele>502.2</ele>
        <time>2020-08-12T09:48:17Z</time>
      </trkpt>
      <trkpt lat="48.6409" lon="7.18559">
        <ele>502.5</ele>
        <time>2020-08-12T09:48:19Z</time>
      </trkpt>
      <trkpt lat="48.64099" lon="7.18556">
        <ele>503.1</ele>
        <time>2020-08-12T09:48:21Z</time>
      </trkpt>
      <trkpt lat="48.64107" lon="7.18553">
        <ele>502.8</ele>
        <time>2020-08-12T09:48:23Z</time>
      </trkpt>
      <trkpt lat="48.64114" lon="7.1855">
        <ele>503.4</ele>
        <time>2020-08-12T09:48:25Z</time>
      </trkpt>
      <trkpt lat="48.6412" lon="7.18547">
        <ele>503.8</ele>
        <time>2020-08-12T09:48:27Z</time>
      </trkpt>
      <trkpt lat="48.64127" lon="7.18544">
        <ele>504.7</ele>
        <time>2020-08-12T09:48:29Z</time>
      </trkpt>
      <trkpt lat="48.64132" lon="7.18542">
        <ele>505.6</ele>
        <time>2020-08-12T09:48:31Z</time>
      </trkpt>
      <trkpt lat="48.64137" lon="7.1854">
        <ele>480.8</ele>
        <time>2020-08-12T09:48:35Z</time>
      </trkpt>
      <trkpt lat="48.64141" lon="7.18538">
        <ele>503.1</ele>
        <time>2020-08-12T09:48:50Z</time>
      </trkpt>
      <trkpt lat="48.64147" lon="7.18537">
        <ele>507.4</ele>
        <time>2020-08-12T09:48:57Z</time>
      </trkpt>
      <trkpt lat="48.64153" lon="7.18534">
        <ele>507.9</ele>
        <time>2020-08-12T09:49:00Z</time>
      </trkpt>
      <trkpt lat="48.64159" lon="7.18531">
        <ele>508.2</ele>
        <time>2020-08-12T09:49:02Z</time>
      </trkpt>
      <trkpt lat="48.64167" lon="7.18528">
        <ele>508.7</ele>
        <time>2020-08-12T09:49:04Z</time>
      </trkpt>
      <trkpt lat="48.64175" lon="7.18526">
        <ele>508.3</ele>
        <time>2020-08-12T09:49:06Z</time>
      </trkpt>
      <trkpt lat="48.64189" lon="7.18522">
        <ele>508.6</ele>
        <time>2020-08-12T09:49:08Z</time>
      </trkpt>
      <trkpt lat="48.64199" lon="7.18518">
        <ele>510.3</ele>
        <time>2020-08-12T09:49:10Z</time>
      </trkpt>
      <trkpt lat="48.64209" lon="7.18518">
        <ele>511.1</ele>
        <time>2020-08-12T09:49:12Z</time>
      </trkpt>
      <trkpt lat="48.6422" lon="7.18526">
        <ele>511.7</ele>
        <time>2020-08-12T09:49:14Z</time>
      </trkpt>
      <trkpt lat="48.64232" lon="7.18535">
        <ele>512.2</ele>
        <time>2020-08-12T09:49:16Z</time>
      </trkpt>
      <trkpt lat="48.64244" lon="7.18547">
        <ele>512.4</ele>
        <time>2020-08-12T09:49:18Z</time>
      </trkpt>
      <trkpt lat="48.64253" lon="7.18558">
        <ele>512.2</ele>
        <time>2020-08-12T09:49:20Z</time>
      </trkpt>
      <trkpt lat="48.64263" lon="7.18572">
        <ele>511.5</ele>
        <time>2020-08-12T09:49:22Z</time>
      </trkpt>
      <trkpt lat="48.6427" lon="7.18588">
        <ele>511.3</ele>
        <time>2020-08-12T09:49:24Z</time>
      </trkpt>
      <trkpt lat="48.64277" lon="7.18607">
        <ele>510.3</ele>
        <time>2020-08-12T09:49:26Z</time>
      </trkpt>
      <trkpt lat="48.64285" lon="7.18626">
        <ele>509.5</ele>
        <time>2020-08-12T09:49:28Z</time>
      </trkpt>
      <trkpt lat="48.64291" lon="7.18644">
        <ele>509</ele>
        <time>2020-08-12T09:49:30Z</time>
      </trkpt>
      <trkpt lat="48.64298" lon="7.1866">
        <ele>507.5</ele>
        <time>2020-08-12T09:49:32Z</time>
      </trkpt>
      <trkpt lat="48.64305" lon="7.18676">
        <ele>506.4</ele>
        <time>2020-08-12T09:49:34Z</time>
      </trkpt>
      <trkpt lat="48.64311" lon="7.1869">
        <ele>505.9</ele>
        <time>2020-08-12T09:49:36Z</time>
      </trkpt>
      <trkpt lat="48.64319" lon="7.18704">
        <ele>504.4</ele>
        <time>2020-08-12T09:49:38Z</time>
      </trkpt>
      <trkpt lat="48.64326" lon="7.18716">
        <ele>503.2</ele>
        <time>2020-08-12T09:49:40Z</time>
      </trkpt>
      <trkpt lat="48.64332" lon="7.18726">
        <ele>502.4</ele>
        <time>2020-08-12T09:49:42Z</time>
      </trkpt>
      <trkpt lat="48.64337" lon="7.18736">
        <ele>502</ele>
        <time>2020-08-12T09:49:44Z</time>
      </trkpt>
      <trkpt lat="48.64343" lon="7.18745">
        <ele>500.8</ele>
        <time>2020-08-12T09:49:46Z</time>
      </trkpt>
      <trkpt lat="48.64349" lon="7.18755">
        <ele>500.5</ele>
        <time>2020-08-12T09:49:48Z</time>
      </trkpt>
      <trkpt lat="48.64354" lon="7.18768">
        <ele>500.2</ele>
        <time>2020-08-12T09:49:50Z</time>
      </trkpt>
      <trkpt lat="48.6436" lon="7.18778">
        <ele>499.8</ele>
        <time>2020-08-12T09:49:52Z</time>
      </trkpt>
      <trkpt lat="48.64366" lon="7.18789">
        <ele>499.7</ele>
        <time>2020-08-12T09:49:54Z</time>
      </trkpt>
      <trkpt lat="48.64372" lon="7.18796">
        <ele>499.6</ele>
        <time>2020-08-12T09:49:56Z</time>
      </trkpt>
      <trkpt lat="48.64378" lon="7.18802">
        <ele>499.7</ele>
        <time>2020-08-12T09:49:58Z</time>
      </trkpt>
      <trkpt lat="48.64384" lon="7.18807">
        <ele>499.9</ele>
        <time>2020-08-12T09:50:00Z</time>
      </trkpt>
      <trkpt lat="48.64392" lon="7.18814">
        <ele>500.2</ele>
        <time>2020-08-12T09:50:02Z</time>
      </trkpt>
      <trkpt lat="48.64398" lon="7.18824">
        <ele>500.1</ele>
        <time>2020-08-12T09:50:04Z</time>
      </trkpt>
      <trkpt lat="48.64405" lon="7.18834">
        <ele>500.2</ele>
        <time>2020-08-12T09:50:06Z</time>
      </trkpt>
      <trkpt lat="48.64411" lon="7.18844">
        <ele>499.9</ele>
        <time>2020-08-12T09:50:08Z</time>
      </trkpt>
      <trkpt lat="48.64416" lon="7.18855">
        <ele>499.1</ele>
        <time>2020-08-12T09:50:10Z</time>
      </trkpt>
      <trkpt lat="48.64419" lon="7.18865">
        <ele>498</ele>
        <time>2020-08-12T09:50:12Z</time>
      </trkpt>
      <trkpt lat="48.64419" lon="7.18873">
        <ele>497.3</ele>
        <time>2020-08-12T09:50:14Z</time>
      </trkpt>
      <trkpt lat="48.64419" lon="7.1888">
        <ele>496.3</ele>
        <time>2020-08-12T09:50:26Z</time>
      </trkpt>
      <trkpt lat="48.64423" lon="7.18884">
        <ele>500</ele>
        <time>2020-08-12T09:50:38Z</time>
      </trkpt>
      <trkpt lat="48.64429" lon="7.1889">
        <ele>500.5</ele>
        <time>2020-08-12T09:50:41Z</time>
      </trkpt>
      <trkpt lat="48.64434" lon="7.18892">
        <ele>501.1</ele>
        <time>2020-08-12T09:50:43Z</time>
      </trkpt>
      <trkpt lat="48.64439" lon="7.18891">
        <ele>501.4</ele>
        <time>2020-08-12T09:50:46Z</time>
      </trkpt>
      <trkpt lat="48.64436" lon="7.18896">
        <ele>503</ele>
        <time>2020-08-12T09:51:01Z</time>
      </trkpt>
      <trkpt lat="48.64431" lon="7.18895">
        <ele>504.5</ele>
        <time>2020-08-12T09:51:08Z</time>
      </trkpt>
      <trkpt lat="48.64427" lon="7.18892">
        <ele>505.4</ele>
        <time>2020-08-12T09:51:12Z</time>
      </trkpt>
      <trkpt lat="48.64424" lon="7.18885">
        <ele>505</ele>
        <time>2020-08-12T09:51:16Z</time>
      </trkpt>
      <trkpt lat="48.64422" lon="7.18879">
        <ele>504.3</ele>
        <time>2020-08-12T09:51:21Z</time>
      </trkpt>
      <trkpt lat="48.6442" lon="7.18871">
        <ele>503.5</ele>
        <time>2020-08-12T09:51:25Z</time>
      </trkpt>
      <trkpt lat="48.64416" lon="7.18863">
        <ele>503.8</ele>
        <time>2020-08-12T09:51:28Z</time>
      </trkpt>
      <trkpt lat="48.64411" lon="7.18856">
        <ele>504</ele>
        <time>2020-08-12T09:51:31Z</time>
      </trkpt>
      <trkpt lat="48.64408" lon="7.18851">
        <ele>503.9</ele>
        <time>2020-08-12T09:51:33Z</time>
      </trkpt>
      <trkpt lat="48.64404" lon="7.18844">
        <ele>503.2</ele>
        <time>2020-08-12T09:51:35Z</time>
      </trkpt>
      <trkpt lat="48.64402" lon="7.18835">
        <ele>502.8</ele>
        <time>2020-08-12T09:51:37Z</time>
      </trkpt>
      <trkpt lat="48.64397" lon="7.18827">
        <ele>503</ele>
        <time>2020-08-12T09:51:39Z</time>
      </trkpt>
      <trkpt lat="48.64392" lon="7.18819">
        <ele>503.5</ele>
        <time>2020-08-12T09:51:41Z</time>
      </trkpt>
      <trkpt lat="48.64389" lon="7.18815">
        <ele>503.4</ele>
        <time>2020-08-12T09:51:43Z</time>
      </trkpt>
      <trkpt lat="48.64384" lon="7.18813">
        <ele>504.5</ele>
        <time>2020-08-12T09:51:56Z</time>
      </trkpt>
      <trkpt lat="48.6438" lon="7.18807">
        <ele>504</ele>
        <time>2020-08-12T09:51:59Z</time>
      </trkpt>
      <trkpt lat="48.64376" lon="7.188">
        <ele>503.8</ele>
        <time>2020-08-12T09:52:01Z</time>
      </trkpt>
      <trkpt lat="48.6437" lon="7.18792">
        <ele>502.9</ele>
        <time>2020-08-12T09:52:03Z</time>
      </trkpt>
      <trkpt lat="48.64365" lon="7.18782">
        <ele>502.1</ele>
        <time>2020-08-12T09:52:05Z</time>
      </trkpt>
      <trkpt lat="48.64359" lon="7.18771">
        <ele>501.7</ele>
        <time>2020-08-12T09:52:07Z</time>
      </trkpt>
      <trkpt lat="48.64354" lon="7.18761">
        <ele>501.4</ele>
        <time>2020-08-12T09:52:09Z</time>
      </trkpt>
      <trkpt lat="48.64349" lon="7.18747">
        <ele>500.9</ele>
        <time>2020-08-12T09:52:11Z</time>
      </trkpt>
      <trkpt lat="48.64342" lon="7.18736">
        <ele>501.3</ele>
        <time>2020-08-12T09:52:13Z</time>
      </trkpt>
      <trkpt lat="48.64334" lon="7.18726">
        <ele>501.2</ele>
        <time>2020-08-12T09:52:15Z</time>
      </trkpt>
      <trkpt lat="48.64328" lon="7.18714">
        <ele>500.9</ele>
        <time>2020-08-12T09:52:17Z</time>
      </trkpt>
      <trkpt lat="48.64321" lon="7.18703">
        <ele>501.1</ele>
        <time>2020-08-12T09:52:19Z</time>
      </trkpt>
      <trkpt lat="48.64314" lon="7.18688">
        <ele>500.8</ele>
        <time>2020-08-12T09:52:21Z</time>
      </trkpt>
      <trkpt lat="48.64307" lon="7.18675">
        <ele>501</ele>
        <time>2020-08-12T09:52:23Z</time>
      </trkpt>
      <trkpt lat="48.64301" lon="7.1866">
        <ele>500.7</ele>
        <time>2020-08-12T09:52:25Z</time>
      </trkpt>
      <trkpt lat="48.64297" lon="7.18648">
        <ele>501.2</ele>
        <time>2020-08-12T09:52:27Z</time>
      </trkpt>
      <trkpt lat="48.64294" lon="7.18634">
        <ele>502.1</ele>
        <time>2020-08-12T09:52:29Z</time>
      </trkpt>
      <trkpt lat="48.64289" lon="7.1862">
        <ele>502.1</ele>
        <time>2020-08-12T09:52:31Z</time>
      </trkpt>
      <trkpt lat="48.64284" lon="7.18608">
        <ele>502.9</ele>
        <time>2020-08-12T09:52:33Z</time>
      </trkpt>
      <trkpt lat="48.64279" lon="7.18595">
        <ele>486</ele>
        <time>2020-08-12T09:52:35Z</time>
      </trkpt>
      <trkpt lat="48.64274" lon="7.18582">
        <ele>484.5</ele>
        <time>2020-08-12T09:52:37Z</time>
      </trkpt>
      <trkpt lat="48.64267" lon="7.1857">
        <ele>485</ele>
        <time>2020-08-12T09:52:39Z</time>
      </trkpt>
      <trkpt lat="48.64259" lon="7.18557">
        <ele>488</ele>
        <time>2020-08-12T09:52:41Z</time>
      </trkpt>
      <trkpt lat="48.64249" lon="7.18546">
        <ele>491.2</ele>
        <time>2020-08-12T09:52:43Z</time>
      </trkpt>
      <trkpt lat="48.64239" lon="7.18537">
        <ele>495</ele>
        <time>2020-08-12T09:52:45Z</time>
      </trkpt>
      <trkpt lat="48.64231" lon="7.18528">
        <ele>497.9</ele>
        <time>2020-08-12T09:52:47Z</time>
      </trkpt>
      <trkpt lat="48.64215" lon="7.18521">
        <ele>501.2</ele>
        <time>2020-08-12T09:52:50Z</time>
      </trkpt>
      <trkpt lat="48.64203" lon="7.18524">
        <ele>503.4</ele>
        <time>2020-08-12T09:52:52Z</time>
      </trkpt>
      <trkpt lat="48.6419" lon="7.18527">
        <ele>504.6</ele>
        <time>2020-08-12T09:52:54Z</time>
      </trkpt>
      <trkpt lat="48.64172" lon="7.18532">
        <ele>506.6</ele>
        <time>2020-08-12T09:52:57Z</time>
      </trkpt>
      <trkpt lat="48.64162" lon="7.18535">
        <ele>507.7</ele>
        <time>2020-08-12T09:52:59Z</time>
      </trkpt>
      <trkpt lat="48.64152" lon="7.18538">
        <ele>508.8</ele>
        <time>2020-08-12T09:53:01Z</time>
      </trkpt>
      <trkpt lat="48.64148" lon="7.1854">
        <ele>510.3</ele>
        <time>2020-08-12T09:53:05Z</time>
      </trkpt>
      <trkpt lat="48.64145" lon="7.18546">
        <ele>515.2</ele>
        <time>2020-08-12T09:53:25Z</time>
      </trkpt>
      <trkpt lat="48.64139" lon="7.18547">
        <ele>514.7</ele>
        <time>2020-08-12T09:53:28Z</time>
      </trkpt>
      <trkpt lat="48.64129" lon="7.18551">
        <ele>514</ele>
        <time>2020-08-12T09:53:31Z</time>
      </trkpt>
      <trkpt lat="48.64123" lon="7.18555">
        <ele>513</ele>
        <time>2020-08-12T09:53:33Z</time>
      </trkpt>
      <trkpt lat="48.64114" lon="7.18558">
        <ele>512</ele>
        <time>2020-08-12T09:53:35Z</time>
      </trkpt>
      <trkpt lat="48.64105" lon="7.1856">
        <ele>510.7</ele>
        <time>2020-08-12T09:53:37Z</time>
      </trkpt>
      <trkpt lat="48.64095" lon="7.18563">
        <ele>510</ele>
        <time>2020-08-12T09:53:39Z</time>
      </trkpt>
      <trkpt lat="48.64084" lon="7.18563">
        <ele>509</ele>
        <time>2020-08-12T09:53:41Z</time>
      </trkpt>
      <trkpt lat="48.64071" lon="7.1856">
        <ele>507.7</ele>
        <time>2020-08-12T09:53:43Z</time>
      </trkpt>
      <trkpt lat="48.64058" lon="7.18556">
        <ele>507.4</ele>
        <time>2020-08-12T09:53:45Z</time>
      </trkpt>
      <trkpt lat="48.64045" lon="7.1855">
        <ele>506.4</ele>
        <time>2020-08-12T09:53:47Z</time>
      </trkpt>
      <trkpt lat="48.64035" lon="7.18544">
        <ele>505.7</ele>
        <time>2020-08-12T09:53:49Z</time>
      </trkpt>
      <trkpt lat="48.64025" lon="7.18536">
        <ele>505.8</ele>
        <time>2020-08-12T09:53:51Z</time>
      </trkpt>
      <trkpt lat="48.64016" lon="7.1853">
        <ele>505.8</ele>
        <time>2020-08-12T09:53:53Z</time>
      </trkpt>
      <trkpt lat="48.64005" lon="7.18524">
        <ele>506.3</ele>
        <time>2020-08-12T09:53:55Z</time>
      </trkpt>
      <trkpt lat="48.63994" lon="7.18519">
        <ele>506.3</ele>
        <time>2020-08-12T09:53:57Z</time>
      </trkpt>
      <trkpt lat="48.63984" lon="7.18514">
        <ele>505.6</ele>
        <time>2020-08-12T09:53:59Z</time>
      </trkpt>
      <trkpt lat="48.63973" lon="7.18503">
        <ele>504.5</ele>
        <time>2020-08-12T09:54:01Z</time>
      </trkpt>
      <trkpt lat="48.63963" lon="7.18498">
        <ele>503.5</ele>
        <time>2020-08-12T09:54:03Z</time>
      </trkpt>
      <trkpt lat="48.63951" lon="7.18488">
        <ele>503.3</ele>
        <time>2020-08-12T09:54:05Z</time>
      </trkpt>
      <trkpt lat="48.6394" lon="7.18477">
        <ele>503.2</ele>
        <time>2020-08-12T09:54:07Z</time>
      </trkpt>
      <trkpt lat="48.6393" lon="7.18464">
        <ele>503</ele>
        <time>2020-08-12T09:54:09Z</time>
      </trkpt>
      <trkpt lat="48.6392" lon="7.18452">
        <ele>502.6</ele>
        <time>2020-08-12T09:54:11Z</time>
      </trkpt>
      <trkpt lat="48.63911" lon="7.18439">
        <ele>502.6</ele>
        <time>2020-08-12T09:54:13Z</time>
      </trkpt>
      <trkpt lat="48.63905" lon="7.18427">
        <ele>502.4</ele>
        <time>2020-08-12T09:54:15Z</time>
      </trkpt>
      <trkpt lat="48.63901" lon="7.18414">
        <ele>501.7</ele>
        <time>2020-08-12T09:54:17Z</time>
      </trkpt>
      <trkpt lat="48.63896" lon="7.18407">
        <ele>501.8</ele>
        <time>2020-08-12T09:54:19Z</time>
      </trkpt>
      <trkpt lat="48.6389" lon="7.18407">
        <ele>501.2</ele>
        <time>2020-08-12T09:54:21Z</time>
      </trkpt>
      <trkpt lat="48.63884" lon="7.18412">
        <ele>500.4</ele>
        <time>2020-08-12T09:54:23Z</time>
      </trkpt>
      <trkpt lat="48.63879" lon="7.18417">
        <ele>499.6</ele>
        <time>2020-08-12T09:54:25Z</time>
      </trkpt>
      <trkpt lat="48.63874" lon="7.18423">
        <ele>499.4</ele>
        <time>2020-08-12T09:54:27Z</time>
      </trkpt>
      <trkpt lat="48.63871" lon="7.18428">
        <ele>499.4</ele>
        <time>2020-08-12T09:54:31Z</time>
      </trkpt>
      <trkpt lat="48.63873" lon="7.18421">
        <ele>498.8</ele>
        <time>2020-08-12T09:54:56Z</time>
      </trkpt>
      <trkpt lat="48.63876" lon="7.18415">
        <ele>499.2</ele>
        <time>2020-08-12T09:54:59Z</time>
      </trkpt>
      <trkpt lat="48.63881" lon="7.18408">
        <ele>500.4</ele>
        <time>2020-08-12T09:55:02Z</time>
      </trkpt>
      <trkpt lat="48.63884" lon="7.18403">
        <ele>498</ele>
        <time>2020-08-12T09:55:04Z</time>
      </trkpt>
      <trkpt lat="48.63888" lon="7.18398">
        <ele>499.8</ele>
        <time>2020-08-12T09:55:06Z</time>
      </trkpt>
      <trkpt lat="48.63894" lon="7.18391">
        <ele>500</ele>
        <time>2020-08-12T09:55:08Z</time>
      </trkpt>
      <trkpt lat="48.639" lon="7.18383">
        <ele>501.4</ele>
        <time>2020-08-12T09:55:10Z</time>
      </trkpt>
      <trkpt lat="48.63907" lon="7.18374">
        <ele>502.2</ele>
        <time>2020-08-12T09:55:12Z</time>
      </trkpt>
      <trkpt lat="48.63912" lon="7.18363">
        <ele>502.1</ele>
        <time>2020-08-12T09:55:14Z</time>
      </trkpt>
      <trkpt lat="48.63918" lon="7.18352">
        <ele>502.3</ele>
        <time>2020-08-12T09:55:16Z</time>
      </trkpt>
      <trkpt lat="48.63923" lon="7.18343">
        <ele>502.5</ele>
        <time>2020-08-12T09:55:18Z</time>
      </trkpt>
      <trkpt lat="48.63927" lon="7.18337">
        <ele>502.8</ele>
        <time>2020-08-12T09:55:20Z</time>
      </trkpt>
      <trkpt lat="48.63932" lon="7.1833">
        <ele>503.7</ele>
        <time>2020-08-12T09:55:22Z</time>
      </trkpt>
      <trkpt lat="48.63938" lon="7.18327">
        <ele>504.5</ele>
        <time>2020-08-12T09:55:24Z</time>
      </trkpt>
      <trkpt lat="48.63942" lon="7.18323">
        <ele>505.2</ele>
        <time>2020-08-12T09:55:31Z</time>
      </trkpt>
      <trkpt lat="48.63936" lon="7.18325">
        <ele>506.3</ele>
        <time>2020-08-12T09:55:53Z</time>
      </trkpt>
      <trkpt lat="48.63931" lon="7.18331">
        <ele>505</ele>
        <time>2020-08-12T09:55:56Z</time>
      </trkpt>
      <trkpt lat="48.63929" lon="7.18339">
        <ele>505</ele>
        <time>2020-08-12T09:55:59Z</time>
      </trkpt>
      <trkpt lat="48.6393" lon="7.18346">
        <ele>505.4</ele>
        <time>2020-08-12T09:56:02Z</time>
      </trkpt>
      <trkpt lat="48.63935" lon="7.18351">
        <ele>505.6</ele>
        <time>2020-08-12T09:56:05Z</time>
      </trkpt>
      <trkpt lat="48.63939" lon="7.18353">
        <ele>504.2</ele>
        <time>2020-08-12T09:56:18Z</time>
      </trkpt>
      <trkpt lat="48.63941" lon="7.1836">
        <ele>503.6</ele>
        <time>2020-08-12T09:56:27Z</time>
      </trkpt>
      <trkpt lat="48.63936" lon="7.18356">
        <ele>509.2</ele>
        <time>2020-08-12T09:56:55Z</time>
      </trkpt>
      <trkpt lat="48.6393" lon="7.18349">
        <ele>509.1</ele>
        <time>2020-08-12T09:56:58Z</time>
      </trkpt>
      <trkpt lat="48.63924" lon="7.18346">
        <ele>508.2</ele>
        <time>2020-08-12T09:57:00Z</time>
      </trkpt>
      <trkpt lat="48.63919" lon="7.18349">
        <ele>508.1</ele>
        <time>2020-08-12T09:57:02Z</time>
      </trkpt>
      <trkpt lat="48.63913" lon="7.18362">
        <ele>507.8</ele>
        <time>2020-08-12T09:57:05Z</time>
      </trkpt>
      <trkpt lat="48.63909" lon="7.18371">
        <ele>507.6</ele>
        <time>2020-08-12T09:57:07Z</time>
      </trkpt>
      <trkpt lat="48.63904" lon="7.1838">
        <ele>506.9</ele>
        <time>2020-08-12T09:57:09Z</time>
      </trkpt>
      <trkpt lat="48.63899" lon="7.18389">
        <ele>506.5</ele>
        <time>2020-08-12T09:57:11Z</time>
      </trkpt>
      <trkpt lat="48.63897" lon="7.18398">
        <ele>505.5</ele>
        <time>2020-08-12T09:57:13Z</time>
      </trkpt>
      <trkpt lat="48.63898" lon="7.18406">
        <ele>504.8</ele>
        <time>2020-08-12T09:57:15Z</time>
      </trkpt>
      <trkpt lat="48.639" lon="7.18414">
        <ele>503.5</ele>
        <time>2020-08-12T09:57:18Z</time>
      </trkpt>
      <trkpt lat="48.63901" lon="7.18422">
        <ele>499.6</ele>
        <time>2020-08-12T09:57:29Z</time>
      </trkpt>
      <trkpt lat="48.63903" lon="7.18429">
        <ele>499.1</ele>
        <time>2020-08-12T09:57:31Z</time>
      </trkpt>
      <trkpt lat="48.63906" lon="7.18436">
        <ele>498.7</ele>
        <time>2020-08-12T09:57:33Z</time>
      </trkpt>
      <trkpt lat="48.63911" lon="7.18441">
        <ele>498.2</ele>
        <time>2020-08-12T09:57:39Z</time>
      </trkpt>
      <trkpt lat="48.63914" lon="7.18449">
        <ele>498</ele>
        <time>2020-08-12T09:57:43Z</time>
      </trkpt>
      <trkpt lat="48.63917" lon="7.18456">
        <ele>497.7</ele>
        <time>2020-08-12T09:57:45Z</time>
      </trkpt>
      <trkpt lat="48.63922" lon="7.18462">
        <ele>497.5</ele>
        <time>2020-08-12T09:57:47Z</time>
      </trkpt>
      <trkpt lat="48.63928" lon="7.18468">
        <ele>498</ele>
        <time>2020-08-12T09:57:49Z</time>
      </trkpt>
      <trkpt lat="48.63934" lon="7.18472">
        <ele>498.5</ele>
        <time>2020-08-12T09:57:51Z</time>
      </trkpt>
      <trkpt lat="48.63939" lon="7.18475">
        <ele>499.5</ele>
        <time>2020-08-12T09:57:54Z</time>
      </trkpt>
      <trkpt lat="48.63943" lon="7.1848">
        <ele>502.5</ele>
        <time>2020-08-12T09:58:05Z</time>
      </trkpt>
      <trkpt lat="48.63949" lon="7.18481">
        <ele>505.5</ele>
        <time>2020-08-12T09:58:24Z</time>
      </trkpt>
      <trkpt lat="48.63957" lon="7.18487">
        <ele>505.5</ele>
        <time>2020-08-12T09:58:26Z</time>
      </trkpt>
      <trkpt lat="48.63965" lon="7.18493">
        <ele>505.4</ele>
        <time>2020-08-12T09:58:28Z</time>
      </trkpt>
      <trkpt lat="48.63972" lon="7.18502">
        <ele>505</ele>
        <time>2020-08-12T09:58:30Z</time>
      </trkpt>
      <trkpt lat="48.63984" lon="7.1851">
        <ele>505.8</ele>
        <time>2020-08-12T09:58:33Z</time>
      </trkpt>
      <trkpt lat="48.63992" lon="7.18514">
        <ele>505.9</ele>
        <time>2020-08-12T09:58:35Z</time>
      </trkpt>
      <trkpt lat="48.63999" lon="7.1852">
        <ele>505.4</ele>
        <time>2020-08-12T09:58:37Z</time>
      </trkpt>
      <trkpt lat="48.64005" lon="7.18523">
        <ele>505.6</ele>
        <time>2020-08-12T09:58:39Z</time>
      </trkpt>
      <trkpt lat="48.64015" lon="7.18531">
        <ele>506.1</ele>
        <time>2020-08-12T09:58:42Z</time>
      </trkpt>
      <trkpt lat="48.64022" lon="7.18538">
        <ele>506.4</ele>
        <time>2020-08-12T09:58:44Z</time>
      </trkpt>
      <trkpt lat="48.64031" lon="7.18545">
        <ele>505.7</ele>
        <time>2020-08-12T09:58:46Z</time>
      </trkpt>
      <trkpt lat="48.64044" lon="7.18552">
        <ele>505.9</ele>
        <time>2020-08-12T09:58:49Z</time>
      </trkpt>
      <trkpt lat="48.64055" lon="7.18555">
        <ele>506.2</ele>
        <time>2020-08-12T09:58:51Z</time>
      </trkpt>
      <trkpt lat="48.64065" lon="7.18559">
        <ele>507.8</ele>
        <time>2020-08-12T09:58:53Z</time>
      </trkpt>
      <trkpt lat="48.64076" lon="7.18562">
        <ele>508.6</ele>
        <time>2020-08-12T09:58:55Z</time>
      </trkpt>
      <trkpt lat="48.64086" lon="7.18562">
        <ele>509.6</ele>
        <time>2020-08-12T09:58:57Z</time>
      </trkpt>
      <trkpt lat="48.64096" lon="7.18558">
        <ele>510.7</ele>
        <time>2020-08-12T09:58:59Z</time>
      </trkpt>
      <trkpt lat="48.64105" lon="7.18554">
        <ele>512.3</ele>
        <time>2020-08-12T09:59:01Z</time>
      </trkpt>
      <trkpt lat="48.64113" lon="7.1855">
        <ele>513.6</ele>
        <time>2020-08-12T09:59:03Z</time>
      </trkpt>
      <trkpt lat="48.64122" lon="7.18546">
        <ele>514.4</ele>
        <time>2020-08-12T09:59:05Z</time>
      </trkpt>
      <trkpt lat="48.6413" lon="7.18542">
        <ele>514.8</ele>
        <time>2020-08-12T09:59:07Z</time>
      </trkpt>
      <trkpt lat="48.64135" lon="7.1854">
        <ele>493.1</ele>
        <time>2020-08-12T09:59:09Z</time>
      </trkpt>
      <trkpt lat="48.6414" lon="7.18539">
        <ele>493.9</ele>
        <time>2020-08-12T09:59:14Z</time>
      </trkpt>
      <trkpt lat="48.64144" lon="7.18538">
        <ele>504.4</ele>
        <time>2020-08-12T09:59:22Z</time>
      </trkpt>
      <trkpt lat="48.6415" lon="7.18536">
        <ele>505.5</ele>
        <time>2020-08-12T09:59:26Z</time>
      </trkpt>
      <trkpt lat="48.64156" lon="7.18534">
        <ele>506.5</ele>
        <time>2020-08-12T09:59:29Z</time>
      </trkpt>
      <trkpt lat="48.64163" lon="7.18532">
        <ele>507.9</ele>
        <time>2020-08-12T09:59:31Z</time>
      </trkpt>
      <trkpt lat="48.64171" lon="7.1853">
        <ele>508.5</ele>
        <time>2020-08-12T09:59:33Z</time>
      </trkpt>
      <trkpt lat="48.64183" lon="7.18526">
        <ele>509.9</ele>
        <time>2020-08-12T09:59:35Z</time>
      </trkpt>
      <trkpt lat="48.64196" lon="7.18524">
        <ele>510.5</ele>
        <time>2020-08-12T09:59:37Z</time>
      </trkpt>
      <trkpt lat="48.64208" lon="7.18525">
        <ele>511.6</ele>
        <time>2020-08-12T09:59:39Z</time>
      </trkpt>
      <trkpt lat="48.6422" lon="7.1853">
        <ele>512.5</ele>
        <time>2020-08-12T09:59:41Z</time>
      </trkpt>
      <trkpt lat="48.64234" lon="7.18538">
        <ele>513.2</ele>
        <time>2020-08-12T09:59:43Z</time>
      </trkpt>
      <trkpt lat="48.64246" lon="7.18549">
        <ele>513.5</ele>
        <time>2020-08-12T09:59:45Z</time>
      </trkpt>
      <trkpt lat="48.64257" lon="7.18561">
        <ele>513.7</ele>
        <time>2020-08-12T09:59:47Z</time>
      </trkpt>
      <trkpt lat="48.64269" lon="7.18576">
        <ele>513.3</ele>
        <time>2020-08-12T09:59:49Z</time>
      </trkpt>
      <trkpt lat="48.64282" lon="7.18602">
        <ele>513.3</ele>
        <time>2020-08-12T09:59:52Z</time>
      </trkpt>
      <trkpt lat="48.64288" lon="7.18622">
        <ele>512.7</ele>
        <time>2020-08-12T09:59:54Z</time>
      </trkpt>
      <trkpt lat="48.64295" lon="7.18641">
        <ele>511.2</ele>
        <time>2020-08-12T09:59:56Z</time>
      </trkpt>
      <trkpt lat="48.64298" lon="7.18657">
        <ele>511</ele>
        <time>2020-08-12T09:59:58Z</time>
      </trkpt>
      <trkpt lat="48.64302" lon="7.18672">
        <ele>510</ele>
        <time>2020-08-12T10:00:00Z</time>
      </trkpt>
      <trkpt lat="48.64308" lon="7.18687">
        <ele>509.2</ele>
        <time>2020-08-12T10:00:02Z</time>
      </trkpt>
      <trkpt lat="48.64315" lon="7.187">
        <ele>507.8</ele>
        <time>2020-08-12T10:00:04Z</time>
      </trkpt>
      <trkpt lat="48.64323" lon="7.18712">
        <ele>506.9</ele>
        <time>2020-08-12T10:00:06Z</time>
      </trkpt>
      <trkpt lat="48.6433" lon="7.18724">
        <ele>506.5</ele>
        <time>2020-08-12T10:00:08Z</time>
      </trkpt>
      <trkpt lat="48.64338" lon="7.18733">
        <ele>506</ele>
        <time>2020-08-12T10:00:10Z</time>
      </trkpt>
      <trkpt lat="48.64344" lon="7.18744">
        <ele>505.3</ele>
        <time>2020-08-12T10:00:12Z</time>
      </trkpt>
      <trkpt lat="48.64351" lon="7.18755">
        <ele>504.9</ele>
        <time>2020-08-12T10:00:14Z</time>
      </trkpt>
      <trkpt lat="48.64356" lon="7.18766">
        <ele>504.7</ele>
        <time>2020-08-12T10:00:16Z</time>
      </trkpt>
      <trkpt lat="48.64362" lon="7.18778">
        <ele>504.5</ele>
        <time>2020-08-12T10:00:18Z</time>
      </trkpt>
      <trkpt lat="48.64369" lon="7.18788">
        <ele>504.2</ele>
        <time>2020-08-12T10:00:20Z</time>
      </trkpt>
      <trkpt lat="48.64377" lon="7.18797">
        <ele>503.9</ele>
        <time>2020-08-12T10:00:22Z</time>
      </trkpt>
      <trkpt lat="48.64383" lon="7.18805">
        <ele>504.3</ele>
        <time>2020-08-12T10:00:24Z</time>
      </trkpt>
      <trkpt lat="48.6439" lon="7.18814">
        <ele>505.1</ele>
        <time>2020-08-12T10:00:26Z</time>
      </trkpt>
      <trkpt lat="48.64398" lon="7.18825">
        <ele>505.3</ele>
        <time>2020-08-12T10:00:28Z</time>
      </trkpt>
      <trkpt lat="48.64406" lon="7.18835">
        <ele>505.7</ele>
        <time>2020-08-12T10:00:30Z</time>
      </trkpt>
      <trkpt lat="48.64413" lon="7.18847">
        <ele>506.2</ele>
        <time>2020-08-12T10:00:32Z</time>
      </trkpt>
      <trkpt lat="48.64419" lon="7.18861">
        <ele>506.6</ele>
        <time>2020-08-12T10:00:34Z</time>
      </trkpt>
      <trkpt lat="48.64423" lon="7.18875">
        <ele>507</ele>
        <time>2020-08-12T10:00:36Z</time>
      </trkpt>
      <trkpt lat="48.64426" lon="7.18885">
        <ele>507.5</ele>
        <time>2020-08-12T10:00:38Z</time>
      </trkpt>
      <trkpt lat="48.64431" lon="7.18891">
        <ele>507.6</ele>
        <time>2020-08-12T10:00:40Z</time>
      </trkpt>
      <trkpt lat="48.64437" lon="7.1889">
        <ele>507.5</ele>
        <time>2020-08-12T10:00:42Z</time>
      </trkpt>
      <trkpt lat="48.64444" lon="7.18885">
        <ele>506.9</ele>
        <time>2020-08-12T10:00:44Z</time>
      </trkpt>
      <trkpt lat="48.64452" lon="7.18878">
        <ele>506.9</ele>
        <time>2020-08-12T10:00:46Z</time>
      </trkpt>
      <trkpt lat="48.6446" lon="7.18869">
        <ele>506.5</ele>
        <time>2020-08-12T10:00:48Z</time>
      </trkpt>
      <trkpt lat="48.64469" lon="7.18861">
        <ele>506.4</ele>
        <time>2020-08-12T10:00:50Z</time>
      </trkpt>
      <trkpt lat="48.64479" lon="7.18853">
        <ele>505.7</ele>
        <time>2020-08-12T10:00:52Z</time>
      </trkpt>
      <trkpt lat="48.64488" lon="7.18844">
        <ele>505.2</ele>
        <time>2020-08-12T10:00:54Z</time>
      </trkpt>
      <trkpt lat="48.64497" lon="7.18835">
        <ele>504.6</ele>
        <time>2020-08-12T10:00:56Z</time>
      </trkpt>
      <trkpt lat="48.64505" lon="7.18826">
        <ele>504.7</ele>
        <time>2020-08-12T10:00:58Z</time>
      </trkpt>
      <trkpt lat="48.64514" lon="7.18818">
        <ele>504.5</ele>
        <time>2020-08-12T10:01:00Z</time>
      </trkpt>
      <trkpt lat="48.64522" lon="7.1881">
        <ele>504.5</ele>
        <time>2020-08-12T10:01:02Z</time>
      </trkpt>
      <trkpt lat="48.64536" lon="7.18798">
        <ele>504.9</ele>
        <time>2020-08-12T10:01:05Z</time>
      </trkpt>
      <trkpt lat="48.64545" lon="7.18791">
        <ele>504.8</ele>
        <time>2020-08-12T10:01:07Z</time>
      </trkpt>
      <trkpt lat="48.64554" lon="7.18785">
        <ele>505.1</ele>
        <time>2020-08-12T10:01:09Z</time>
      </trkpt>
      <trkpt lat="48.64565" lon="7.18784">
        <ele>505.8</ele>
        <time>2020-08-12T10:01:11Z</time>
      </trkpt>
      <trkpt lat="48.64573" lon="7.18781">
        <ele>505.9</ele>
        <time>2020-08-12T10:01:13Z</time>
      </trkpt>
      <trkpt lat="48.64581" lon="7.18777">
        <ele>506.3</ele>
        <time>2020-08-12T10:01:15Z</time>
      </trkpt>
      <trkpt lat="48.64588" lon="7.18775">
        <ele>505.3</ele>
        <time>2020-08-12T10:01:17Z</time>
      </trkpt>
      <trkpt lat="48.64597" lon="7.18777">
        <ele>506.4</ele>
        <time>2020-08-12T10:01:19Z</time>
      </trkpt>
      <trkpt lat="48.64604" lon="7.18777">
        <ele>507</ele>
        <time>2020-08-12T10:01:21Z</time>
      </trkpt>
      <trkpt lat="48.64614" lon="7.18776">
        <ele>508.6</ele>
        <time>2020-08-12T10:01:23Z</time>
      </trkpt>
      <trkpt lat="48.64625" lon="7.18777">
        <ele>510.4</ele>
        <time>2020-08-12T10:01:25Z</time>
      </trkpt>
      <trkpt lat="48.64633" lon="7.18783">
        <ele>511.1</ele>
        <time>2020-08-12T10:01:27Z</time>
      </trkpt>
      <trkpt lat="48.64639" lon="7.18791">
        <ele>512.1</ele>
        <time>2020-08-12T10:01:29Z</time>
      </trkpt>
      <trkpt lat="48.64645" lon="7.188">
        <ele>511.4</ele>
        <time>2020-08-12T10:01:31Z</time>
      </trkpt>
      <trkpt lat="48.64654" lon="7.18811">
        <ele>511.9</ele>
        <time>2020-08-12T10:01:33Z</time>
      </trkpt>
      <trkpt lat="48.64661" lon="7.18822">
        <ele>510.8</ele>
        <time>2020-08-12T10:01:35Z</time>
      </trkpt>
      <trkpt lat="48.64671" lon="7.18834">
        <ele>510.5</ele>
        <time>2020-08-12T10:01:37Z</time>
      </trkpt>
      <trkpt lat="48.64683" lon="7.18853">
        <ele>510.1</ele>
        <time>2020-08-12T10:01:40Z</time>
      </trkpt>
      <trkpt lat="48.64689" lon="7.18864">
        <ele>510.2</ele>
        <time>2020-08-12T10:01:42Z</time>
      </trkpt>
      <trkpt lat="48.64698" lon="7.18874">
        <ele>510.2</ele>
        <time>2020-08-12T10:01:44Z</time>
      </trkpt>
      <trkpt lat="48.64704" lon="7.18888">
        <ele>510.2</ele>
        <time>2020-08-12T10:01:47Z</time>
      </trkpt>
      <trkpt lat="48.64712" lon="7.18899">
        <ele>510.9</ele>
        <time>2020-08-12T10:01:49Z</time>
      </trkpt>
      <trkpt lat="48.6472" lon="7.18909">
        <ele>511.7</ele>
        <time>2020-08-12T10:01:51Z</time>
      </trkpt>
      <trkpt lat="48.64728" lon="7.18919">
        <ele>511.9</ele>
        <time>2020-08-12T10:01:53Z</time>
      </trkpt>
      <trkpt lat="48.64735" lon="7.18929">
        <ele>512.7</ele>
        <time>2020-08-12T10:01:55Z</time>
      </trkpt>
      <trkpt lat="48.64745" lon="7.18943">
        <ele>513.4</ele>
        <time>2020-08-12T10:01:58Z</time>
      </trkpt>
      <trkpt lat="48.64753" lon="7.18959">
        <ele>513.6</ele>
        <time>2020-08-12T10:02:00Z</time>
      </trkpt>
      <trkpt lat="48.64758" lon="7.18973">
        <ele>513.2</ele>
        <time>2020-08-12T10:02:02Z</time>
      </trkpt>
      <trkpt lat="48.64763" lon="7.18985">
        <ele>513.4</ele>
        <time>2020-08-12T10:02:04Z</time>
      </trkpt>
      <trkpt lat="48.64766" lon="7.18992">
        <ele>513.8</ele>
        <time>2020-08-12T10:02:06Z</time>
      </trkpt>
      <trkpt lat="48.6477" lon="7.18997">
        <ele>514.3</ele>
        <time>2020-08-12T10:02:10Z</time>
      </trkpt>
      <trkpt lat="48.64773" lon="7.19001">
        <ele>513.4</ele>
        <time>2020-08-12T10:02:24Z</time>
      </trkpt>
      <trkpt lat="48.64776" lon="7.19008">
        <ele>513.8</ele>
        <time>2020-08-12T10:02:30Z</time>
      </trkpt>
      <trkpt lat="48.64778" lon="7.19017">
        <ele>513.9</ele>
        <time>2020-08-12T10:02:32Z</time>
      </trkpt>
      <trkpt lat="48.64783" lon="7.19029">
        <ele>513.3</ele>
        <time>2020-08-12T10:02:34Z</time>
      </trkpt>
      <trkpt lat="48.64789" lon="7.19042">
        <ele>513</ele>
        <time>2020-08-12T10:02:36Z</time>
      </trkpt>
      <trkpt lat="48.64794" lon="7.19056">
        <ele>512.5</ele>
        <time>2020-08-12T10:02:38Z</time>
      </trkpt>
      <trkpt lat="48.64797" lon="7.1907">
        <ele>512.7</ele>
        <time>2020-08-12T10:02:40Z</time>
      </trkpt>
      <trkpt lat="48.648" lon="7.19086">
        <ele>512.3</ele>
        <time>2020-08-12T10:02:42Z</time>
      </trkpt>
      <trkpt lat="48.64803" lon="7.19103">
        <ele>512.1</ele>
        <time>2020-08-12T10:02:44Z</time>
      </trkpt>
      <trkpt lat="48.64808" lon="7.19118">
        <ele>511.6</ele>
        <time>2020-08-12T10:02:46Z</time>
      </trkpt>
      <trkpt lat="48.64815" lon="7.19135">
        <ele>511.2</ele>
        <time>2020-08-12T10:02:48Z</time>
      </trkpt>
      <trkpt lat="48.64822" lon="7.19153">
        <ele>510.2</ele>
        <time>2020-08-12T10:02:50Z</time>
      </trkpt>
      <trkpt lat="48.64829" lon="7.19171">
        <ele>509.1</ele>
        <time>2020-08-12T10:02:52Z</time>
      </trkpt>
      <trkpt lat="48.64835" lon="7.19189">
        <ele>507.4</ele>
        <time>2020-08-12T10:02:54Z</time>
      </trkpt>
      <trkpt lat="48.64841" lon="7.19205">
        <ele>506.2</ele>
        <time>2020-08-12T10:02:56Z</time>
      </trkpt>
      <trkpt lat="48.64847" lon="7.19222">
        <ele>505.2</ele>
        <time>2020-08-12T10:02:58Z</time>
      </trkpt>
      <trkpt lat="48.64853" lon="7.19237">
        <ele>504.6</ele>
        <time>2020-08-12T10:03:00Z</time>
      </trkpt>
      <trkpt lat="48.64863" lon="7.19252">
        <ele>503.5</ele>
        <time>2020-08-12T10:03:02Z</time>
      </trkpt>
      <trkpt lat="48.64874" lon="7.19264">
        <ele>502.8</ele>
        <time>2020-08-12T10:03:04Z</time>
      </trkpt>
      <trkpt lat="48.64885" lon="7.19276">
        <ele>502.2</ele>
        <time>2020-08-12T10:03:06Z</time>
      </trkpt>
      <trkpt lat="48.64896" lon="7.19285">
        <ele>502.2</ele>
        <time>2020-08-12T10:03:08Z</time>
      </trkpt>
      <trkpt lat="48.64903" lon="7.19294">
        <ele>502</ele>
        <time>2020-08-12T10:03:10Z</time>
      </trkpt>
      <trkpt lat="48.64912" lon="7.19304">
        <ele>502.4</ele>
        <time>2020-08-12T10:03:12Z</time>
      </trkpt>
      <trkpt lat="48.64919" lon="7.19315">
        <ele>501.8</ele>
        <time>2020-08-12T10:03:14Z</time>
      </trkpt>
      <trkpt lat="48.64928" lon="7.19325">
        <ele>501.9</ele>
        <time>2020-08-12T10:03:16Z</time>
      </trkpt>
      <trkpt lat="48.64937" lon="7.19334">
        <ele>502.1</ele>
        <time>2020-08-12T10:03:18Z</time>
      </trkpt>
      <trkpt lat="48.64946" lon="7.19343">
        <ele>501.7</ele>
        <time>2020-08-12T10:03:20Z</time>
      </trkpt>
      <trkpt lat="48.64956" lon="7.1935">
        <ele>501.6</ele>
        <time>2020-08-12T10:03:22Z</time>
      </trkpt>
      <trkpt lat="48.64966" lon="7.19357">
        <ele>501.5</ele>
        <time>2020-08-12T10:03:24Z</time>
      </trkpt>
      <trkpt lat="48.64974" lon="7.19364">
        <ele>500.7</ele>
        <time>2020-08-12T10:03:26Z</time>
      </trkpt>
      <trkpt lat="48.64984" lon="7.1937">
        <ele>500.6</ele>
        <time>2020-08-12T10:03:28Z</time>
      </trkpt>
      <trkpt lat="48.64992" lon="7.19378">
        <ele>499.8</ele>
        <time>2020-08-12T10:03:30Z</time>
      </trkpt>
      <trkpt lat="48.65001" lon="7.19385">
        <ele>500</ele>
        <time>2020-08-12T10:03:32Z</time>
      </trkpt>
      <trkpt lat="48.6501" lon="7.19392">
        <ele>500.4</ele>
        <time>2020-08-12T10:03:34Z</time>
      </trkpt>
      <trkpt lat="48.65019" lon="7.19398">
        <ele>500.9</ele>
        <time>2020-08-12T10:03:36Z</time>
      </trkpt>
      <trkpt lat="48.65027" lon="7.19403">
        <ele>501.2</ele>
        <time>2020-08-12T10:03:38Z</time>
      </trkpt>
      <trkpt lat="48.65036" lon="7.19408">
        <ele>501.7</ele>
        <time>2020-08-12T10:03:40Z</time>
      </trkpt>
      <trkpt lat="48.65045" lon="7.19413">
        <ele>502.2</ele>
        <time>2020-08-12T10:03:42Z</time>
      </trkpt>
      <trkpt lat="48.65053" lon="7.19419">
        <ele>502.7</ele>
        <time>2020-08-12T10:03:44Z</time>
      </trkpt>
      <trkpt lat="48.65062" lon="7.19428">
        <ele>502.9</ele>
        <time>2020-08-12T10:03:46Z</time>
      </trkpt>
      <trkpt lat="48.65071" lon="7.19436">
        <ele>503</ele>
        <time>2020-08-12T10:03:48Z</time>
      </trkpt>
      <trkpt lat="48.65078" lon="7.19445">
        <ele>503.1</ele>
        <time>2020-08-12T10:03:50Z</time>
      </trkpt>
      <trkpt lat="48.65084" lon="7.19453">
        <ele>503.4</ele>
        <time>2020-08-12T10:03:52Z</time>
      </trkpt>
      <trkpt lat="48.65094" lon="7.19463">
        <ele>504.2</ele>
        <time>2020-08-12T10:03:54Z</time>
      </trkpt>
      <trkpt lat="48.65104" lon="7.19474">
        <ele>503.2</ele>
        <time>2020-08-12T10:03:56Z</time>
      </trkpt>
      <trkpt lat="48.65114" lon="7.19484">
        <ele>503.1</ele>
        <time>2020-08-12T10:03:58Z</time>
      </trkpt>
      <trkpt lat="48.65124" lon="7.19495">
        <ele>502.2</ele>
        <time>2020-08-12T10:04:00Z</time>
      </trkpt>
      <trkpt lat="48.65131" lon="7.19505">
        <ele>501.5</ele>
        <time>2020-08-12T10:04:02Z</time>
      </trkpt>
      <trkpt lat="48.65138" lon="7.19517">
        <ele>501</ele>
        <time>2020-08-12T10:04:04Z</time>
      </trkpt>
      <trkpt lat="48.65147" lon="7.19528">
        <ele>500.3</ele>
        <time>2020-08-12T10:04:06Z</time>
      </trkpt>
      <trkpt lat="48.65156" lon="7.19538">
        <ele>499.6</ele>
        <time>2020-08-12T10:04:08Z</time>
      </trkpt>
      <trkpt lat="48.65165" lon="7.19547">
        <ele>498.5</ele>
        <time>2020-08-12T10:04:10Z</time>
      </trkpt>
      <trkpt lat="48.65175" lon="7.19554">
        <ele>497.3</ele>
        <time>2020-08-12T10:04:12Z</time>
      </trkpt>
      <trkpt lat="48.65184" lon="7.1956">
        <ele>496.3</ele>
        <time>2020-08-12T10:04:14Z</time>
      </trkpt>
      <trkpt lat="48.65193" lon="7.19567">
        <ele>496</ele>
        <time>2020-08-12T10:04:16Z</time>
      </trkpt>
      <trkpt lat="48.65203" lon="7.1957">
        <ele>495.7</ele>
        <time>2020-08-12T10:04:18Z</time>
      </trkpt>
      <trkpt lat="48.65212" lon="7.19569">
        <ele>496</ele>
        <time>2020-08-12T10:04:20Z</time>
      </trkpt>
      <trkpt lat="48.65217" lon="7.19565">
        <ele>496.3</ele>
        <time>2020-08-12T10:04:22Z</time>
      </trkpt>
      <trkpt lat="48.65221" lon="7.19563">
        <ele>498.7</ele>
        <time>2020-08-12T10:04:30Z</time>
      </trkpt>
      <trkpt lat="48.65226" lon="7.19557">
        <ele>500.8</ele>
        <time>2020-08-12T10:04:40Z</time>
      </trkpt>
      <trkpt lat="48.6523" lon="7.19551">
        <ele>500.9</ele>
        <time>2020-08-12T10:04:42Z</time>
      </trkpt>
      <trkpt lat="48.65234" lon="7.19541">
        <ele>500.1</ele>
        <time>2020-08-12T10:04:44Z</time>
      </trkpt>
      <trkpt lat="48.65238" lon="7.19528">
        <ele>499.3</ele>
        <time>2020-08-12T10:04:46Z</time>
      </trkpt>
      <trkpt lat="48.65243" lon="7.19518">
        <ele>498.8</ele>
        <time>2020-08-12T10:04:48Z</time>
      </trkpt>
      <trkpt lat="48.65246" lon="7.19507">
        <ele>498.9</ele>
        <time>2020-08-12T10:04:50Z</time>
      </trkpt>
      <trkpt lat="48.65249" lon="7.19495">
        <ele>498.3</ele>
        <time>2020-08-12T10:04:52Z</time>
      </trkpt>
      <trkpt lat="48.65251" lon="7.19481">
        <ele>498.1</ele>
        <time>2020-08-12T10:04:54Z</time>
      </trkpt>
      <trkpt lat="48.65254" lon="7.19467">
        <ele>497.7</ele>
        <time>2020-08-12T10:04:56Z</time>
      </trkpt>
      <trkpt lat="48.65257" lon="7.19452">
        <ele>497.1</ele>
        <time>2020-08-12T10:04:58Z</time>
      </trkpt>
      <trkpt lat="48.65261" lon="7.1944">
        <ele>497.4</ele>
        <time>2020-08-12T10:05:00Z</time>
      </trkpt>
      <trkpt lat="48.65266" lon="7.19434">
        <ele>497.4</ele>
        <time>2020-08-12T10:05:02Z</time>
      </trkpt>
      <trkpt lat="48.6527" lon="7.19436">
        <ele>497.2</ele>
        <time>2020-08-12T10:05:07Z</time>
      </trkpt>
      <trkpt lat="48.65274" lon="7.19441">
        <ele>497.6</ele>
        <time>2020-08-12T10:05:17Z</time>
      </trkpt>
      <trkpt lat="48.65276" lon="7.19449">
        <ele>497.4</ele>
        <time>2020-08-12T10:05:19Z</time>
      </trkpt>
      <trkpt lat="48.65276" lon="7.19456">
        <ele>497.9</ele>
        <time>2020-08-12T10:05:22Z</time>
      </trkpt>
      <trkpt lat="48.65281" lon="7.19463">
        <ele>497.2</ele>
        <time>2020-08-12T10:06:03Z</time>
      </trkpt>
      <trkpt lat="48.65282" lon="7.19476">
        <ele>496.4</ele>
        <time>2020-08-12T10:06:05Z</time>
      </trkpt>
      <trkpt lat="48.65281" lon="7.19489">
        <ele>494.7</ele>
        <time>2020-08-12T10:06:07Z</time>
      </trkpt>
      <trkpt lat="48.65281" lon="7.19502">
        <ele>493.7</ele>
        <time>2020-08-12T10:06:09Z</time>
      </trkpt>
      <trkpt lat="48.6528" lon="7.19516">
        <ele>493.3</ele>
        <time>2020-08-12T10:06:11Z</time>
      </trkpt>
      <trkpt lat="48.65276" lon="7.19532">
        <ele>492.7</ele>
        <time>2020-08-12T10:06:13Z</time>
      </trkpt>
      <trkpt lat="48.65273" lon="7.19547">
        <ele>492.9</ele>
        <time>2020-08-12T10:06:15Z</time>
      </trkpt>
      <trkpt lat="48.65268" lon="7.19563">
        <ele>492.4</ele>
        <time>2020-08-12T10:06:17Z</time>
      </trkpt>
      <trkpt lat="48.65262" lon="7.19579">
        <ele>492.1</ele>
        <time>2020-08-12T10:06:19Z</time>
      </trkpt>
      <trkpt lat="48.65256" lon="7.19595">
        <ele>491.7</ele>
        <time>2020-08-12T10:06:21Z</time>
      </trkpt>
      <trkpt lat="48.65249" lon="7.1961">
        <ele>491.1</ele>
        <time>2020-08-12T10:06:23Z</time>
      </trkpt>
      <trkpt lat="48.65242" lon="7.19627">
        <ele>490.3</ele>
        <time>2020-08-12T10:06:25Z</time>
      </trkpt>
      <trkpt lat="48.65236" lon="7.19641">
        <ele>489.2</ele>
        <time>2020-08-12T10:06:27Z</time>
      </trkpt>
      <trkpt lat="48.65227" lon="7.19649">
        <ele>488.3</ele>
        <time>2020-08-12T10:06:29Z</time>
      </trkpt>
      <trkpt lat="48.65215" lon="7.19651">
        <ele>487.8</ele>
        <time>2020-08-12T10:06:31Z</time>
      </trkpt>
      <trkpt lat="48.65203" lon="7.19647">
        <ele>486.2</ele>
        <time>2020-08-12T10:06:33Z</time>
      </trkpt>
      <trkpt lat="48.65191" lon="7.19643">
        <ele>484.9</ele>
        <time>2020-08-12T10:06:35Z</time>
      </trkpt>
      <trkpt lat="48.6518" lon="7.19637">
        <ele>483.7</ele>
        <time>2020-08-12T10:06:37Z</time>
      </trkpt>
      <trkpt lat="48.65168" lon="7.1963">
        <ele>482.5</ele>
        <time>2020-08-12T10:06:39Z</time>
      </trkpt>
      <trkpt lat="48.65157" lon="7.19622">
        <ele>482.1</ele>
        <time>2020-08-12T10:06:41Z</time>
      </trkpt>
      <trkpt lat="48.65146" lon="7.19615">
        <ele>481.7</ele>
        <time>2020-08-12T10:06:43Z</time>
      </trkpt>
      <trkpt lat="48.65134" lon="7.19608">
        <ele>480.8</ele>
        <time>2020-08-12T10:06:45Z</time>
      </trkpt>
      <trkpt lat="48.6512" lon="7.19601">
        <ele>480.4</ele>
        <time>2020-08-12T10:06:47Z</time>
      </trkpt>
      <trkpt lat="48.65111" lon="7.19592">
        <ele>478.5</ele>
        <time>2020-08-12T10:06:49Z</time>
      </trkpt>
      <trkpt lat="48.65101" lon="7.19582">
        <ele>476.2</ele>
        <time>2020-08-12T10:06:51Z</time>
      </trkpt>
      <trkpt lat="48.65091" lon="7.19573">
        <ele>474.6</ele>
        <time>2020-08-12T10:06:53Z</time>
      </trkpt>
      <trkpt lat="48.65082" lon="7.19564">
        <ele>473.2</ele>
        <time>2020-08-12T10:06:55Z</time>
      </trkpt>
      <trkpt lat="48.65071" lon="7.19553">
        <ele>471.6</ele>
        <time>2020-08-12T10:06:57Z</time>
      </trkpt>
      <trkpt lat="48.6506" lon="7.19544">
        <ele>470.7</ele>
        <time>2020-08-12T10:06:59Z</time>
      </trkpt>
      <trkpt lat="48.6505" lon="7.19534">
        <ele>470</ele>
        <time>2020-08-12T10:07:01Z</time>
      </trkpt>
      <trkpt lat="48.65041" lon="7.19525">
        <ele>469.6</ele>
        <time>2020-08-12T10:07:03Z</time>
      </trkpt>
      <trkpt lat="48.65032" lon="7.19515">
        <ele>469</ele>
        <time>2020-08-12T10:07:05Z</time>
      </trkpt>
      <trkpt lat="48.65022" lon="7.19506">
        <ele>468.4</ele>
        <time>2020-08-12T10:07:07Z</time>
      </trkpt>
      <trkpt lat="48.65009" lon="7.19498">
        <ele>467.7</ele>
        <time>2020-08-12T10:07:09Z</time>
      </trkpt>
      <trkpt lat="48.64994" lon="7.19492">
        <ele>467.2</ele>
        <time>2020-08-12T10:07:11Z</time>
      </trkpt>
      <trkpt lat="48.64979" lon="7.1949">
        <ele>466.2</ele>
        <time>2020-08-12T10:07:13Z</time>
      </trkpt>
      <trkpt lat="48.64965" lon="7.19491">
        <ele>465.1</ele>
        <time>2020-08-12T10:07:15Z</time>
      </trkpt>
      <trkpt lat="48.64952" lon="7.19492">
        <ele>464</ele>
        <time>2020-08-12T10:07:17Z</time>
      </trkpt>
      <trkpt lat="48.6494" lon="7.1949">
        <ele>463.4</ele>
        <time>2020-08-12T10:07:19Z</time>
      </trkpt>
      <trkpt lat="48.64929" lon="7.19486">
        <ele>461.5</ele>
        <time>2020-08-12T10:07:21Z</time>
      </trkpt>
      <trkpt lat="48.64921" lon="7.19479">
        <ele>459.4</ele>
        <time>2020-08-12T10:07:23Z</time>
      </trkpt>
      <trkpt lat="48.64911" lon="7.19472">
        <ele>457.5</ele>
        <time>2020-08-12T10:07:25Z</time>
      </trkpt>
      <trkpt lat="48.649" lon="7.19462">
        <ele>455.4</ele>
        <time>2020-08-12T10:07:27Z</time>
      </trkpt>
      <trkpt lat="48.6489" lon="7.19451">
        <ele>453.5</ele>
        <time>2020-08-12T10:07:29Z</time>
      </trkpt>
      <trkpt lat="48.6488" lon="7.19437">
        <ele>450.6</ele>
        <time>2020-08-12T10:07:31Z</time>
      </trkpt>
      <trkpt lat="48.64869" lon="7.19423">
        <ele>448.5</ele>
        <time>2020-08-12T10:07:33Z</time>
      </trkpt>
      <trkpt lat="48.64858" lon="7.19409">
        <ele>446.1</ele>
        <time>2020-08-12T10:07:35Z</time>
      </trkpt>
      <trkpt lat="48.64851" lon="7.19398">
        <ele>444.6</ele>
        <time>2020-08-12T10:07:37Z</time>
      </trkpt>
      <trkpt lat="48.64847" lon="7.19393">
        <ele>443.8</ele>
        <time>2020-08-12T10:07:39Z</time>
      </trkpt>
      <trkpt lat="48.64843" lon="7.19396">
        <ele>445.1</ele>
        <time>2020-08-12T10:07:50Z</time>
      </trkpt>
      <trkpt lat="48.64839" lon="7.19392">
        <ele>445.3</ele>
        <time>2020-08-12T10:07:56Z</time>
      </trkpt>
      <trkpt lat="48.64834" lon="7.19387">
        <ele>444.6</ele>
        <time>2020-08-12T10:07:58Z</time>
      </trkpt>
      <trkpt lat="48.64829" lon="7.19379">
        <ele>444.3</ele>
        <time>2020-08-12T10:08:00Z</time>
      </trkpt>
      <trkpt lat="48.64822" lon="7.19372">
        <ele>444.1</ele>
        <time>2020-08-12T10:08:02Z</time>
      </trkpt>
      <trkpt lat="48.64815" lon="7.19362">
        <ele>443.6</ele>
        <time>2020-08-12T10:08:04Z</time>
      </trkpt>
      <trkpt lat="48.64808" lon="7.19354">
        <ele>443.4</ele>
        <time>2020-08-12T10:08:06Z</time>
      </trkpt>
      <trkpt lat="48.648" lon="7.19347">
        <ele>443.4</ele>
        <time>2020-08-12T10:08:08Z</time>
      </trkpt>
      <trkpt lat="48.64791" lon="7.19338">
        <ele>443.5</ele>
        <time>2020-08-12T10:08:10Z</time>
      </trkpt>
      <trkpt lat="48.64783" lon="7.19327">
        <ele>443.4</ele>
        <time>2020-08-12T10:08:12Z</time>
      </trkpt>
      <trkpt lat="48.64774" lon="7.19314">
        <ele>443.2</ele>
        <time>2020-08-12T10:08:14Z</time>
      </trkpt>
      <trkpt lat="48.64766" lon="7.19302">
        <ele>442.7</ele>
        <time>2020-08-12T10:08:16Z</time>
      </trkpt>
      <trkpt lat="48.64757" lon="7.1929">
        <ele>442.9</ele>
        <time>2020-08-12T10:08:18Z</time>
      </trkpt>
      <trkpt lat="48.64749" lon="7.19278">
        <ele>443.1</ele>
        <time>2020-08-12T10:08:20Z</time>
      </trkpt>
      <trkpt lat="48.64742" lon="7.19263">
        <ele>443.4</ele>
        <time>2020-08-12T10:08:22Z</time>
      </trkpt>
      <trkpt lat="48.64736" lon="7.19248">
        <ele>443.3</ele>
        <time>2020-08-12T10:08:24Z</time>
      </trkpt>
      <trkpt lat="48.6473" lon="7.1923">
        <ele>443.6</ele>
        <time>2020-08-12T10:08:26Z</time>
      </trkpt>
      <trkpt lat="48.64725" lon="7.19212">
        <ele>443.5</ele>
        <time>2020-08-12T10:08:28Z</time>
      </trkpt>
      <trkpt lat="48.6472" lon="7.19195">
        <ele>444</ele>
        <time>2020-08-12T10:08:30Z</time>
      </trkpt>
      <trkpt lat="48.64715" lon="7.1918">
        <ele>444.4</ele>
        <time>2020-08-12T10:08:32Z</time>
      </trkpt>
      <trkpt lat="48.6471" lon="7.19168">
        <ele>444.9</ele>
        <time>2020-08-12T10:08:34Z</time>
      </trkpt>
      <trkpt lat="48.64706" lon="7.19156">
        <ele>445.2</ele>
        <time>2020-08-12T10:08:36Z</time>
      </trkpt>
      <trkpt lat="48.64703" lon="7.19143">
        <ele>445.5</ele>
        <time>2020-08-12T10:08:38Z</time>
      </trkpt>
      <trkpt lat="48.64697" lon="7.19128">
        <ele>445.7</ele>
        <time>2020-08-12T10:08:40Z</time>
      </trkpt>
      <trkpt lat="48.64691" lon="7.19113">
        <ele>445.6</ele>
        <time>2020-08-12T10:08:42Z</time>
      </trkpt>
      <trkpt lat="48.64688" lon="7.19108">
        <ele>445.6</ele>
        <time>2020-08-12T10:08:43Z</time>
      </trkpt>
      <trkpt lat="48.64684" lon="7.191">
        <ele>445.5</ele>
        <time>2020-08-12T10:08:44Z</time>
      </trkpt>
      <trkpt lat="48.64678" lon="7.19086">
        <ele>445.6</ele>
        <time>2020-08-12T10:08:46Z</time>
      </trkpt>
      <trkpt lat="48.64665" lon="7.19065">
        <ele>445</ele>
        <time>2020-08-12T10:08:49Z</time>
      </trkpt>
      <trkpt lat="48.64658" lon="7.1905">
        <ele>445.5</ele>
        <time>2020-08-12T10:08:51Z</time>
      </trkpt>
      <trkpt lat="48.64653" lon="7.19032">
        <ele>444.1</ele>
        <time>2020-08-12T10:08:53Z</time>
      </trkpt>
      <trkpt lat="48.64644" lon="7.19016">
        <ele>444.1</ele>
        <time>2020-08-12T10:08:55Z</time>
      </trkpt>
      <trkpt lat="48.64635" lon="7.19003">
        <ele>443.6</ele>
        <time>2020-08-12T10:08:57Z</time>
      </trkpt>
      <trkpt lat="48.64625" lon="7.18992">
        <ele>443</ele>
        <time>2020-08-12T10:08:59Z</time>
      </trkpt>
      <trkpt lat="48.64615" lon="7.1898">
        <ele>442.6</ele>
        <time>2020-08-12T10:09:01Z</time>
      </trkpt>
      <trkpt lat="48.64599" lon="7.18963">
        <ele>442.5</ele>
        <time>2020-08-12T10:09:04Z</time>
      </trkpt>
      <trkpt lat="48.64586" lon="7.18958">
        <ele>442.7</ele>
        <time>2020-08-12T10:09:06Z</time>
      </trkpt>
      <trkpt lat="48.64574" lon="7.1896">
        <ele>442.6</ele>
        <time>2020-08-12T10:09:08Z</time>
      </trkpt>
      <trkpt lat="48.64561" lon="7.18978">
        <ele>440.7</ele>
        <time>2020-08-12T10:09:11Z</time>
      </trkpt>
      <trkpt lat="48.64552" lon="7.18994">
        <ele>439.3</ele>
        <time>2020-08-12T10:09:13Z</time>
      </trkpt>
      <trkpt lat="48.64543" lon="7.19011">
        <ele>437.9</ele>
        <time>2020-08-12T10:09:15Z</time>
      </trkpt>
      <trkpt lat="48.64534" lon="7.19026">
        <ele>436.4</ele>
        <time>2020-08-12T10:09:17Z</time>
      </trkpt>
      <trkpt lat="48.64527" lon="7.19037">
        <ele>435.1</ele>
        <time>2020-08-12T10:09:19Z</time>
      </trkpt>
      <trkpt lat="48.64519" lon="7.1905">
        <ele>433.5</ele>
        <time>2020-08-12T10:09:21Z</time>
      </trkpt>
      <trkpt lat="48.64513" lon="7.19062">
        <ele>432.9</ele>
        <time>2020-08-12T10:09:23Z</time>
      </trkpt>
      <trkpt lat="48.64507" lon="7.19075">
        <ele>432</ele>
        <time>2020-08-12T10:09:25Z</time>
      </trkpt>
      <trkpt lat="48.645" lon="7.1909">
        <ele>430.9</ele>
        <time>2020-08-12T10:09:27Z</time>
      </trkpt>
      <trkpt lat="48.64493" lon="7.19108">
        <ele>429.7</ele>
        <time>2020-08-12T10:09:29Z</time>
      </trkpt>
      <trkpt lat="48.64487" lon="7.19128">
        <ele>428.6</ele>
        <time>2020-08-12T10:09:31Z</time>
      </trkpt>
      <trkpt lat="48.64481" lon="7.19148">
        <ele>426.9</ele>
        <time>2020-08-12T10:09:33Z</time>
      </trkpt>
      <trkpt lat="48.64475" lon="7.19168">
        <ele>425.4</ele>
        <time>2020-08-12T10:09:35Z</time>
      </trkpt>
      <trkpt lat="48.6447" lon="7.19187">
        <ele>424.3</ele>
        <time>2020-08-12T10:09:37Z</time>
      </trkpt>
      <trkpt lat="48.64467" lon="7.19207">
        <ele>423.3</ele>
        <time>2020-08-12T10:09:39Z</time>
      </trkpt>
      <trkpt lat="48.64463" lon="7.19226">
        <ele>421.9</ele>
        <time>2020-08-12T10:09:41Z</time>
      </trkpt>
      <trkpt lat="48.64459" lon="7.19243">
        <ele>420.7</ele>
        <time>2020-08-12T10:09:43Z</time>
      </trkpt>
      <trkpt lat="48.64454" lon="7.19257">
        <ele>419.7</ele>
        <time>2020-08-12T10:09:45Z</time>
      </trkpt>
      <trkpt lat="48.64444" lon="7.19263">
        <ele>417.6</ele>
        <time>2020-08-12T10:09:47Z</time>
      </trkpt>
      <trkpt lat="48.64433" lon="7.19262">
        <ele>416</ele>
        <time>2020-08-12T10:09:49Z</time>
      </trkpt>
      <trkpt lat="48.64423" lon="7.19261">
        <ele>415</ele>
        <time>2020-08-12T10:09:51Z</time>
      </trkpt>
      <trkpt lat="48.64419" lon="7.19265">
        <ele>412.9</ele>
        <time>2020-08-12T10:09:54Z</time>
      </trkpt>
      <trkpt lat="48.64422" lon="7.19271">
        <ele>405.1</ele>
        <time>2020-08-12T10:10:25Z</time>
      </trkpt>
      <trkpt lat="48.64426" lon="7.19275">
        <ele>406</ele>
        <time>2020-08-12T10:10:27Z</time>
      </trkpt>
      <trkpt lat="48.64432" lon="7.19284">
        <ele>406.1</ele>
        <time>2020-08-12T10:10:29Z</time>
      </trkpt>
      <trkpt lat="48.64437" lon="7.19289">
        <ele>405</ele>
        <time>2020-08-12T10:10:31Z</time>
      </trkpt>
      <trkpt lat="48.64445" lon="7.19293">
        <ele>405.1</ele>
        <time>2020-08-12T10:10:33Z</time>
      </trkpt>
      <trkpt lat="48.64456" lon="7.1929">
        <ele>404</ele>
        <time>2020-08-12T10:10:35Z</time>
      </trkpt>
      <trkpt lat="48.6447" lon="7.19274">
        <ele>402.9</ele>
        <time>2020-08-12T10:10:38Z</time>
      </trkpt>
      <trkpt lat="48.64483" lon="7.19248">
        <ele>401.4</ele>
        <time>2020-08-12T10:10:41Z</time>
      </trkpt>
      <trkpt lat="48.64494" lon="7.19229">
        <ele>400.3</ele>
        <time>2020-08-12T10:10:43Z</time>
      </trkpt>
      <trkpt lat="48.64506" lon="7.19209">
        <ele>398.7</ele>
        <time>2020-08-12T10:10:45Z</time>
      </trkpt>
      <trkpt lat="48.6452" lon="7.1919">
        <ele>397.4</ele>
        <time>2020-08-12T10:10:47Z</time>
      </trkpt>
      <trkpt lat="48.64534" lon="7.19174">
        <ele>395.8</ele>
        <time>2020-08-12T10:10:49Z</time>
      </trkpt>
      <trkpt lat="48.64547" lon="7.1916">
        <ele>394</ele>
        <time>2020-08-12T10:10:51Z</time>
      </trkpt>
      <trkpt lat="48.64558" lon="7.19152">
        <ele>392.3</ele>
        <time>2020-08-12T10:10:53Z</time>
      </trkpt>
      <trkpt lat="48.64567" lon="7.19152">
        <ele>390.9</ele>
        <time>2020-08-12T10:10:55Z</time>
      </trkpt>
      <trkpt lat="48.64572" lon="7.19155">
        <ele>389.9</ele>
        <time>2020-08-12T10:10:57Z</time>
      </trkpt>
      <trkpt lat="48.64576" lon="7.19155">
        <ele>389.1</ele>
        <time>2020-08-12T10:11:03Z</time>
      </trkpt>
      <trkpt lat="48.6458" lon="7.19159">
        <ele>393.1</ele>
        <time>2020-08-12T10:11:21Z</time>
      </trkpt>
      <trkpt lat="48.64584" lon="7.19169">
        <ele>393.3</ele>
        <time>2020-08-12T10:11:25Z</time>
      </trkpt>
      <trkpt lat="48.64589" lon="7.19181">
        <ele>392.1</ele>
        <time>2020-08-12T10:11:27Z</time>
      </trkpt>
      <trkpt lat="48.64594" lon="7.19197">
        <ele>391</ele>
        <time>2020-08-12T10:11:29Z</time>
      </trkpt>
      <trkpt lat="48.64601" lon="7.19217">
        <ele>389.8</ele>
        <time>2020-08-12T10:11:31Z</time>
      </trkpt>
      <trkpt lat="48.64609" lon="7.1924">
        <ele>388.1</ele>
        <time>2020-08-12T10:11:33Z</time>
      </trkpt>
      <trkpt lat="48.64615" lon="7.19266">
        <ele>387.2</ele>
        <time>2020-08-12T10:11:35Z</time>
      </trkpt>
      <trkpt lat="48.64617" lon="7.19291">
        <ele>386.6</ele>
        <time>2020-08-12T10:11:37Z</time>
      </trkpt>
      <trkpt lat="48.64617" lon="7.19316">
        <ele>385.4</ele>
        <time>2020-08-12T10:11:39Z</time>
      </trkpt>
      <trkpt lat="48.64616" lon="7.19334">
        <ele>384.4</ele>
        <time>2020-08-12T10:11:41Z</time>
      </trkpt>
      <trkpt lat="48.64615" lon="7.19343">
        <ele>383.5</ele>
        <time>2020-08-12T10:11:43Z</time>
      </trkpt>
      <trkpt lat="48.64614" lon="7.19351">
        <ele>379.5</ele>
        <time>2020-08-12T10:11:55Z</time>
      </trkpt>
      <trkpt lat="48.64614" lon="7.19359">
        <ele>378.9</ele>
        <time>2020-08-12T10:11:57Z</time>
      </trkpt>
      <trkpt lat="48.64613" lon="7.19369">
        <ele>378</ele>
        <time>2020-08-12T10:11:59Z</time>
      </trkpt>
      <trkpt lat="48.64613" lon="7.19383">
        <ele>376.8</ele>
        <time>2020-08-12T10:12:01Z</time>
      </trkpt>
      <trkpt lat="48.64612" lon="7.194">
        <ele>375.5</ele>
        <time>2020-08-12T10:12:03Z</time>
      </trkpt>
      <trkpt lat="48.64612" lon="7.19419">
        <ele>374.4</ele>
        <time>2020-08-12T10:12:05Z</time>
      </trkpt>
      <trkpt lat="48.64612" lon="7.19438">
        <ele>373.7</ele>
        <time>2020-08-12T10:12:07Z</time>
      </trkpt>
      <trkpt lat="48.6461" lon="7.19457">
        <ele>372.2</ele>
        <time>2020-08-12T10:12:09Z</time>
      </trkpt>
      <trkpt lat="48.64605" lon="7.19488">
        <ele>369.7</ele>
        <time>2020-08-12T10:12:12Z</time>
      </trkpt>
      <trkpt lat="48.64602" lon="7.1951">
        <ele>368.1</ele>
        <time>2020-08-12T10:12:14Z</time>
      </trkpt>
      <trkpt lat="48.64601" lon="7.19532">
        <ele>366.5</ele>
        <time>2020-08-12T10:12:16Z</time>
      </trkpt>
      <trkpt lat="48.64602" lon="7.1955">
        <ele>364.1</ele>
        <time>2020-08-12T10:12:18Z</time>
      </trkpt>
      <trkpt lat="48.64604" lon="7.19568">
        <ele>361.8</ele>
        <time>2020-08-12T10:12:20Z</time>
      </trkpt>
      <trkpt lat="48.6461" lon="7.19585">
        <ele>360.2</ele>
        <time>2020-08-12T10:12:22Z</time>
      </trkpt>
      <trkpt lat="48.64619" lon="7.19595">
        <ele>358.5</ele>
        <time>2020-08-12T10:12:24Z</time>
      </trkpt>
      <trkpt lat="48.64629" lon="7.19599">
        <ele>356.6</ele>
        <time>2020-08-12T10:12:26Z</time>
      </trkpt>
      <trkpt lat="48.64641" lon="7.19595">
        <ele>355.7</ele>
        <time>2020-08-12T10:12:28Z</time>
      </trkpt>
      <trkpt lat="48.64652" lon="7.19584">
        <ele>355.1</ele>
        <time>2020-08-12T10:12:30Z</time>
      </trkpt>
      <trkpt lat="48.64662" lon="7.19572">
        <ele>354.9</ele>
        <time>2020-08-12T10:12:32Z</time>
      </trkpt>
      <trkpt lat="48.64677" lon="7.19568">
        <ele>353.8</ele>
        <time>2020-08-12T10:12:34Z</time>
      </trkpt>
      <trkpt lat="48.64693" lon="7.19566">
        <ele>353.1</ele>
        <time>2020-08-12T10:12:36Z</time>
      </trkpt>
      <trkpt lat="48.64707" lon="7.19562">
        <ele>352.9</ele>
        <time>2020-08-12T10:12:38Z</time>
      </trkpt>
      <trkpt lat="48.64719" lon="7.19564">
        <ele>352.3</ele>
        <time>2020-08-12T10:12:40Z</time>
      </trkpt>
      <trkpt lat="48.64729" lon="7.19574">
        <ele>350.9</ele>
        <time>2020-08-12T10:12:42Z</time>
      </trkpt>
      <trkpt lat="48.64733" lon="7.19592">
        <ele>348.9</ele>
        <time>2020-08-12T10:12:44Z</time>
      </trkpt>
      <trkpt lat="48.64734" lon="7.19614">
        <ele>347.6</ele>
        <time>2020-08-12T10:12:46Z</time>
      </trkpt>
      <trkpt lat="48.64733" lon="7.19638">
        <ele>346.2</ele>
        <time>2020-08-12T10:12:48Z</time>
      </trkpt>
      <trkpt lat="48.64728" lon="7.19664">
        <ele>344.9</ele>
        <time>2020-08-12T10:12:50Z</time>
      </trkpt>
      <trkpt lat="48.64725" lon="7.1969">
        <ele>343.7</ele>
        <time>2020-08-12T10:12:52Z</time>
      </trkpt>
      <trkpt lat="48.6472" lon="7.19715">
        <ele>341.9</ele>
        <time>2020-08-12T10:12:54Z</time>
      </trkpt>
      <trkpt lat="48.64716" lon="7.19738">
        <ele>339.5</ele>
        <time>2020-08-12T10:12:56Z</time>
      </trkpt>
      <trkpt lat="48.64711" lon="7.19761">
        <ele>337.7</ele>
        <time>2020-08-12T10:12:58Z</time>
      </trkpt>
      <trkpt lat="48.64707" lon="7.19784">
        <ele>335.2</ele>
        <time>2020-08-12T10:13:00Z</time>
      </trkpt>
      <trkpt lat="48.64705" lon="7.19807">
        <ele>333.2</ele>
        <time>2020-08-12T10:13:02Z</time>
      </trkpt>
      <trkpt lat="48.64707" lon="7.1983">
        <ele>331.1</ele>
        <time>2020-08-12T10:13:04Z</time>
      </trkpt>
      <trkpt lat="48.64711" lon="7.19853">
        <ele>328.8</ele>
        <time>2020-08-12T10:13:06Z</time>
      </trkpt>
      <trkpt lat="48.64716" lon="7.19874">
        <ele>326.8</ele>
        <time>2020-08-12T10:13:08Z</time>
      </trkpt>
      <trkpt lat="48.64722" lon="7.19892">
        <ele>325</ele>
        <time>2020-08-12T10:13:10Z</time>
      </trkpt>
      <trkpt lat="48.64728" lon="7.1991">
        <ele>323.2</ele>
        <time>2020-08-12T10:13:12Z</time>
      </trkpt>
      <trkpt lat="48.64735" lon="7.19929">
        <ele>321.1</ele>
        <time>2020-08-12T10:13:14Z</time>
      </trkpt>
      <trkpt lat="48.64743" lon="7.19949">
        <ele>319.4</ele>
        <time>2020-08-12T10:13:16Z</time>
      </trkpt>
      <trkpt lat="48.64754" lon="7.19969">
        <ele>317.5</ele>
        <time>2020-08-12T10:13:18Z</time>
      </trkpt>
      <trkpt lat="48.64766" lon="7.1999">
        <ele>315.8</ele>
        <time>2020-08-12T10:13:20Z</time>
      </trkpt>
      <trkpt lat="48.64781" lon="7.20011">
        <ele>314</ele>
        <time>2020-08-12T10:13:22Z</time>
      </trkpt>
      <trkpt lat="48.64794" lon="7.20032">
        <ele>311.9</ele>
        <time>2020-08-12T10:13:24Z</time>
      </trkpt>
      <trkpt lat="48.64807" lon="7.20052">
        <ele>310.1</ele>
        <time>2020-08-12T10:13:26Z</time>
      </trkpt>
      <trkpt lat="48.64819" lon="7.20066">
        <ele>308.6</ele>
        <time>2020-08-12T10:13:28Z</time>
      </trkpt>
      <trkpt lat="48.64829" lon="7.20071">
        <ele>307.7</ele>
        <time>2020-08-12T10:13:30Z</time>
      </trkpt>
      <trkpt lat="48.64835" lon="7.20071">
        <ele>306.8</ele>
        <time>2020-08-12T10:13:32Z</time>
      </trkpt>
      <trkpt lat="48.6484" lon="7.2007">
        <ele>309.4</ele>
        <time>2020-08-12T10:13:48Z</time>
      </trkpt>
      <trkpt lat="48.64845" lon="7.20077">
        <ele>309.5</ele>
        <time>2020-08-12T10:13:51Z</time>
      </trkpt>
      <trkpt lat="48.64848" lon="7.20084">
        <ele>309.7</ele>
        <time>2020-08-12T10:13:53Z</time>
      </trkpt>
      <trkpt lat="48.64854" lon="7.2009">
        <ele>309.6</ele>
        <time>2020-08-12T10:13:55Z</time>
      </trkpt>
      <trkpt lat="48.64861" lon="7.20095">
        <ele>309.4</ele>
        <time>2020-08-12T10:13:57Z</time>
      </trkpt>
      <trkpt lat="48.64867" lon="7.20102">
        <ele>309</ele>
        <time>2020-08-12T10:13:59Z</time>
      </trkpt>
      <trkpt lat="48.64872" lon="7.20107">
        <ele>307.9</ele>
        <time>2020-08-12T10:14:01Z</time>
      </trkpt>
      <trkpt lat="48.64878" lon="7.20109">
        <ele>307.4</ele>
        <time>2020-08-12T10:14:03Z</time>
      </trkpt>
      <trkpt lat="48.64883" lon="7.20106">
        <ele>306.9</ele>
        <time>2020-08-12T10:14:07Z</time>
      </trkpt>
      <trkpt lat="48.64887" lon="7.20102">
        <ele>308.2</ele>
        <time>2020-08-12T10:14:16Z</time>
      </trkpt>
      <trkpt lat="48.64892" lon="7.20094">
        <ele>307.8</ele>
        <time>2020-08-12T10:14:19Z</time>
      </trkpt>
      <trkpt lat="48.64896" lon="7.20088">
        <ele>307.9</ele>
        <time>2020-08-12T10:14:21Z</time>
      </trkpt>
      <trkpt lat="48.64902" lon="7.20082">
        <ele>307.9</ele>
        <time>2020-08-12T10:14:23Z</time>
      </trkpt>
      <trkpt lat="48.64909" lon="7.20075">
        <ele>307.6</ele>
        <time>2020-08-12T10:14:25Z</time>
      </trkpt>
      <trkpt lat="48.64916" lon="7.2007">
        <ele>307.1</ele>
        <time>2020-08-12T10:14:27Z</time>
      </trkpt>
      <trkpt lat="48.64925" lon="7.20068">
        <ele>306.5</ele>
        <time>2020-08-12T10:14:29Z</time>
      </trkpt>
      <trkpt lat="48.64935" lon="7.20066">
        <ele>306</ele>
        <time>2020-08-12T10:14:31Z</time>
      </trkpt>
      <trkpt lat="48.64944" lon="7.20065">
        <ele>305.9</ele>
        <time>2020-08-12T10:14:33Z</time>
      </trkpt>
      <trkpt lat="48.64954" lon="7.20066">
        <ele>305.8</ele>
        <time>2020-08-12T10:14:35Z</time>
      </trkpt>
      <trkpt lat="48.64963" lon="7.2007">
        <ele>305.1</ele>
        <time>2020-08-12T10:14:37Z</time>
      </trkpt>
      <trkpt lat="48.64972" lon="7.20074">
        <ele>304.8</ele>
        <time>2020-08-12T10:14:39Z</time>
      </trkpt>
      <trkpt lat="48.64981" lon="7.2008">
        <ele>304.6</ele>
        <time>2020-08-12T10:14:41Z</time>
      </trkpt>
      <trkpt lat="48.64987" lon="7.20085">
        <ele>305.5</ele>
        <time>2020-08-12T10:14:43Z</time>
      </trkpt>
      <trkpt lat="48.64993" lon="7.20091">
        <ele>307.2</ele>
        <time>2020-08-12T10:14:45Z</time>
      </trkpt>
      <trkpt lat="48.65" lon="7.20098">
        <ele>308</ele>
        <time>2020-08-12T10:14:47Z</time>
      </trkpt>
      <trkpt lat="48.65007" lon="7.20102">
        <ele>309</ele>
        <time>2020-08-12T10:14:49Z</time>
      </trkpt>
      <trkpt lat="48.65011" lon="7.20106">
        <ele>310.2</ele>
        <time>2020-08-12T10:14:53Z</time>
      </trkpt>
      <trkpt lat="48.65014" lon="7.20112">
        <ele>311.6</ele>
        <time>2020-08-12T10:15:26Z</time>
      </trkpt>
      <trkpt lat="48.65019" lon="7.20115">
        <ele>311.6</ele>
        <time>2020-08-12T10:15:29Z</time>
      </trkpt>
      <trkpt lat="48.65025" lon="7.2012">
        <ele>312.2</ele>
        <time>2020-08-12T10:15:31Z</time>
      </trkpt>
      <trkpt lat="48.65029" lon="7.20124">
        <ele>313.2</ele>
        <time>2020-08-12T10:15:33Z</time>
      </trkpt>
      <trkpt lat="48.65035" lon="7.20129">
        <ele>313.5</ele>
        <time>2020-08-12T10:15:35Z</time>
      </trkpt>
      <trkpt lat="48.65039" lon="7.20134">
        <ele>314.1</ele>
        <time>2020-08-12T10:15:37Z</time>
      </trkpt>
      <trkpt lat="48.65048" lon="7.20142">
        <ele>314.5</ele>
        <time>2020-08-12T10:15:39Z</time>
      </trkpt>
      <trkpt lat="48.65057" lon="7.20148">
        <ele>314.5</ele>
        <time>2020-08-12T10:15:41Z</time>
      </trkpt>
      <trkpt lat="48.65067" lon="7.20154">
        <ele>314.1</ele>
        <time>2020-08-12T10:15:43Z</time>
      </trkpt>
      <trkpt lat="48.65077" lon="7.2016">
        <ele>314</ele>
        <time>2020-08-12T10:15:45Z</time>
      </trkpt>
      <trkpt lat="48.65089" lon="7.20167">
        <ele>313.3</ele>
        <time>2020-08-12T10:15:47Z</time>
      </trkpt>
      <trkpt lat="48.65101" lon="7.20173">
        <ele>312.4</ele>
        <time>2020-08-12T10:15:49Z</time>
      </trkpt>
      <trkpt lat="48.65113" lon="7.20179">
        <ele>312.2</ele>
        <time>2020-08-12T10:15:51Z</time>
      </trkpt>
      <trkpt lat="48.65125" lon="7.20183">
        <ele>312.5</ele>
        <time>2020-08-12T10:15:53Z</time>
      </trkpt>
      <trkpt lat="48.65136" lon="7.20187">
        <ele>312.2</ele>
        <time>2020-08-12T10:15:55Z</time>
      </trkpt>
      <trkpt lat="48.65146" lon="7.20192">
        <ele>311.9</ele>
        <time>2020-08-12T10:15:57Z</time>
      </trkpt>
      <trkpt lat="48.65157" lon="7.20194">
        <ele>312</ele>
        <time>2020-08-12T10:15:59Z</time>
      </trkpt>
      <trkpt lat="48.65167" lon="7.20193">
        <ele>311.7</ele>
        <time>2020-08-12T10:16:01Z</time>
      </trkpt>
      <trkpt lat="48.65178" lon="7.20193">
        <ele>311.6</ele>
        <time>2020-08-12T10:16:03Z</time>
      </trkpt>
      <trkpt lat="48.65188" lon="7.20195">
        <ele>311.3</ele>
        <time>2020-08-12T10:16:05Z</time>
      </trkpt>
      <trkpt lat="48.652" lon="7.20197">
        <ele>311.1</ele>
        <time>2020-08-12T10:16:07Z</time>
      </trkpt>
      <trkpt lat="48.65209" lon="7.202">
        <ele>310.6</ele>
        <time>2020-08-12T10:16:09Z</time>
      </trkpt>
      <trkpt lat="48.6522" lon="7.20205">
        <ele>309.9</ele>
        <time>2020-08-12T10:16:11Z</time>
      </trkpt>
      <trkpt lat="48.6523" lon="7.2021">
        <ele>309.8</ele>
        <time>2020-08-12T10:16:13Z</time>
      </trkpt>
      <trkpt lat="48.65241" lon="7.20217">
        <ele>310.1</ele>
        <time>2020-08-12T10:16:15Z</time>
      </trkpt>
      <trkpt lat="48.65245" lon="7.20222">
        <ele>309.7</ele>
        <time>2020-08-12T10:16:17Z</time>
      </trkpt>
      <trkpt lat="48.65248" lon="7.20228">
        <ele>309.4</ele>
        <time>2020-08-12T10:16:23Z</time>
      </trkpt>
      <trkpt lat="48.65253" lon="7.20232">
        <ele>307.8</ele>
        <time>2020-08-12T10:16:33Z</time>
      </trkpt>
      <trkpt lat="48.65259" lon="7.20234">
        <ele>307.4</ele>
        <time>2020-08-12T10:16:35Z</time>
      </trkpt>
      <trkpt lat="48.65266" lon="7.20237">
        <ele>307.2</ele>
        <time>2020-08-12T10:16:37Z</time>
      </trkpt>
      <trkpt lat="48.65274" lon="7.20241">
        <ele>307.4</ele>
        <time>2020-08-12T10:16:39Z</time>
      </trkpt>
      <trkpt lat="48.65284" lon="7.20246">
        <ele>307.4</ele>
        <time>2020-08-12T10:16:41Z</time>
      </trkpt>
      <trkpt lat="48.65293" lon="7.20253">
        <ele>307.6</ele>
        <time>2020-08-12T10:16:43Z</time>
      </trkpt>
      <trkpt lat="48.65301" lon="7.2026">
        <ele>308.2</ele>
        <time>2020-08-12T10:16:45Z</time>
      </trkpt>
      <trkpt lat="48.65311" lon="7.20269">
        <ele>307.8</ele>
        <time>2020-08-12T10:16:47Z</time>
      </trkpt>
      <trkpt lat="48.65322" lon="7.2028">
        <ele>307.3</ele>
        <time>2020-08-12T10:16:49Z</time>
      </trkpt>
      <trkpt lat="48.65332" lon="7.20289">
        <ele>306.8</ele>
        <time>2020-08-12T10:16:51Z</time>
      </trkpt>
      <trkpt lat="48.65344" lon="7.20299">
        <ele>306.5</ele>
        <time>2020-08-12T10:16:53Z</time>
      </trkpt>
      <trkpt lat="48.65353" lon="7.20306">
        <ele>306.3</ele>
        <time>2020-08-12T10:16:55Z</time>
      </trkpt>
      <trkpt lat="48.65364" lon="7.20313">
        <ele>306.1</ele>
        <time>2020-08-12T10:16:57Z</time>
      </trkpt>
      <trkpt lat="48.65374" lon="7.2032">
        <ele>304.9</ele>
        <time>2020-08-12T10:16:59Z</time>
      </trkpt>
      <trkpt lat="48.65384" lon="7.20325">
        <ele>304</ele>
        <time>2020-08-12T10:17:01Z</time>
      </trkpt>
      <trkpt lat="48.65393" lon="7.20329">
        <ele>303.1</ele>
        <time>2020-08-12T10:17:03Z</time>
      </trkpt>
      <trkpt lat="48.654" lon="7.20333">
        <ele>302.5</ele>
        <time>2020-08-12T10:17:05Z</time>
      </trkpt>
      <trkpt lat="48.6541" lon="7.20337">
        <ele>302</ele>
        <time>2020-08-12T10:17:07Z</time>
      </trkpt>
      <trkpt lat="48.65419" lon="7.20341">
        <ele>302</ele>
        <time>2020-08-12T10:17:09Z</time>
      </trkpt>
      <trkpt lat="48.65428" lon="7.20341">
        <ele>302</ele>
        <time>2020-08-12T10:17:11Z</time>
      </trkpt>
      <trkpt lat="48.65434" lon="7.20344">
        <ele>301.8</ele>
        <time>2020-08-12T10:17:13Z</time>
      </trkpt>
      <trkpt lat="48.6544" lon="7.20348">
        <ele>302.2</ele>
        <time>2020-08-12T10:17:15Z</time>
      </trkpt>
      <trkpt lat="48.65447" lon="7.20351">
        <ele>302.5</ele>
        <time>2020-08-12T10:17:17Z</time>
      </trkpt>
      <trkpt lat="48.65454" lon="7.20355">
        <ele>303.2</ele>
        <time>2020-08-12T10:17:19Z</time>
      </trkpt>
      <trkpt lat="48.65464" lon="7.20357">
        <ele>304</ele>
        <time>2020-08-12T10:17:21Z</time>
      </trkpt>
      <trkpt lat="48.65472" lon="7.2036">
        <ele>303.9</ele>
        <time>2020-08-12T10:17:23Z</time>
      </trkpt>
      <trkpt lat="48.65476" lon="7.20362">
        <ele>304.4</ele>
        <time>2020-08-12T10:17:26Z</time>
      </trkpt>
      <trkpt lat="48.65481" lon="7.20363">
        <ele>306.6</ele>
        <time>2020-08-12T10:17:39Z</time>
      </trkpt>
      <trkpt lat="48.65487" lon="7.20364">
        <ele>306.8</ele>
        <time>2020-08-12T10:17:42Z</time>
      </trkpt>
      <trkpt lat="48.65492" lon="7.20364">
        <ele>305.6</ele>
        <time>2020-08-12T10:17:44Z</time>
      </trkpt>
      <trkpt lat="48.65497" lon="7.20367">
        <ele>304.6</ele>
        <time>2020-08-12T10:17:47Z</time>
      </trkpt>
      <trkpt lat="48.65503" lon="7.20368">
        <ele>304.2</ele>
        <time>2020-08-12T10:17:51Z</time>
      </trkpt>
      <trkpt lat="48.65509" lon="7.20366">
        <ele>304</ele>
        <time>2020-08-12T10:17:54Z</time>
      </trkpt>
      <trkpt lat="48.65514" lon="7.20364">
        <ele>303.5</ele>
        <time>2020-08-12T10:17:56Z</time>
      </trkpt>
      <trkpt lat="48.65519" lon="7.20365">
        <ele>302.9</ele>
        <time>2020-08-12T10:18:00Z</time>
      </trkpt>
      <trkpt lat="48.65524" lon="7.20364">
        <ele>301.3</ele>
        <time>2020-08-12T10:18:06Z</time>
      </trkpt>
      <trkpt lat="48.65528" lon="7.20368">
        <ele>299.1</ele>
        <time>2020-08-12T10:18:12Z</time>
      </trkpt>
      <trkpt lat="48.65532" lon="7.20365">
        <ele>298.7</ele>
        <time>2020-08-12T10:18:17Z</time>
      </trkpt>
      <trkpt lat="48.65537" lon="7.20367">
        <ele>297.7</ele>
        <time>2020-08-12T10:18:28Z</time>
      </trkpt>
      <trkpt lat="48.65543" lon="7.20365">
        <ele>298.2</ele>
        <time>2020-08-12T10:18:34Z</time>
      </trkpt>
      <trkpt lat="48.65547" lon="7.20361">
        <ele>298.9</ele>
        <time>2020-08-12T10:18:37Z</time>
      </trkpt>
      <trkpt lat="48.65553" lon="7.20358">
        <ele>297.4</ele>
        <time>2020-08-12T10:18:40Z</time>
      </trkpt>
      <trkpt lat="48.65558" lon="7.20354">
        <ele>296.2</ele>
        <time>2020-08-12T10:18:43Z</time>
      </trkpt>
      <trkpt lat="48.65563" lon="7.20354">
        <ele>295.8</ele>
        <time>2020-08-12T10:18:57Z</time>
      </trkpt>
      <trkpt lat="48.65569" lon="7.20356">
        <ele>296.5</ele>
        <time>2020-08-12T10:19:02Z</time>
      </trkpt>
      <trkpt lat="48.65573" lon="7.20359">
        <ele>299.8</ele>
        <time>2020-08-12T10:19:10Z</time>
      </trkpt>
      <trkpt lat="48.65578" lon="7.20357">
        <ele>299.9</ele>
        <time>2020-08-12T10:19:19Z</time>
      </trkpt>
      <trkpt lat="48.65583" lon="7.2035">
        <ele>301.8</ele>
        <time>2020-08-12T10:19:23Z</time>
      </trkpt>
      <trkpt lat="48.65587" lon="7.20345">
        <ele>303</ele>
        <time>2020-08-12T10:19:25Z</time>
      </trkpt>
      <trkpt lat="48.65592" lon="7.20341">
        <ele>302.6</ele>
        <time>2020-08-12T10:19:27Z</time>
      </trkpt>
      <trkpt lat="48.65598" lon="7.20337">
        <ele>302.7</ele>
        <time>2020-08-12T10:19:29Z</time>
      </trkpt>
      <trkpt lat="48.65604" lon="7.20332">
        <ele>301.8</ele>
        <time>2020-08-12T10:19:31Z</time>
      </trkpt>
      <trkpt lat="48.6561" lon="7.20327">
        <ele>301.2</ele>
        <time>2020-08-12T10:19:33Z</time>
      </trkpt>
      <trkpt lat="48.65616" lon="7.20322">
        <ele>299.9</ele>
        <time>2020-08-12T10:19:35Z</time>
      </trkpt>
      <trkpt lat="48.65624" lon="7.20317">
        <ele>299.3</ele>
        <time>2020-08-12T10:19:37Z</time>
      </trkpt>
      <trkpt lat="48.65632" lon="7.20314">
        <ele>299.2</ele>
        <time>2020-08-12T10:19:39Z</time>
      </trkpt>
      <trkpt lat="48.65639" lon="7.20311">
        <ele>299.2</ele>
        <time>2020-08-12T10:19:41Z</time>
      </trkpt>
      <trkpt lat="48.65645" lon="7.20304">
        <ele>299.3</ele>
        <time>2020-08-12T10:19:43Z</time>
      </trkpt>
      <trkpt lat="48.65651" lon="7.20292">
        <ele>299.2</ele>
        <time>2020-08-12T10:19:45Z</time>
      </trkpt>
      <trkpt lat="48.65656" lon="7.20277">
        <ele>298.9</ele>
        <time>2020-08-12T10:19:47Z</time>
      </trkpt>
      <trkpt lat="48.65661" lon="7.20261">
        <ele>298.6</ele>
        <time>2020-08-12T10:19:49Z</time>
      </trkpt>
      <trkpt lat="48.65664" lon="7.20253">
        <ele>297.9</ele>
        <time>2020-08-12T10:19:51Z</time>
      </trkpt>
      <trkpt lat="48.65667" lon="7.20245">
        <ele>298.8</ele>
        <time>2020-08-12T10:20:13Z</time>
      </trkpt>
      <trkpt lat="48.65669" lon="7.20238">
        <ele>297.7</ele>
        <time>2020-08-12T10:20:15Z</time>
      </trkpt>
      <trkpt lat="48.65672" lon="7.20225">
        <ele>297</ele>
        <time>2020-08-12T10:20:17Z</time>
      </trkpt>
      <trkpt lat="48.65675" lon="7.20212">
        <ele>296.7</ele>
        <time>2020-08-12T10:20:19Z</time>
      </trkpt>
      <trkpt lat="48.65678" lon="7.20198">
        <ele>296.4</ele>
        <time>2020-08-12T10:20:21Z</time>
      </trkpt>
      <trkpt lat="48.6568" lon="7.20183">
        <ele>295.7</ele>
        <time>2020-08-12T10:20:23Z</time>
      </trkpt>
      <trkpt lat="48.6568" lon="7.20166">
        <ele>295.6</ele>
        <time>2020-08-12T10:20:25Z</time>
      </trkpt>
      <trkpt lat="48.6568" lon="7.20149">
        <ele>294.4</ele>
        <time>2020-08-12T10:20:27Z</time>
      </trkpt>
      <trkpt lat="48.65679" lon="7.20132">
        <ele>293.8</ele>
        <time>2020-08-12T10:20:29Z</time>
      </trkpt>
      <trkpt lat="48.65676" lon="7.20116">
        <ele>293.1</ele>
        <time>2020-08-12T10:20:31Z</time>
      </trkpt>
      <trkpt lat="48.65674" lon="7.20098">
        <ele>292.2</ele>
        <time>2020-08-12T10:20:33Z</time>
      </trkpt>
      <trkpt lat="48.65672" lon="7.20079">
        <ele>291.5</ele>
        <time>2020-08-12T10:20:35Z</time>
      </trkpt>
      <trkpt lat="48.65676" lon="7.20068">
        <ele>290.2</ele>
        <time>2020-08-12T10:20:37Z</time>
      </trkpt>
      <trkpt lat="48.65679" lon="7.20062">
        <ele>291</ele>
        <time>2020-08-12T10:20:39Z</time>
      </trkpt>
      <trkpt lat="48.65687" lon="7.20062">
        <ele>291.7</ele>
        <time>2020-08-12T10:20:42Z</time>
      </trkpt>
      <trkpt lat="48.65695" lon="7.20066">
        <ele>292.4</ele>
        <time>2020-08-12T10:20:44Z</time>
      </trkpt>
      <trkpt lat="48.65701" lon="7.20072">
        <ele>292.8</ele>
        <time>2020-08-12T10:20:46Z</time>
      </trkpt>
      <trkpt lat="48.6571" lon="7.20079">
        <ele>292.3</ele>
        <time>2020-08-12T10:20:48Z</time>
      </trkpt>
      <trkpt lat="48.65718" lon="7.20085">
        <ele>292.2</ele>
        <time>2020-08-12T10:20:50Z</time>
      </trkpt>
      <trkpt lat="48.65728" lon="7.20088">
        <ele>292.6</ele>
        <time>2020-08-12T10:20:52Z</time>
      </trkpt>
      <trkpt lat="48.65738" lon="7.20089">
        <ele>292.4</ele>
        <time>2020-08-12T10:20:54Z</time>
      </trkpt>
      <trkpt lat="48.65748" lon="7.20086">
        <ele>292.5</ele>
        <time>2020-08-12T10:20:56Z</time>
      </trkpt>
      <trkpt lat="48.65757" lon="7.20083">
        <ele>291.9</ele>
        <time>2020-08-12T10:20:58Z</time>
      </trkpt>
      <trkpt lat="48.65765" lon="7.20078">
        <ele>292</ele>
        <time>2020-08-12T10:21:00Z</time>
      </trkpt>
      <trkpt lat="48.65773" lon="7.20072">
        <ele>291.9</ele>
        <time>2020-08-12T10:21:02Z</time>
      </trkpt>
      <trkpt lat="48.65779" lon="7.20064">
        <ele>291.9</ele>
        <time>2020-08-12T10:21:04Z</time>
      </trkpt>
      <trkpt lat="48.65785" lon="7.20055">
        <ele>292.4</ele>
        <time>2020-08-12T10:21:06Z</time>
      </trkpt>
      <trkpt lat="48.65792" lon="7.20047">
        <ele>292.9</ele>
        <time>2020-08-12T10:21:08Z</time>
      </trkpt>
      <trkpt lat="48.65799" lon="7.20036">
        <ele>293.6</ele>
        <time>2020-08-12T10:21:10Z</time>
      </trkpt>
      <trkpt lat="48.65804" lon="7.20025">
        <ele>292.4</ele>
        <time>2020-08-12T10:21:12Z</time>
      </trkpt>
      <trkpt lat="48.65809" lon="7.20012">
        <ele>291.3</ele>
        <time>2020-08-12T10:21:14Z</time>
      </trkpt>
      <trkpt lat="48.65812" lon="7.19997">
        <ele>290.5</ele>
        <time>2020-08-12T10:21:16Z</time>
      </trkpt>
      <trkpt lat="48.65817" lon="7.19981">
        <ele>289.1</ele>
        <time>2020-08-12T10:21:18Z</time>
      </trkpt>
      <trkpt lat="48.65821" lon="7.19965">
        <ele>288.6</ele>
        <time>2020-08-12T10:21:20Z</time>
      </trkpt>
      <trkpt lat="48.65826" lon="7.19949">
        <ele>288</ele>
        <time>2020-08-12T10:21:22Z</time>
      </trkpt>
      <trkpt lat="48.6583" lon="7.19933">
        <ele>287.6</ele>
        <time>2020-08-12T10:21:24Z</time>
      </trkpt>
      <trkpt lat="48.65834" lon="7.19918">
        <ele>287.7</ele>
        <time>2020-08-12T10:21:26Z</time>
      </trkpt>
      <trkpt lat="48.6584" lon="7.19902">
        <ele>287.8</ele>
        <time>2020-08-12T10:21:28Z</time>
      </trkpt>
      <trkpt lat="48.65847" lon="7.19889">
        <ele>287.8</ele>
        <time>2020-08-12T10:21:30Z</time>
      </trkpt>
      <trkpt lat="48.65853" lon="7.19873">
        <ele>288.1</ele>
        <time>2020-08-12T10:21:32Z</time>
      </trkpt>
      <trkpt lat="48.65858" lon="7.19856">
        <ele>288</ele>
        <time>2020-08-12T10:21:34Z</time>
      </trkpt>
      <trkpt lat="48.65864" lon="7.1984">
        <ele>287.9</ele>
        <time>2020-08-12T10:21:36Z</time>
      </trkpt>
      <trkpt lat="48.6587" lon="7.19824">
        <ele>288.3</ele>
        <time>2020-08-12T10:21:38Z</time>
      </trkpt>
      <trkpt lat="48.65877" lon="7.19811">
        <ele>288.2</ele>
        <time>2020-08-12T10:21:40Z</time>
      </trkpt>
      <trkpt lat="48.65885" lon="7.19799">
        <ele>287.5</ele>
        <time>2020-08-12T10:21:42Z</time>
      </trkpt>
      <trkpt lat="48.65894" lon="7.19792">
        <ele>287.2</ele>
        <time>2020-08-12T10:21:44Z</time>
      </trkpt>
      <trkpt lat="48.65905" lon="7.19791">
        <ele>286.6</ele>
        <time>2020-08-12T10:21:46Z</time>
      </trkpt>
      <trkpt lat="48.65914" lon="7.19794">
        <ele>286.8</ele>
        <time>2020-08-12T10:21:48Z</time>
      </trkpt>
      <trkpt lat="48.65924" lon="7.19803">
        <ele>285.9</ele>
        <time>2020-08-12T10:21:50Z</time>
      </trkpt>
      <trkpt lat="48.65933" lon="7.19815">
        <ele>284.9</ele>
        <time>2020-08-12T10:21:52Z</time>
      </trkpt>
      <trkpt lat="48.65941" lon="7.1983">
        <ele>283.7</ele>
        <time>2020-08-12T10:21:54Z</time>
      </trkpt>
      <trkpt lat="48.65948" lon="7.19846">
        <ele>282.7</ele>
        <time>2020-08-12T10:21:56Z</time>
      </trkpt>
      <trkpt lat="48.65955" lon="7.19862">
        <ele>282.5</ele>
        <time>2020-08-12T10:21:58Z</time>
      </trkpt>
      <trkpt lat="48.65962" lon="7.1988">
        <ele>281.9</ele>
        <time>2020-08-12T10:22:00Z</time>
      </trkpt>
      <trkpt lat="48.65967" lon="7.19897">
        <ele>281</ele>
        <time>2020-08-12T10:22:02Z</time>
      </trkpt>
      <trkpt lat="48.65973" lon="7.19912">
        <ele>280.1</ele>
        <time>2020-08-12T10:22:04Z</time>
      </trkpt>
      <trkpt lat="48.65979" lon="7.19927">
        <ele>279.4</ele>
        <time>2020-08-12T10:22:06Z</time>
      </trkpt>
      <trkpt lat="48.65985" lon="7.1994">
        <ele>279.2</ele>
        <time>2020-08-12T10:22:08Z</time>
      </trkpt>
      <trkpt lat="48.65995" lon="7.19952">
        <ele>279.1</ele>
        <time>2020-08-12T10:22:10Z</time>
      </trkpt>
      <trkpt lat="48.66006" lon="7.19962">
        <ele>278.8</ele>
        <time>2020-08-12T10:22:12Z</time>
      </trkpt>
      <trkpt lat="48.66017" lon="7.19972">
        <ele>278.1</ele>
        <time>2020-08-12T10:22:14Z</time>
      </trkpt>
      <trkpt lat="48.66028" lon="7.1998">
        <ele>277.6</ele>
        <time>2020-08-12T10:22:16Z</time>
      </trkpt>
      <trkpt lat="48.66041" lon="7.19988">
        <ele>277.2</ele>
        <time>2020-08-12T10:22:18Z</time>
      </trkpt>
      <trkpt lat="48.66053" lon="7.19995">
        <ele>277.3</ele>
        <time>2020-08-12T10:22:20Z</time>
      </trkpt>
      <trkpt lat="48.66065" lon="7.2">
        <ele>278.8</ele>
        <time>2020-08-12T10:22:22Z</time>
      </trkpt>
      <trkpt lat="48.66076" lon="7.20005">
        <ele>279.8</ele>
        <time>2020-08-12T10:22:24Z</time>
      </trkpt>
      <trkpt lat="48.66089" lon="7.20011">
        <ele>280.7</ele>
        <time>2020-08-12T10:22:26Z</time>
      </trkpt>
      <trkpt lat="48.66101" lon="7.20018">
        <ele>281.4</ele>
        <time>2020-08-12T10:22:28Z</time>
      </trkpt>
      <trkpt lat="48.66113" lon="7.2002">
        <ele>281.9</ele>
        <time>2020-08-12T10:22:30Z</time>
      </trkpt>
      <trkpt lat="48.66124" lon="7.20017">
        <ele>282.2</ele>
        <time>2020-08-12T10:22:32Z</time>
      </trkpt>
      <trkpt lat="48.66136" lon="7.20013">
        <ele>281.7</ele>
        <time>2020-08-12T10:22:34Z</time>
      </trkpt>
      <trkpt lat="48.66147" lon="7.20007">
        <ele>281.2</ele>
        <time>2020-08-12T10:22:36Z</time>
      </trkpt>
      <trkpt lat="48.66157" lon="7.2">
        <ele>281.2</ele>
        <time>2020-08-12T10:22:38Z</time>
      </trkpt>
      <trkpt lat="48.66167" lon="7.19992">
        <ele>281.4</ele>
        <time>2020-08-12T10:22:40Z</time>
      </trkpt>
      <trkpt lat="48.66177" lon="7.19984">
        <ele>281.1</ele>
        <time>2020-08-12T10:22:42Z</time>
      </trkpt>
      <trkpt lat="48.66187" lon="7.19975">
        <ele>280.8</ele>
        <time>2020-08-12T10:22:44Z</time>
      </trkpt>
      <trkpt lat="48.66197" lon="7.19966">
        <ele>280.7</ele>
        <time>2020-08-12T10:22:46Z</time>
      </trkpt>
      <trkpt lat="48.66208" lon="7.19958">
        <ele>280.3</ele>
        <time>2020-08-12T10:22:48Z</time>
      </trkpt>
      <trkpt lat="48.66219" lon="7.1995">
        <ele>280.2</ele>
        <time>2020-08-12T10:22:50Z</time>
      </trkpt>
      <trkpt lat="48.6623" lon="7.19943">
        <ele>279.7</ele>
        <time>2020-08-12T10:22:52Z</time>
      </trkpt>
      <trkpt lat="48.66241" lon="7.19934">
        <ele>279.8</ele>
        <time>2020-08-12T10:22:54Z</time>
      </trkpt>
      <trkpt lat="48.6625" lon="7.19921">
        <ele>279.6</ele>
        <time>2020-08-12T10:22:56Z</time>
      </trkpt>
      <trkpt lat="48.66258" lon="7.19912">
        <ele>279.6</ele>
        <time>2020-08-12T10:22:58Z</time>
      </trkpt>
      <trkpt lat="48.66268" lon="7.19897">
        <ele>279.5</ele>
        <time>2020-08-12T10:23:01Z</time>
      </trkpt>
      <trkpt lat="48.66277" lon="7.19878">
        <ele>279.5</ele>
        <time>2020-08-12T10:23:04Z</time>
      </trkpt>
      <trkpt lat="48.66283" lon="7.19857">
        <ele>279.1</ele>
        <time>2020-08-12T10:23:07Z</time>
      </trkpt>
      <trkpt lat="48.66286" lon="7.19842">
        <ele>279.1</ele>
        <time>2020-08-12T10:23:09Z</time>
      </trkpt>
      <trkpt lat="48.6629" lon="7.19828">
        <ele>278.7</ele>
        <time>2020-08-12T10:23:11Z</time>
      </trkpt>
      <trkpt lat="48.66291" lon="7.19814">
        <ele>278.4</ele>
        <time>2020-08-12T10:23:13Z</time>
      </trkpt>
      <trkpt lat="48.6629" lon="7.19791">
        <ele>277.9</ele>
        <time>2020-08-12T10:23:16Z</time>
      </trkpt>
      <trkpt lat="48.66288" lon="7.19778">
        <ele>278.6</ele>
        <time>2020-08-12T10:23:18Z</time>
      </trkpt>
      <trkpt lat="48.66285" lon="7.19765">
        <ele>278.7</ele>
        <time>2020-08-12T10:23:20Z</time>
      </trkpt>
      <trkpt lat="48.66284" lon="7.19748">
        <ele>278.7</ele>
        <time>2020-08-12T10:23:22Z</time>
      </trkpt>
      <trkpt lat="48.66282" lon="7.19733">
        <ele>278.5</ele>
        <time>2020-08-12T10:23:24Z</time>
      </trkpt>
      <trkpt lat="48.66281" lon="7.19717">
        <ele>278.1</ele>
        <time>2020-08-12T10:23:26Z</time>
      </trkpt>
      <trkpt lat="48.66281" lon="7.19694">
        <ele>277.4</ele>
        <time>2020-08-12T10:23:29Z</time>
      </trkpt>
      <trkpt lat="48.66283" lon="7.19678">
        <ele>277.5</ele>
        <time>2020-08-12T10:23:31Z</time>
      </trkpt>
      <trkpt lat="48.66288" lon="7.19664">
        <ele>277.2</ele>
        <time>2020-08-12T10:23:33Z</time>
      </trkpt>
      <trkpt lat="48.66298" lon="7.19645">
        <ele>279.2</ele>
        <time>2020-08-12T10:23:36Z</time>
      </trkpt>
      <trkpt lat="48.66306" lon="7.19634">
        <ele>280.5</ele>
        <time>2020-08-12T10:23:38Z</time>
      </trkpt>
      <trkpt lat="48.66316" lon="7.19625">
        <ele>281.4</ele>
        <time>2020-08-12T10:23:40Z</time>
      </trkpt>
      <trkpt lat="48.66326" lon="7.19617">
        <ele>282.2</ele>
        <time>2020-08-12T10:23:42Z</time>
      </trkpt>
      <trkpt lat="48.66342" lon="7.19606">
        <ele>282.1</ele>
        <time>2020-08-12T10:23:45Z</time>
      </trkpt>
      <trkpt lat="48.66353" lon="7.19601">
        <ele>282</ele>
        <time>2020-08-12T10:23:47Z</time>
      </trkpt>
      <trkpt lat="48.66365" lon="7.19597">
        <ele>280.7</ele>
        <time>2020-08-12T10:23:49Z</time>
      </trkpt>
      <trkpt lat="48.66375" lon="7.19594">
        <ele>280.1</ele>
        <time>2020-08-12T10:23:51Z</time>
      </trkpt>
      <trkpt lat="48.66385" lon="7.1959">
        <ele>279.4</ele>
        <time>2020-08-12T10:23:53Z</time>
      </trkpt>
      <trkpt lat="48.66397" lon="7.19587">
        <ele>279.2</ele>
        <time>2020-08-12T10:23:55Z</time>
      </trkpt>
      <trkpt lat="48.66408" lon="7.19584">
        <ele>279.1</ele>
        <time>2020-08-12T10:23:57Z</time>
      </trkpt>
      <trkpt lat="48.66421" lon="7.19584">
        <ele>279.1</ele>
        <time>2020-08-12T10:23:59Z</time>
      </trkpt>
      <trkpt lat="48.66432" lon="7.19586">
        <ele>279.2</ele>
        <time>2020-08-12T10:24:01Z</time>
      </trkpt>
      <trkpt lat="48.66444" lon="7.19589">
        <ele>279.2</ele>
        <time>2020-08-12T10:24:03Z</time>
      </trkpt>
      <trkpt lat="48.66455" lon="7.19591">
        <ele>279.6</ele>
        <time>2020-08-12T10:24:05Z</time>
      </trkpt>
      <trkpt lat="48.66466" lon="7.19593">
        <ele>279.5</ele>
        <time>2020-08-12T10:24:07Z</time>
      </trkpt>
      <trkpt lat="48.66482" lon="7.19592">
        <ele>279.2</ele>
        <time>2020-08-12T10:24:10Z</time>
      </trkpt>
      <trkpt lat="48.66489" lon="7.19593">
        <ele>278.8</ele>
        <time>2020-08-12T10:24:12Z</time>
      </trkpt>
      <trkpt lat="48.665" lon="7.19594">
        <ele>278.3</ele>
        <time>2020-08-12T10:24:14Z</time>
      </trkpt>
      <trkpt lat="48.66515" lon="7.19594">
        <ele>277.8</ele>
        <time>2020-08-12T10:24:17Z</time>
      </trkpt>
      <trkpt lat="48.66521" lon="7.19594">
        <ele>277</ele>
        <time>2020-08-12T10:24:19Z</time>
      </trkpt>
      <trkpt lat="48.66526" lon="7.19594">
        <ele>280.2</ele>
        <time>2020-08-12T10:24:59Z</time>
      </trkpt>
      <trkpt lat="48.66531" lon="7.19595">
        <ele>279</ele>
        <time>2020-08-12T10:25:11Z</time>
      </trkpt>
      <trkpt lat="48.66538" lon="7.19597">
        <ele>276.8</ele>
        <time>2020-08-12T10:25:14Z</time>
      </trkpt>
      <trkpt lat="48.6655" lon="7.19602">
        <ele>275.1</ele>
        <time>2020-08-12T10:25:17Z</time>
      </trkpt>
      <trkpt lat="48.66561" lon="7.19607">
        <ele>274.6</ele>
        <time>2020-08-12T10:25:19Z</time>
      </trkpt>
      <trkpt lat="48.6657" lon="7.19611">
        <ele>274.2</ele>
        <time>2020-08-12T10:25:21Z</time>
      </trkpt>
      <trkpt lat="48.66578" lon="7.19617">
        <ele>272.5</ele>
        <time>2020-08-12T10:25:23Z</time>
      </trkpt>
      <trkpt lat="48.66588" lon="7.19623">
        <ele>271.7</ele>
        <time>2020-08-12T10:25:25Z</time>
      </trkpt>
      <trkpt lat="48.66596" lon="7.19626">
        <ele>271.1</ele>
        <time>2020-08-12T10:25:27Z</time>
      </trkpt>
      <trkpt lat="48.66606" lon="7.1963">
        <ele>271</ele>
        <time>2020-08-12T10:25:29Z</time>
      </trkpt>
      <trkpt lat="48.66615" lon="7.19634">
        <ele>270.9</ele>
        <time>2020-08-12T10:25:31Z</time>
      </trkpt>
      <trkpt lat="48.66625" lon="7.19642">
        <ele>269.1</ele>
        <time>2020-08-12T10:25:34Z</time>
      </trkpt>
      <trkpt lat="48.66631" lon="7.19647">
        <ele>269.7</ele>
        <time>2020-08-12T10:25:36Z</time>
      </trkpt>
      <trkpt lat="48.66636" lon="7.19652">
        <ele>269</ele>
        <time>2020-08-12T10:25:38Z</time>
      </trkpt>
      <trkpt lat="48.66641" lon="7.19655">
        <ele>269.3</ele>
        <time>2020-08-12T10:25:44Z</time>
      </trkpt>
      <trkpt lat="48.66645" lon="7.19658">
        <ele>269.3</ele>
        <time>2020-08-12T10:25:57Z</time>
      </trkpt>
      <trkpt lat="48.66654" lon="7.19661">
        <ele>269.6</ele>
        <time>2020-08-12T10:25:59Z</time>
      </trkpt>
      <trkpt lat="48.66665" lon="7.19663">
        <ele>269.6</ele>
        <time>2020-08-12T10:26:02Z</time>
      </trkpt>
      <trkpt lat="48.66676" lon="7.19666">
        <ele>269.4</ele>
        <time>2020-08-12T10:26:05Z</time>
      </trkpt>
      <trkpt lat="48.66684" lon="7.19669">
        <ele>269.2</ele>
        <time>2020-08-12T10:26:07Z</time>
      </trkpt>
      <trkpt lat="48.66691" lon="7.19672">
        <ele>268.9</ele>
        <time>2020-08-12T10:26:09Z</time>
      </trkpt>
      <trkpt lat="48.667" lon="7.19678">
        <ele>269.3</ele>
        <time>2020-08-12T10:26:12Z</time>
      </trkpt>
      <trkpt lat="48.66707" lon="7.19683">
        <ele>270.3</ele>
        <time>2020-08-12T10:26:14Z</time>
      </trkpt>
      <trkpt lat="48.6672" lon="7.19692">
        <ele>271.8</ele>
        <time>2020-08-12T10:26:17Z</time>
      </trkpt>
      <trkpt lat="48.66725" lon="7.19694">
        <ele>272.8</ele>
        <time>2020-08-12T10:26:19Z</time>
      </trkpt>
      <trkpt lat="48.66735" lon="7.197">
        <ele>273.3</ele>
        <time>2020-08-12T10:26:21Z</time>
      </trkpt>
      <trkpt lat="48.66746" lon="7.19708">
        <ele>273.9</ele>
        <time>2020-08-12T10:26:24Z</time>
      </trkpt>
      <trkpt lat="48.66754" lon="7.19713">
        <ele>319.3</ele>
        <time>2020-08-12T10:26:26Z</time>
      </trkpt>
      <trkpt lat="48.66761" lon="7.19717">
        <ele>319.6</ele>
        <time>2020-08-12T10:26:28Z</time>
      </trkpt>
      <trkpt lat="48.66771" lon="7.19722">
        <ele>318.6</ele>
        <time>2020-08-12T10:26:30Z</time>
      </trkpt>
      <trkpt lat="48.66781" lon="7.19726">
        <ele>315</ele>
        <time>2020-08-12T10:26:32Z</time>
      </trkpt>
      <trkpt lat="48.66791" lon="7.19728">
        <ele>309.8</ele>
        <time>2020-08-12T10:26:34Z</time>
      </trkpt>
      <trkpt lat="48.66799" lon="7.19729">
        <ele>305.9</ele>
        <time>2020-08-12T10:26:36Z</time>
      </trkpt>
      <trkpt lat="48.66808" lon="7.19729">
        <ele>300.3</ele>
        <time>2020-08-12T10:26:38Z</time>
      </trkpt>
      <trkpt lat="48.66818" lon="7.1973">
        <ele>294.6</ele>
        <time>2020-08-12T10:26:40Z</time>
      </trkpt>
      <trkpt lat="48.66828" lon="7.1973">
        <ele>289.7</ele>
        <time>2020-08-12T10:26:42Z</time>
      </trkpt>
      <trkpt lat="48.66837" lon="7.19729">
        <ele>285.4</ele>
        <time>2020-08-12T10:26:44Z</time>
      </trkpt>
      <trkpt lat="48.66847" lon="7.19727">
        <ele>281.8</ele>
        <time>2020-08-12T10:26:46Z</time>
      </trkpt>
      <trkpt lat="48.66856" lon="7.19725">
        <ele>278.7</ele>
        <time>2020-08-12T10:26:48Z</time>
      </trkpt>
      <trkpt lat="48.66865" lon="7.19722">
        <ele>275.6</ele>
        <time>2020-08-12T10:26:50Z</time>
      </trkpt>
      <trkpt lat="48.66875" lon="7.19721">
        <ele>273.4</ele>
        <time>2020-08-12T10:26:52Z</time>
      </trkpt>
      <trkpt lat="48.66883" lon="7.19717">
        <ele>309.8</ele>
        <time>2020-08-12T10:26:54Z</time>
      </trkpt>
      <trkpt lat="48.66892" lon="7.19714">
        <ele>305.7</ele>
        <time>2020-08-12T10:26:56Z</time>
      </trkpt>
      <trkpt lat="48.669" lon="7.19712">
        <ele>308.9</ele>
        <time>2020-08-12T10:26:58Z</time>
      </trkpt>
      <trkpt lat="48.66907" lon="7.19712">
        <ele>307.8</ele>
        <time>2020-08-12T10:27:00Z</time>
      </trkpt>
      <trkpt lat="48.66918" lon="7.19707">
        <ele>302.3</ele>
        <time>2020-08-12T10:27:02Z</time>
      </trkpt>
      <trkpt lat="48.66928" lon="7.19702">
        <ele>296.6</ele>
        <time>2020-08-12T10:27:04Z</time>
      </trkpt>
      <trkpt lat="48.66938" lon="7.19693">
        <ele>291.9</ele>
        <time>2020-08-12T10:27:06Z</time>
      </trkpt>
      <trkpt lat="48.6695" lon="7.1969">
        <ele>287.8</ele>
        <time>2020-08-12T10:27:08Z</time>
      </trkpt>
      <trkpt lat="48.66962" lon="7.19688">
        <ele>314</ele>
        <time>2020-08-12T10:27:10Z</time>
      </trkpt>
      <trkpt lat="48.66974" lon="7.19685">
        <ele>314.3</ele>
        <time>2020-08-12T10:27:12Z</time>
      </trkpt>
      <trkpt lat="48.66985" lon="7.19682">
        <ele>310.1</ele>
        <time>2020-08-12T10:27:14Z</time>
      </trkpt>
      <trkpt lat="48.66996" lon="7.19681">
        <ele>304.3</ele>
        <time>2020-08-12T10:27:16Z</time>
      </trkpt>
      <trkpt lat="48.67007" lon="7.1968">
        <ele>299.6</ele>
        <time>2020-08-12T10:27:18Z</time>
      </trkpt>
      <trkpt lat="48.67019" lon="7.19681">
        <ele>295.6</ele>
        <time>2020-08-12T10:27:20Z</time>
      </trkpt>
      <trkpt lat="48.6703" lon="7.1968">
        <ele>292.5</ele>
        <time>2020-08-12T10:27:22Z</time>
      </trkpt>
      <trkpt lat="48.67042" lon="7.19683">
        <ele>288.6</ele>
        <time>2020-08-12T10:27:24Z</time>
      </trkpt>
      <trkpt lat="48.67052" lon="7.19686">
        <ele>285.3</ele>
        <time>2020-08-12T10:27:26Z</time>
      </trkpt>
      <trkpt lat="48.67063" lon="7.19689">
        <ele>283.1</ele>
        <time>2020-08-12T10:27:28Z</time>
      </trkpt>
      <trkpt lat="48.67076" lon="7.19692">
        <ele>280.3</ele>
        <time>2020-08-12T10:27:30Z</time>
      </trkpt>
      <trkpt lat="48.67095" lon="7.197">
        <ele>277.2</ele>
        <time>2020-08-12T10:27:33Z</time>
      </trkpt>
      <trkpt lat="48.67107" lon="7.19703">
        <ele>275.8</ele>
        <time>2020-08-12T10:27:35Z</time>
      </trkpt>
      <trkpt lat="48.67119" lon="7.19707">
        <ele>274.9</ele>
        <time>2020-08-12T10:27:37Z</time>
      </trkpt>
      <trkpt lat="48.67129" lon="7.1971">
        <ele>274.3</ele>
        <time>2020-08-12T10:27:39Z</time>
      </trkpt>
      <trkpt lat="48.67142" lon="7.19712">
        <ele>274.5</ele>
        <time>2020-08-12T10:27:41Z</time>
      </trkpt>
      <trkpt lat="48.67155" lon="7.19714">
        <ele>274.4</ele>
        <time>2020-08-12T10:27:43Z</time>
      </trkpt>
      <trkpt lat="48.67166" lon="7.19716">
        <ele>274.9</ele>
        <time>2020-08-12T10:27:45Z</time>
      </trkpt>
      <trkpt lat="48.67176" lon="7.19717">
        <ele>275.4</ele>
        <time>2020-08-12T10:27:47Z</time>
      </trkpt>
      <trkpt lat="48.67188" lon="7.1972">
        <ele>276</ele>
        <time>2020-08-12T10:27:49Z</time>
      </trkpt>
      <trkpt lat="48.67197" lon="7.19723">
        <ele>276.8</ele>
        <time>2020-08-12T10:27:51Z</time>
      </trkpt>
      <trkpt lat="48.67202" lon="7.19726">
        <ele>276.9</ele>
        <time>2020-08-12T10:27:54Z</time>
      </trkpt>
      <trkpt lat="48.67209" lon="7.19726">
        <ele>274.6</ele>
        <time>2020-08-12T10:28:11Z</time>
      </trkpt>
      <trkpt lat="48.67214" lon="7.19726">
        <ele>274.2</ele>
        <time>2020-08-12T10:28:13Z</time>
      </trkpt>
      <trkpt lat="48.6722" lon="7.19727">
        <ele>273.7</ele>
        <time>2020-08-12T10:28:15Z</time>
      </trkpt>
      <trkpt lat="48.67228" lon="7.19728">
        <ele>273.1</ele>
        <time>2020-08-12T10:28:17Z</time>
      </trkpt>
      <trkpt lat="48.67238" lon="7.19728">
        <ele>272.1</ele>
        <time>2020-08-12T10:28:19Z</time>
      </trkpt>
      <trkpt lat="48.67248" lon="7.19728">
        <ele>271.7</ele>
        <time>2020-08-12T10:28:21Z</time>
      </trkpt>
      <trkpt lat="48.67257" lon="7.19728">
        <ele>271.7</ele>
        <time>2020-08-12T10:28:23Z</time>
      </trkpt>
      <trkpt lat="48.67267" lon="7.19729">
        <ele>272.2</ele>
        <time>2020-08-12T10:28:25Z</time>
      </trkpt>
      <trkpt lat="48.67278" lon="7.19731">
        <ele>272.8</ele>
        <time>2020-08-12T10:28:27Z</time>
      </trkpt>
      <trkpt lat="48.67291" lon="7.19732">
        <ele>273.4</ele>
        <time>2020-08-12T10:28:29Z</time>
      </trkpt>
      <trkpt lat="48.67305" lon="7.19734">
        <ele>273.5</ele>
        <time>2020-08-12T10:28:31Z</time>
      </trkpt>
      <trkpt lat="48.67317" lon="7.19735">
        <ele>273.4</ele>
        <time>2020-08-12T10:28:33Z</time>
      </trkpt>
      <trkpt lat="48.67329" lon="7.19736">
        <ele>272.9</ele>
        <time>2020-08-12T10:28:35Z</time>
      </trkpt>
      <trkpt lat="48.6734" lon="7.19739">
        <ele>272.3</ele>
        <time>2020-08-12T10:28:37Z</time>
      </trkpt>
      <trkpt lat="48.67351" lon="7.19742">
        <ele>271.9</ele>
        <time>2020-08-12T10:28:39Z</time>
      </trkpt>
      <trkpt lat="48.67363" lon="7.19745">
        <ele>271.1</ele>
        <time>2020-08-12T10:28:41Z</time>
      </trkpt>
      <trkpt lat="48.67373" lon="7.19752">
        <ele>270</ele>
        <time>2020-08-12T10:28:43Z</time>
      </trkpt>
      <trkpt lat="48.67383" lon="7.19758">
        <ele>269.6</ele>
        <time>2020-08-12T10:28:45Z</time>
      </trkpt>
      <trkpt lat="48.67391" lon="7.19763">
        <ele>269.1</ele>
        <time>2020-08-12T10:28:47Z</time>
      </trkpt>
      <trkpt lat="48.674" lon="7.19771">
        <ele>268.6</ele>
        <time>2020-08-12T10:28:49Z</time>
      </trkpt>
      <trkpt lat="48.67409" lon="7.19778">
        <ele>268.3</ele>
        <time>2020-08-12T10:28:51Z</time>
      </trkpt>
      <trkpt lat="48.6742" lon="7.19785">
        <ele>269</ele>
        <time>2020-08-12T10:28:53Z</time>
      </trkpt>
      <trkpt lat="48.6743" lon="7.19793">
        <ele>269.3</ele>
        <time>2020-08-12T10:28:55Z</time>
      </trkpt>
      <trkpt lat="48.67439" lon="7.198">
        <ele>269.7</ele>
        <time>2020-08-12T10:28:57Z</time>
      </trkpt>
      <trkpt lat="48.6745" lon="7.19807">
        <ele>269.3</ele>
        <time>2020-08-12T10:28:59Z</time>
      </trkpt>
      <trkpt lat="48.67465" lon="7.19814">
        <ele>268.8</ele>
        <time>2020-08-12T10:29:01Z</time>
      </trkpt>
      <trkpt lat="48.67476" lon="7.19819">
        <ele>268.6</ele>
        <time>2020-08-12T10:29:03Z</time>
      </trkpt>
      <trkpt lat="48.67484" lon="7.19824">
        <ele>268.4</ele>
        <time>2020-08-12T10:29:05Z</time>
      </trkpt>
      <trkpt lat="48.67495" lon="7.1983">
        <ele>267.6</ele>
        <time>2020-08-12T10:29:07Z</time>
      </trkpt>
      <trkpt lat="48.67506" lon="7.19834">
        <ele>266.7</ele>
        <time>2020-08-12T10:29:09Z</time>
      </trkpt>
      <trkpt lat="48.67515" lon="7.19839">
        <ele>266</ele>
        <time>2020-08-12T10:29:11Z</time>
      </trkpt>
      <trkpt lat="48.67524" lon="7.19842">
        <ele>264.5</ele>
        <time>2020-08-12T10:29:13Z</time>
      </trkpt>
      <trkpt lat="48.67533" lon="7.19844">
        <ele>263.7</ele>
        <time>2020-08-12T10:29:15Z</time>
      </trkpt>
      <trkpt lat="48.67541" lon="7.19843">
        <ele>263.1</ele>
        <time>2020-08-12T10:29:17Z</time>
      </trkpt>
      <trkpt lat="48.67551" lon="7.19845">
        <ele>263</ele>
        <time>2020-08-12T10:29:19Z</time>
      </trkpt>
      <trkpt lat="48.67559" lon="7.19847">
        <ele>292.2</ele>
        <time>2020-08-12T10:29:21Z</time>
      </trkpt>
      <trkpt lat="48.67565" lon="7.19851">
        <ele>293.2</ele>
        <time>2020-08-12T10:29:23Z</time>
      </trkpt>
      <trkpt lat="48.67572" lon="7.19856">
        <ele>289.9</ele>
        <time>2020-08-12T10:29:25Z</time>
      </trkpt>
      <trkpt lat="48.6758" lon="7.1986">
        <ele>286.7</ele>
        <time>2020-08-12T10:29:27Z</time>
      </trkpt>
      <trkpt lat="48.67589" lon="7.19865">
        <ele>283.6</ele>
        <time>2020-08-12T10:29:29Z</time>
      </trkpt>
      <trkpt lat="48.67599" lon="7.19871">
        <ele>280.1</ele>
        <time>2020-08-12T10:29:31Z</time>
      </trkpt>
      <trkpt lat="48.67608" lon="7.19874">
        <ele>276.9</ele>
        <time>2020-08-12T10:29:33Z</time>
      </trkpt>
      <trkpt lat="48.67617" lon="7.19876">
        <ele>274.7</ele>
        <time>2020-08-12T10:29:35Z</time>
      </trkpt>
      <trkpt lat="48.67627" lon="7.19876">
        <ele>273.6</ele>
        <time>2020-08-12T10:29:37Z</time>
      </trkpt>
      <trkpt lat="48.67636" lon="7.19877">
        <ele>273.3</ele>
        <time>2020-08-12T10:29:39Z</time>
      </trkpt>
      <trkpt lat="48.67643" lon="7.19878">
        <ele>273.4</ele>
        <time>2020-08-12T10:29:41Z</time>
      </trkpt>
      <trkpt lat="48.67648" lon="7.19879">
        <ele>272.5</ele>
        <time>2020-08-12T10:29:45Z</time>
      </trkpt>
      <trkpt lat="48.67652" lon="7.19883">
        <ele>270.8</ele>
        <time>2020-08-12T10:30:37Z</time>
      </trkpt>
      <trkpt lat="48.67659" lon="7.19883">
        <ele>271.2</ele>
        <time>2020-08-12T10:30:40Z</time>
      </trkpt>
      <trkpt lat="48.67664" lon="7.19883">
        <ele>271.6</ele>
        <time>2020-08-12T10:30:42Z</time>
      </trkpt>
      <trkpt lat="48.67669" lon="7.1988">
        <ele>270.7</ele>
        <time>2020-08-12T10:30:49Z</time>
      </trkpt>
      <trkpt lat="48.67673" lon="7.19877">
        <ele>270.4</ele>
        <time>2020-08-12T10:30:51Z</time>
      </trkpt>
      <trkpt lat="48.6768" lon="7.19874">
        <ele>270.1</ele>
        <time>2020-08-12T10:30:53Z</time>
      </trkpt>
      <trkpt lat="48.67689" lon="7.19869">
        <ele>269.7</ele>
        <time>2020-08-12T10:30:55Z</time>
      </trkpt>
      <trkpt lat="48.677" lon="7.19863">
        <ele>269.2</ele>
        <time>2020-08-12T10:30:57Z</time>
      </trkpt>
      <trkpt lat="48.67712" lon="7.19856">
        <ele>268.4</ele>
        <time>2020-08-12T10:30:59Z</time>
      </trkpt>
      <trkpt lat="48.67724" lon="7.19848">
        <ele>267.5</ele>
        <time>2020-08-12T10:31:01Z</time>
      </trkpt>
      <trkpt lat="48.67738" lon="7.19837">
        <ele>266.8</ele>
        <time>2020-08-12T10:31:03Z</time>
      </trkpt>
      <trkpt lat="48.67754" lon="7.19824">
        <ele>265.8</ele>
        <time>2020-08-12T10:31:05Z</time>
      </trkpt>
      <trkpt lat="48.67771" lon="7.19809">
        <ele>264.7</ele>
        <time>2020-08-12T10:31:07Z</time>
      </trkpt>
      <trkpt lat="48.67788" lon="7.19795">
        <ele>264</ele>
        <time>2020-08-12T10:31:09Z</time>
      </trkpt>
      <trkpt lat="48.67804" lon="7.19783">
        <ele>263</ele>
        <time>2020-08-12T10:31:11Z</time>
      </trkpt>
      <trkpt lat="48.67821" lon="7.19769">
        <ele>261.8</ele>
        <time>2020-08-12T10:31:13Z</time>
      </trkpt>
      <trkpt lat="48.67839" lon="7.19756">
        <ele>260.5</ele>
        <time>2020-08-12T10:31:15Z</time>
      </trkpt>
      <trkpt lat="48.67857" lon="7.19744">
        <ele>259.1</ele>
        <time>2020-08-12T10:31:17Z</time>
      </trkpt>
      <trkpt lat="48.67874" lon="7.19732">
        <ele>257.9</ele>
        <time>2020-08-12T10:31:19Z</time>
      </trkpt>
      <trkpt lat="48.67892" lon="7.19721">
        <ele>256.8</ele>
        <time>2020-08-12T10:31:21Z</time>
      </trkpt>
      <trkpt lat="48.67908" lon="7.19711">
        <ele>256.5</ele>
        <time>2020-08-12T10:31:23Z</time>
      </trkpt>
      <trkpt lat="48.67923" lon="7.19705">
        <ele>255.4</ele>
        <time>2020-08-12T10:31:25Z</time>
      </trkpt>
      <trkpt lat="48.67936" lon="7.197">
        <ele>255</ele>
        <time>2020-08-12T10:31:27Z</time>
      </trkpt>
      <trkpt lat="48.6795" lon="7.19696">
        <ele>254.2</ele>
        <time>2020-08-12T10:31:29Z</time>
      </trkpt>
      <trkpt lat="48.67965" lon="7.19693">
        <ele>253.7</ele>
        <time>2020-08-12T10:31:31Z</time>
      </trkpt>
      <trkpt lat="48.67981" lon="7.19694">
        <ele>253</ele>
        <time>2020-08-12T10:31:33Z</time>
      </trkpt>
      <trkpt lat="48.67997" lon="7.19696">
        <ele>252.2</ele>
        <time>2020-08-12T10:31:35Z</time>
      </trkpt>
      <trkpt lat="48.68014" lon="7.19701">
        <ele>251.2</ele>
        <time>2020-08-12T10:31:37Z</time>
      </trkpt>
      <trkpt lat="48.68032" lon="7.19707">
        <ele>250.3</ele>
        <time>2020-08-12T10:31:39Z</time>
      </trkpt>
      <trkpt lat="48.68049" lon="7.19716">
        <ele>249.2</ele>
        <time>2020-08-12T10:31:41Z</time>
      </trkpt>
      <trkpt lat="48.68067" lon="7.19723">
        <ele>249</ele>
        <time>2020-08-12T10:31:43Z</time>
      </trkpt>
      <trkpt lat="48.68085" lon="7.19727">
        <ele>248.5</ele>
        <time>2020-08-12T10:31:45Z</time>
      </trkpt>
      <trkpt lat="48.68105" lon="7.19727">
        <ele>247.7</ele>
        <time>2020-08-12T10:31:47Z</time>
      </trkpt>
      <trkpt lat="48.68124" lon="7.19726">
        <ele>246.3</ele>
        <time>2020-08-12T10:31:49Z</time>
      </trkpt>
      <trkpt lat="48.68143" lon="7.19724">
        <ele>245</ele>
        <time>2020-08-12T10:31:51Z</time>
      </trkpt>
      <trkpt lat="48.6816" lon="7.19722">
        <ele>244.2</ele>
        <time>2020-08-12T10:31:53Z</time>
      </trkpt>
      <trkpt lat="48.68172" lon="7.19721">
        <ele>243.3</ele>
        <time>2020-08-12T10:31:55Z</time>
      </trkpt>
      <trkpt lat="48.68181" lon="7.19723">
        <ele>243.1</ele>
        <time>2020-08-12T10:31:57Z</time>
      </trkpt>
      <trkpt lat="48.68183" lon="7.19731">
        <ele>243.5</ele>
        <time>2020-08-12T10:32:00Z</time>
      </trkpt>
    </trkseg>
  </trk>
</gpx>